[[{"header":{"parameterUnit":"m.s-1","parameterCategory":1,"la1":31.0,"la2":29.5877,"lo1":-88.7671,"lo2":-86.6584,"dy":0.0162,"dx":0.0185,"nx":115,"ny":88,"refTime":"2023-06-21T12:00:00:Z","depth":0,"parameterNumber":2,"parameterNumberName":"U-component_of_WINDS"},"data":[0.0,0.0,0.0,0.0,0.0,0.0,0.0,0.0,0.0,0.0,0.0,0.0,0.0,0.0,0.0,0.0,0.0,0.0,0.0,0.0,0.0,0.0,0.0,0.0,0.0,0.0,0.0,0.0,0.0,0.0,0.0,0.0,0.0,0.0,0.0,0.0,0.0,0.0,0.0,0.0,0.0,0.0,0.0,0.0,0.0,0.0,0.0,0.0,0.0,0.0,0.0,0.0,0.0,0.0,0.0,0.0,0.0,0.0,0.0,0.0,0.0,0.0,0.0,0.0,0.0,0.0,0.0,0.0,0.0,0.0,0.0,0.0,0.0,0.0,0.0,0.0,0.0,0.0,0.0,0.0,0.0,0.0,0.0,0.0,0.0,0.0,0.0,0.0,0.0,0.0,0.0,0.0,0.0,0.0,0.0,0.0,0.0,0.0,0.0,0.0,0.0,0.0,0.0,0.0,0.0,0.0,0.0,0.0,0.0,0.0,0.0,0.0,0.0,0.0,0.0,0.0,0.0,0.0,0.0,0.0,0.0,0.0,0.0,0.0,0.0,0.0,0.0,0.0,0.0,0.0,0.0,0.0,0.0,0.0,0.0,0.0,0.0,0.0,0.0,0.0,0.0,0.0,0.0,0.0,0.0,0.0,0.0,0.0,0.0,0.0,0.0,0.0,0.0,0.0,0.0,0.0,0.0,0.0,0.0,0.0,0.0,0.0,0.0,0.0,0.0,0.0,0.0,0.0,0.0,0.0,0.0,0.0,0.0,0.0,0.0,0.0,0.0,0.0,0.0,0.0,0.0,0.0,0.0,0.0,0.0,0.0,0.0,0.0,0.0,0.0,0.0,0.0,0.0,0.0,0.0,0.0,0.0,0.0,0.0,0.0,0.0,0.0,0.0,0.0,0.0,0.0,0.0,0.0,0.0,0.0,0.0,0.0,0.0,0.0,0.0,0.0,0.0,0.0,0.0,0.0,0.0,0.0,0.0,0.0,0.0,0.0,0.0,0.0,0.0,0.0,0.0,0.0,0.0,0.0,0.0,0.0,0.0,0.0,0.0,0.0,0.0,0.0,0.0,0.0,0.0,0.0,0.0,0.0,0.0,0.0,0.0,0.0,0.0,0.0,0.0,0.0,0.0,0.0,0.0,0.0,0.0,0.0,0.0,0.0,0.0,0.0,0.0,0.0,0.0,0.0,0.0,0.0,0.0,0.0,0.0,0.0,0.0,0.0,0.0,0.0,0.0,0.0,0.0,0.0,0.0,0.0,0.0,0.0,0.0,0.0,0.0,0.0,0.0,0.0,0.0,0.0,0.0,0.0,0.0,0.0,0.0,0.0,0.0,0.0,0.0,0.0,0.0,0.0,0.0,0.0,0.0,0.0,0.0,0.0,0.0,0.0,0.0,0.0,0.0,0.0,0.0,0.0,0.0,0.0,0.0,0.0,0.0,0.0,0.0,0.0,0.0,0.0,0.0,0.0,0.0,0.0,0.0,0.0,0.0,0.0,0.0,0.0,0.0,0.0,0.0,0.0,0.0,0.0,0.0,0.0,0.0,0.0,0.0,0.0,0.0,0.0,0.0,0.0,0.0,0.0,0.0,0.0,0.0,0.0,0.0,0.0,0.0,0.0,0.0,0.0,0.0,0.0,0.0,0.0,0.0,0.0,0.0,0.0,0.0,0.0,0.0,0.0,0.0,0.0,0.0,0.0,0.0,0.0,0.0,0.0,0.0,0.0,0.0,0.0,0.0,0.0,0.0,0.0,0.0,0.0,0.0,0.0,0.0,0.0,0.0,0.0,0.0,0.0,0.0,0.0,0.0,0.0,0.0,0.0,0.0,0.0,0.0,0.0,0.0,0.0,0.0,0.0,0.0,0.0,0.0,0.0,0.0,0.0,0.0,0.0,0.0,0.0,0.0,0.0,0.0,0.0,0.0,0.0,0.0,0.0,0.0,0.0,0.0,0.0,0.0,0.0,0.0,0.0,0.0,0.0,0.0,0.0,0.0,0.0,0.0,0.0,0.0,0.0,0.0,0.0,0.0,0.0,0.0,0.0,0.0,0.0,0.0,0.0,0.0,0.0,0.0,0.0,0.0,0.0,0.0,0.0,0.0,0.0,0.0,0.0,0.0,0.0,0.0,0.0,0.0,0.0,0.0,0.0,0.0,0.0,0.0,0.0,0.0,0.0,0.0,0.0,0.0,0.0,0.0,0.0,0.0,0.0,0.0,0.0,0.0,0.0,0.0,0.0,0.0,0.0,0.0,0.0,0.0,0.0,0.0,0.0,0.0,0.0,0.0,0.0,0.0,0.0,0.0,0.0,0.0,0.0,0.0,0.0,0.0,0.0,0.0,0.0,0.0,0.0,0.0,0.0,0.0,0.0,0.0,0.0,0.0,0.0,0.0,0.0,0.0,0.0,0.0,0.0,0.0,0.0,0.0,0.0,0.0,0.0,0.0,0.0,0.0,0.0,0.0,0.0,0.0,0.0,0.0,0.0,0.0,0.0,0.0,0.0,0.0,0.0,0.0,0.0,0.0,0.0,0.0,0.0,0.0,0.0,0.0,0.0,0.0,0.0,0.0,0.0,0.0,0.0,0.0,0.0,0.0,0.0,0.0,0.0,0.0,0.0,0.0,0.0,0.0,0.0,0.0,0.0,0.0,0.0,0.0,0.0,0.0,0.0,0.0,0.0,0.0,0.0,0.0,0.0,0.0,0.0,0.0,0.0,0.0,0.0,0.0,0.0,0.0,0.0,0.0,0.0,0.0,0.0,0.0,0.0,0.0,0.0,0.0,0.0,0.0,0.0,0.0,0.0,0.0,0.0,0.0,0.0,0.0,0.0,0.0,0.0,0.0,0.0,0.0,0.0,0.0,0.0,0.0,0.0,0.0,0.0,0.0,0.0,0.0,0.0,0.0,0.0,0.0,0.0,0.0,0.0,0.0,0.0,0.0,0.0,0.0,0.0,0.0,0.0,0.0,0.0,0.0,0.0,0.0,0.0,0.0,0.0,0.0,0.0,0.0,0.0,0.0,0.0,0.0,0.0,0.0,0.0,0.0,0.0,0.0,0.0,0.0,0.0,0.0,0.0,0.0,0.0,0.0,0.0,0.0,0.0,0.0,0.0,0.0,0.0,0.0,0.0,0.0,0.0,0.0,0.0,0.0,0.0,0.0,0.0,0.0,0.0,0.0,0.0,0.0,0.0,0.0,0.0,0.0,0.0,0.0,0.0,0.0,0.0,0.0,0.0,0.0,0.0,0.0,0.0,0.0,0.0,0.0,0.0,0.0,0.0,0.0,0.0,0.0,0.0,0.0,0.0,0.0,0.0,0.0,0.0,0.0,0.0,0.0,0.0,0.0,0.0,0.0,0.0,0.0,0.0,0.0,0.0,0.0,0.0,0.0,0.0,0.0,0.0,0.0,0.0,0.0,0.0,0.0,0.0,0.0,0.0,0.0,0.0,0.0,0.0,0.0,0.0,0.0,0.0,0.0,0.0,0.0,0.0,0.0,0.0,0.0,0.0,0.0,0.0,0.0,0.0,0.0,0.0,0.0,0.0,0.0,0.0,0.0,0.0,0.0,0.0,0.0,0.0,0.0,0.0,0.0,0.0,0.0,0.0,0.0,0.0,0.0,0.0,0.0,0.0,0.0,0.0,0.0,0.0,0.0,0.0,0.0,0.0,0.0,0.0,0.0,0.0,0.0,0.0,0.0,0.0,0.0,0.0,0.0,0.0,0.0,0.0,0.0,0.0,0.0,0.0,0.0,0.0,0.0,0.0,0.0,0.0,0.0,0.0,0.0,0.0,0.0,0.0,0.0,0.0,0.0,0.0,0.0,0.0,0.0,0.0,0.0,0.0,0.0,0.0,0.0,0.0,0.0,0.0,0.0,0.0,0.0,0.0,0.0,0.0,0.0,0.0,0.0,0.0,0.0,0.0,0.0,0.0,0.0,0.0,0.0,0.0,0.0,0.0,0.0,0.0,0.0,0.0,0.0,0.0,0.0,0.0,0.0,0.0,0.0,0.0,0.0,0.0,0.0,0.0,0.0,0.0,0.0,0.0,0.0,0.0,0.0,0.0,0.0,0.0,0.0,0.0,0.0,0.0,0.0,0.0,0.0,0.0,0.0,0.0,0.0,0.0,0.0,0.0,0.0,0.0,0.0,0.0,0.0,0.0,0.0,0.0,0.0,0.0,0.0,0.0,0.0,0.0,0.0,0.0,0.0,0.0,0.0,0.0,0.0,0.0,0.0,0.0,0.0,0.0,0.0,0.0,-0.2751,0.0,0.0,0.0,0.0,0.0,0.0,0.0,0.0,0.0,0.0,0.0,0.0,0.0,0.0,0.0,0.0,0.0,0.0,0.0,0.0,0.0,0.0,0.0,0.0,0.0,0.0,0.0,0.0,0.0,0.0,0.0,0.0,0.0,0.0,0.0,0.0,0.0,0.0,0.0,0.0,0.0,0.0,0.0,0.0,0.0,0.0,0.0,0.0,0.0,0.0,0.0,0.0,0.0,0.0,0.0,0.0,0.0,0.0,0.0,0.0,0.0,0.0,0.0,0.0,0.0,0.0,0.0,0.0,0.0,0.0,0.0,0.0,0.0,0.0,0.0,0.0,0.0,0.0,0.0,0.0,0.0,0.0,0.0,0.0,0.0,0.0,0.0,0.0,0.0,0.0,0.0,0.0,0.0,0.0,0.0,0.0,0.0,0.0,0.0,0.0,0.0,0.0,0.0,0.0,0.0,0.0,0.0,0.0,0.0,0.0,-0.2779,-0.1515,-0.1249,-0.1381,-0.1815,0.0,0.0,0.0,0.0,0.0,0.0,0.0,0.0,0.0,0.0,0.0,0.0,0.0,0.0,0.0,0.0,0.0,0.0,0.0,0.0,0.0,0.0,0.0,0.0,0.0,0.0,0.0,0.0,0.0,0.0,0.0,0.0,0.0,0.0,0.0,0.0,0.0,0.0,0.0,0.0,0.0,0.0,0.0,0.0,0.0,0.0,0.0,0.0,0.0,0.0,0.0,0.0,0.0,0.0,0.0,0.0,0.0,0.0,0.0,0.0,0.0,0.0,0.0,0.0,0.0,0.0,0.0,0.0,0.0,0.0,0.0,0.0,0.0,0.0,0.0,0.0,0.0,0.0,0.0,0.0,0.0,0.0,0.0,0.0,0.0,0.0,0.0,0.0,0.0,0.0,0.0,0.0,0.0,0.0,0.0,0.0,0.0,0.0,0.0,0.0,0.0,0.0,0.0,0.0,0.0,0.0,0.0,0.0,0.0,0.0,0.0,0.0,0.022,-0.0177,-0.0975,0.0,0.0,0.0,0.0,0.0,0.0,0.0,0.0,0.0,0.0,0.0,0.0,0.0,0.0,0.0,0.0,0.0,0.0,0.0,0.0,0.0,0.0,0.0,0.0,0.0,0.0,0.0,0.0,0.0,0.0,0.0,0.0,0.0,0.0,0.0,0.0,0.0,0.0,0.0,0.0,0.0,0.0,0.0,0.0,0.0,0.0,0.0,0.0,0.0,0.0,0.0,0.0,0.0,0.0,0.0,0.0,0.0,0.0,0.0,0.0,0.0,0.0,0.0,0.0,0.0,0.0,0.0,0.0,0.0,0.0,0.0,0.0,0.0,0.0,0.0,0.0,0.0,0.0,0.0,0.0,0.0,0.0,0.0,0.0,0.0,0.0,0.0,0.0,0.0,0.0,0.0,0.0,0.0,0.0,0.0,0.0,0.0,0.0,0.0,0.0,0.0,0.0,0.0,0.0,0.0,0.0,0.0,0.0,0.0,0.0,0.0305,0.14,0.1203,0.0,-0.0334,0.0,0.0,0.0,0.0,0.0,0.0,0.0,0.0,0.0,0.0,0.0,0.0,0.0,0.0,0.0,0.0,0.0,0.0,0.0,0.0,0.0,0.0,0.0,0.0,0.0,0.0,0.0,0.0,0.0,0.0,0.0,0.0,0.0,0.0,0.0,0.0,0.0,0.0,0.0,0.0,0.0,0.0,0.0,0.0,0.0,0.0,0.0,0.0,0.0,0.0,0.0,0.0,0.0,0.0,0.0,0.0,0.0,0.0,0.0,0.0,0.0,0.0,0.0,0.0,0.0,0.0,0.0,0.0,0.0,0.0,0.0,0.0,0.0,0.0,0.0,0.0,0.0,0.0,0.0,0.0,0.0,0.0,0.0,0.0,0.0,0.0,0.0,0.0,0.0,0.0,0.0,0.0,0.0,0.0,0.0,0.0,0.0,0.0,0.0,0.0,0.0,0.0,0.0,0.0,0.0,0.0,0.0,0.0,0.0,0.0,0.0714,0.1578,0.1351,0.0827,0.0,0.0,0.0,0.0,0.0,0.0,0.0,0.0,0.0,0.0,0.0,0.0,0.0,0.0,0.0,0.0,0.0,0.0,0.0,0.0,0.0,0.0,0.0,0.0,0.0,0.0,0.0,0.0,0.0,0.0,0.0,0.0,0.0,0.0,0.0,0.0,0.0,0.0,0.0,0.0,0.0,0.0,0.0,0.0,0.0,0.0,0.0,0.0,0.0,0.0,0.0,0.0,0.0,0.0,0.0,0.0,0.0,0.0,0.0,0.0,0.0,0.0,0.0,0.0,0.0,0.0,0.0,0.0,0.0,0.0,0.0,0.0,0.0,0.0,0.0,0.0,0.0,0.0,0.0,0.0,0.0,0.0,0.0,0.0,0.0,0.0,0.0,0.0,0.0,0.0,0.0,0.0,0.0,0.0,0.0,0.0,0.0,0.0,0.0,0.0,0.0,0.0,0.0,0.0,0.0,0.0,0.0,0.0,0.0,0.0,-0.0054,0.0628,0.1327,0.1188,0.0828,0.036,0.0,0.0,0.0,0.0,0.0,0.0,0.0,0.0,0.0,0.0,0.0,0.0,0.0,0.0,0.0,0.0,0.0,0.0,0.0,0.0,0.0,0.0,0.0,0.0,0.0,0.0,0.0,0.0,0.0,0.0,0.0,0.0,0.0,0.0,0.0,0.0,0.0,0.0,0.0,0.0,0.0,0.0,0.0,0.0,0.0,0.0,0.0,0.0,0.0,0.0,0.0,0.0,0.0,0.0,0.0,0.0,0.0,0.0,0.0,0.0,0.0,0.0,0.0,0.0,0.0,0.0,0.0,0.0,0.0,0.0,0.0,0.0,0.0,0.0,0.0,0.0,0.0,0.0,0.0,0.0,0.0,0.0,0.0,0.0,0.0,0.0,0.0,0.0,0.0,0.0,0.0,0.0,0.0,0.0,0.0,0.0,0.0,0.0,0.0,0.0,0.0,0.0,0.0,0.0,0.0,0.0,0.0,0.0,-0.1962,-0.0874,0.0029,0.0808,0.077,0.0626,0.0,0.0,0.0,0.0,0.0,0.0,0.0,0.0,0.0,0.0,0.0,0.0,0.0,0.0,0.0,0.0,0.0,0.0,0.0,0.0,0.0,0.0,0.0,0.0,0.0,0.0,0.0,0.0,0.0,0.0,0.0,0.0,0.0,0.0,0.0,0.0,0.0,0.0,0.0,0.0,0.0,0.0,0.0,0.0,0.0,0.0,0.0,0.0,0.0,0.0,0.0,0.0,0.0,0.0,0.0,0.0,0.0,0.0,0.0,0.0,0.0,0.0,0.0,0.0,0.0,0.0,0.0,0.0,0.0,0.0,0.0,0.0,0.0,0.0,0.0,0.0,0.0,0.0,0.0,0.0,0.0,0.0,0.0,0.0,0.0,0.0,0.0,0.0,0.0,0.0,0.0,0.0,0.0,0.0,0.0,0.0,0.0,0.0,0.0,0.0,0.0,0.0,0.0,0.0,0.0,0.0,0.0,0.0,0.0,-0.1573,-0.0657,-0.0,0.0379,0.0317,0.0212,0.0,0.0,0.0,0.0,0.0,0.0,0.0,0.0,0.0,0.0,0.0,0.0,0.0,0.0,0.0,0.0,0.0,0.0,0.0,0.0,0.0,0.0,0.0,0.0,0.0,0.0,0.0,0.0,0.0,0.0,0.0,0.0,0.0,0.0,0.0,0.0,0.0,0.0,0.0,0.0,0.0,0.0,0.0,0.0,0.0,0.0,0.0,0.0,0.0,0.0,0.0,0.0,0.0,0.0,0.0,0.0,0.0,0.0,0.0,0.0,0.0,0.0,0.0,0.0,0.0,0.0,0.0,0.0,0.0,0.0,0.0,0.0,0.0,0.0,0.0,0.0,0.0,0.0,0.0,0.0,0.0,0.0,0.0,0.0,0.0,0.0,0.0,0.0,0.0,0.0,0.0,0.0,0.0,0.0,0.0,0.0,0.0,0.0,0.0,0.0,0.0,0.0,0.0,0.0,0.0,0.0,0.0,0.0,0.0,-0.1371,0.0,-0.0236,-0.0216,-0.0155,-0.0123,0.0,0.0,0.0,0.0,0.0,0.0,0.0,0.0,0.0,0.0,0.0,0.0,0.0,0.0,0.0,0.0,0.0,0.0,0.0,0.0,0.0,0.0,0.0,0.0,0.0,0.0,0.0,0.0,0.0,0.0,0.0,0.0,0.0,0.0,0.0,0.0,0.0,0.0,0.0,0.0,0.0,0.0,0.0,0.0,0.0,0.0,0.0,0.0,0.0,0.0,0.0,0.0,0.0,0.0,0.0,0.0,0.0,0.0,0.0,0.0,0.0,0.0,0.0,0.0,0.0,0.0,0.0,0.0,0.0,0.0,0.0,0.0,0.0,0.0,0.0,0.0,0.0,0.0,0.0,0.0,0.0,0.0,0.0,0.0,0.0,0.0,0.0,0.0,0.0,0.0,0.0,0.0,0.0,0.0,0.0,0.0,0.0,0.0,0.0,0.0,0.0,0.0,0.0,0.0,0.0,0.0,0.0,0.0,-0.1852,-0.1516,-0.0859,-0.0617,-0.1045,-0.0602,-0.0381,0.0,0.0,0.0,0.0,0.0,0.0,0.0,0.0,0.0,0.0,0.0,0.0,0.0,0.0,0.0,0.0,0.0,0.0,0.0,0.0,0.0,0.0,0.0,0.0,0.0,0.0,0.0,0.0,0.0,0.0,0.0,0.0,0.0,0.0,0.0,0.0,0.0,0.0,0.0,0.0,0.0,0.0,0.0,0.0,0.0,0.0,0.0,0.0,0.0,0.0,0.0,0.0,0.0,0.0,0.0,0.0,0.0,0.0,0.0,0.0,0.0,0.0,0.0,0.0,0.0,0.0,0.0,0.0,0.0,0.0,0.0,0.0,0.0,0.0,0.0,0.0,0.0,0.0,0.0,0.0,0.0,0.0,0.0,0.0,0.0,0.0,0.0,0.0,0.0,0.0,0.0,0.0,0.0,0.0,0.0,0.0,0.0,0.0,0.0,0.0,0.0,0.0,0.0,0.0,0.0,0.0,0.0,0.0,0.0,0.053,-0.0,-0.0098,0.026,-0.0061,-0.0167,0.0,0.0,0.0,0.0,0.0,0.0,0.0,0.0,0.0,0.0,0.0,0.0,0.0,0.0,0.0,0.0,0.0,0.0,0.0,0.0,0.0,0.0,0.0,0.0,0.0,0.0,0.0,0.0,0.0,0.0,0.0,0.0,0.0,0.0,0.0,0.0,0.0,0.0,0.0,0.0,0.0,0.0,0.0,0.0,0.0,0.0,0.0,0.0,0.0,0.0,0.0,0.0,0.0,0.0,0.0,0.0,0.0,0.0,0.0,0.0,0.0,0.0,0.0,0.0,0.0,0.0,0.0,0.0,0.0,0.0,0.0,0.0,0.0,0.0,0.0,0.0,0.0,0.0,0.0,0.0,0.0,0.0,0.0,0.0,0.0,0.0,0.0,0.0,0.0,0.0,0.0,0.0,0.0,0.0,0.0,0.0,0.0,0.0,0.0,0.0,0.0,0.0,0.0,0.0,0.0,0.0,0.0,0.0,0.0,0.3863,0.1979,0.1169,0.1632,0.0791,0.0491,0.077,0.0,0.0,0.0,0.0,0.0,0.0,0.0,0.0,0.0,0.0,0.0,0.0,0.0,0.0,0.0,0.0,0.0,0.0,0.0,0.0,0.0,0.0,0.0,0.0,0.0,0.0,0.0,0.0,0.0,0.0,0.0,0.0,0.0,0.0,0.0,0.0,0.0,0.0,0.0,0.0,0.0,0.0,0.0,0.0,0.0,0.0,0.0,0.0,0.0,0.0,0.0,0.0,0.0,0.0,0.0,0.0,0.0,0.0,0.0,0.0,0.0,0.0,0.0,0.0,0.0,0.0,0.0,0.0,0.0,0.0,0.0,0.0,0.0,0.0,0.0,0.0,0.0,0.0,0.0,0.0,0.0,0.0,0.0,0.0,0.0,0.0,0.0,0.0,0.0,0.0,0.0,0.0,0.0,0.0,0.0,0.0,0.0,0.0,0.0,0.0,0.0,0.0,0.0,0.0,0.0,0.0,0.0,0.0,0.8087,0.4904,0.3154,0.3017,0.1983,0.1473,0.0,0.0,0.0,0.0,0.0,0.0,0.0,0.0,0.0,0.0,0.0,0.0,0.0,0.0,0.0,0.0,0.0,0.0,0.0,0.0,0.0,0.0,0.0,0.0,0.0,0.0,0.0,0.0,0.0,0.0,0.0,0.0,0.0,0.0,0.0,0.0,0.0,0.0,0.0,0.0,0.0,0.0,0.0,0.0,0.0,0.0,0.0,0.0,0.0,0.0,0.0,0.0,0.0,0.0,0.0,0.0,0.0,0.0,0.0,0.0,0.0,0.0,0.0,0.0,0.0,0.0,0.0,0.0,0.0,0.0,0.0,0.0,0.0,0.0,0.0,0.0,0.0,0.0,0.0,0.0,0.0,0.0,0.0,0.0,0.0,0.0,0.0,0.0,0.0,0.0,0.0,0.0,0.0,0.0,0.0,0.0,0.0,0.0,0.0,0.0,0.0,0.0,0.0,0.0,0.0,0.0,0.0,0.0,0.0,0.8399,0.7541,0.6314,0.4782,0.3339,0.2192,0.0,0.0,0.0,0.0,0.0,0.0,0.0,0.0,0.0,0.0,0.0,0.0,0.0,0.0,0.0,0.0,0.0,0.0,0.0,0.0,0.0,0.0,0.0,0.0,0.0,0.0,0.0,0.0,0.0,0.0,0.0,0.0,0.0,0.0,0.0,0.0,0.0,0.0,0.0,0.0,0.0,0.0,0.0,0.0,0.0,0.0,0.0,0.0,0.0,0.0,0.0,0.0,0.0,0.0,0.0,0.0,0.0,0.0,0.0,0.0,0.0,0.0,0.0,0.0,0.0,0.0,0.0,0.0,0.0,0.0,0.0,0.0,0.0,0.0,0.0,0.0,0.0,0.0,0.0,0.0,0.0,0.0,0.0,0.0,0.0,0.0,0.0,0.0,0.0,0.0,0.0,0.0,0.0,0.0,0.0,0.0,0.0,0.0,0.0,0.0,0.0,0.0,0.0,0.0,0.0,0.0,0.0,0.0,0.837,1.0062,0.9258,0.8169,0.6874,0.4999,0.3282,0.0,0.0,0.0,0.0,0.0,0.0,0.0,0.0,0.0,0.0,0.0,0.0,0.0,0.0,0.0,0.0,0.0,0.0,0.0,0.0,0.0,0.0,0.0,0.0,0.0,0.0,0.0,0.0,0.0,0.0,0.0,0.0,0.0,0.0,0.0,0.0,0.0,0.0,0.0,0.0,0.0,0.0,0.0,0.0,0.0,0.0,0.0,0.0,0.0,0.0,0.0,0.0,0.0,0.0,0.0,0.0,0.0,0.0,0.0,0.0,0.0,0.0,0.0,0.0,0.0,0.0,0.0,0.0,0.0,0.0,0.0,0.0,0.0,0.0,0.0,0.0,0.0,0.0,0.0,0.0,0.0,0.0,0.0,0.0,0.0,0.0,0.0,0.0,0.0,0.0,0.0,0.0,0.0,0.0,0.0,0.0,0.0,0.0,0.0,0.0,0.0,0.0,0.0,0.0,0.0,0.0,0.0,0.0,0.9529,1.1856,1.0334,0.9283,0.8844,0.6655,0.4431,0.0,0.0,0.0,0.0,0.0,0.0,0.0,0.0,0.0,0.0,0.0,0.0,0.0,0.0,0.0,0.0,0.0,0.0,0.0,0.0,0.0,0.0,0.0,0.0,0.0,0.0,0.0,0.0,0.0,0.0,0.0,0.0,0.0,0.0,0.0,0.0,0.0,0.0,0.0,0.0,0.0,0.0,0.0,0.0,0.0,0.0,0.0,0.0,0.0,0.0,0.0,0.0,0.0,0.0,0.0,0.0,0.0,0.0,0.0,0.0,0.0,0.0,0.0,0.0,0.0,0.0,0.0,0.0,0.0,0.0,0.0,0.0,0.0,0.0,0.0,0.0,0.0,0.0,0.0,0.0,0.0,0.0,0.0,0.0,0.0,0.0,0.0,0.0,0.0,0.0,0.0,0.0,0.0,0.0,0.0,0.0,0.0,0.0,0.0,0.0,0.0,0.0,0.0,0.0,0.0,0.0,0.0,0.0,0.9666,1.0732,1.1137,1.068,0.9306,0.7063,0.4931,0.0,0.0,0.0,0.0,0.0,0.0,0.0,0.0,0.0,0.0,0.0,0.0,0.0,0.0,0.0,0.0,0.0,0.0,0.0,0.0,0.0,0.0,0.0,0.0,0.0,0.0,0.0,0.0,0.0,0.0,0.0,0.0,0.0,0.0,0.0,0.0,0.0,0.0,0.0,0.0,0.0,0.0,0.0,0.0,0.0,0.0,0.0,0.0,-1.3261,0.0,0.0,0.0,0.0,0.0,0.0,0.0,0.0,0.0,0.0,0.0,0.0,0.0,0.0,0.0,0.0,0.0,0.0,0.0,0.0,0.0,0.0,0.0,0.0,0.0,0.0,0.0,0.0,0.0,0.0,0.0,0.0,0.0,0.0,0.0,0.0,0.0,0.0,0.0,0.0,0.0,0.0,0.0,0.0,0.0,0.0,0.0,0.0,0.0,0.0,0.0,0.0,0.0,0.0,0.0,0.0,0.0,0.0,0.0,0.9949,1.0615,1.1384,1.1151,0.9744,0.7879,0.5758,0.0,0.0,0.0,0.0,0.0,0.0,0.0,0.0,0.0,0.0,0.0,0.0,0.0,0.0,0.0,0.0,0.0,0.0,0.0,0.0,0.0,0.0,0.0,0.0,0.0,0.0,0.0,0.0,0.0,0.0,0.0,0.0,0.0,0.0,0.0,0.0,0.0,0.0,0.0,0.0,0.0,0.0,0.0,0.0,0.0,0.0,0.0,0.0,0.0,0.0,0.0,0.0,0.0,0.0,0.0,0.0,0.0,0.0,0.0,0.0,0.0,0.0,0.0,0.0,0.0,0.0,0.0,0.0,0.0,0.0,0.0,0.0,0.0,0.0,0.0,0.0,0.0,0.0,0.0,0.0,0.0,0.0,0.0,0.0,0.0,0.0,0.0,0.0,0.0,0.0,0.0,0.0,0.0,0.0,0.0,0.0,0.0,0.0,0.0,0.0,0.0,0.0,0.0,0.0,0.0,0.0,0.0,0.8822,1.0118,1.0741,1.1393,1.1191,1.0109,0.8685,0.6617,0.3953,0.0,0.0,0.0,0.0,0.0,0.0,0.0,0.0,0.0,0.0,0.0,0.0,0.0,0.0,0.0,0.0,0.0,0.0,0.0,0.0,0.0,0.0,0.0,0.0,0.0,0.0,0.0,0.0,0.0,0.0,0.0,0.0,0.0,0.0,0.0,0.0,0.0,0.0,-1.4035,-1.4383,0.0,0.0,0.0,0.0,0.0,0.0,0.0,0.0,-1.3579,0.0,0.0,0.0,0.0,0.0,0.0,0.0,0.0,0.0,0.0,0.0,0.0,0.0,0.0,0.0,0.0,0.0,0.0,0.0,0.0,0.0,0.0,0.0,0.0,0.0,0.0,0.0,0.0,0.0,0.0,0.0,0.0,0.0,0.0,0.0,0.0,0.0,0.0,0.0,0.0,0.0,0.0,0.0,0.0,0.0,0.0,0.0,0.0,0.0,0.0,0.0,0.0,0.0,0.0,0.0,0.0,0.688,0.8648,0.9873,1.0525,1.1327,1.12,1.0126,0.909,0.7248,0.4542,0.0,0.0,0.0,0.0,0.0,0.0,0.0,0.0,0.0,0.0,0.0,0.0,0.0,0.0,0.0,0.0,0.0,0.0,0.0,0.0,0.0,0.0,0.0,0.0,0.0,0.0,0.0,0.0,0.0,0.0,0.0,0.0,0.0,0.0,0.0,0.0,0.0,0.0,0.0,-1.4532,-1.452,0.0,0.0,0.0,0.0,0.0,0.0,0.0,0.0,-1.4281,0.0,0.0,0.0,0.0,0.0,0.0,0.0,0.0,0.0,0.0,0.0,0.0,0.0,0.0,0.0,0.0,0.0,0.0,0.0,0.0,0.0,0.0,0.0,0.0,0.0,0.0,0.0,0.0,0.0,0.0,0.0,0.0,0.0,0.0,0.0,0.0,0.0,0.0,0.0,0.0,0.0,0.0,0.0,0.0,0.0,0.0,0.0,0.0,0.0,0.0,0.0,0.0,0.0,0.0,0.0,0.6534,0.8158,0.9303,0.9987,1.0718,1.0652,0.9783,0.8547,0.6834,0.0,0.0,0.0,0.0,0.0,0.0,0.0,0.0,0.0,0.0,0.0,0.0,0.0,0.0,0.0,0.0,0.0,0.0,0.0,0.0,0.0,0.0,0.0,0.0,0.0,0.0,0.0,0.0,0.0,0.0,0.0,0.0,0.0,0.0,0.0,0.0,0.0,0.0,0.0,0.0,-1.4131,-1.4391,-1.4757,0.0,0.0,0.0,0.0,0.0,0.0,-1.4467,-1.4917,0.0,0.0,0.0,0.0,0.0,0.0,0.0,0.0,0.0,0.0,0.0,0.0,0.0,0.0,0.0,0.0,0.0,0.0,0.0,0.0,0.0,0.0,0.0,0.0,0.0,0.0,0.0,0.0,0.0,0.0,0.0,0.0,0.0,0.0,0.0,0.0,0.0,0.0,0.0,0.0,0.0,0.0,0.0,0.0,0.0,0.0,0.0,0.0,0.0,0.0,0.0,0.0,0.0,0.0,0.0,0.6083,0.7566,0.8691,0.9444,0.9951,0.9934,0.9257,0.7757,0.6149,0.0,0.0,0.0,0.0,0.0,0.0,0.0,0.0,0.0,0.0,0.0,0.0,0.0,0.0,0.0,0.0,0.0,0.0,0.0,0.0,0.0,0.0,0.0,0.0,0.0,0.0,0.0,0.0,0.0,0.0,0.0,0.0,0.0,0.0,0.0,0.0,0.0,0.0,0.0,0.0,0.0,-1.4249,-1.4829,-1.503,0.0,0.0,0.0,0.0,-1.5297,-1.5349,0.0,0.0,0.0,0.0,0.0,0.0,0.0,0.0,0.0,0.0,0.0,0.0,0.0,0.0,0.0,0.0,0.0,0.0,0.0,0.0,0.0,0.0,0.0,0.0,0.0,0.0,0.0,0.0,0.0,0.0,0.0,0.0,0.0,0.0,0.0,0.0,0.0,0.0,0.0,0.0,0.0,0.0,0.0,0.0,0.0,0.0,0.0,0.0,0.0,0.0,0.0,0.0,0.0,0.0,0.0,0.0,0.5658,0.7048,0.8257,0.9271,0.9356,0.9113,0.8536,0.7081,0.5471,0.0,0.0,0.0,0.0,0.0,0.0,0.0,0.0,0.0,0.0,0.0,0.0,0.0,0.0,0.0,0.0,0.0,0.0,0.0,0.0,0.0,0.0,0.0,0.0,0.0,0.0,0.0,0.0,0.0,0.0,0.0,0.0,0.0,0.0,0.0,0.0,0.0,0.0,0.0,0.0,0.0,-1.3953,-1.4573,-1.501,-1.5392,0.0,0.0,-1.6221,-1.6902,-1.7025,0.0,0.0,0.0,0.0,0.0,0.0,0.0,0.0,0.0,0.0,0.0,0.0,0.0,0.0,0.0,0.0,0.0,0.0,0.0,0.0,0.0,0.0,0.0,0.0,0.0,0.0,0.0,0.0,0.0,0.0,0.0,0.0,0.0,0.0,0.0,0.0,0.0,0.0,0.0,0.0,0.0,0.0,0.0,0.0,0.0,0.0,0.0,0.0,0.0,0.0,0.0,0.0,0.0,0.0,0.0,0.3807,0.4906,0.6009,0.6933,0.7694,0.7858,0.785,0.7725,0.6107,0.4619,0.0,0.0,0.0,0.0,0.0,0.0,0.0,0.0,0.0,0.0,0.0,0.0,0.0,0.0,0.0,0.0,0.0,0.0,0.0,0.0,0.0,0.0,0.0,0.0,0.0,0.0,0.0,0.0,0.0,0.0,0.0,0.0,0.0,0.0,0.0,0.0,0.0,0.0,0.0,0.0,0.0,0.0,-1.369,-1.4272,0.0,0.0,0.0,-1.6718,-1.7178,0.0,0.0,0.0,0.0,0.0,0.0,0.0,0.0,0.0,0.0,0.0,0.0,0.0,0.0,0.0,0.0,0.0,0.0,0.0,0.0,0.0,0.0,0.0,0.0,0.0,0.0,0.0,0.0,0.0,0.0,0.0,0.0,0.0,0.0,0.0,0.0,0.0,0.0,0.0,0.0,0.0,0.0,0.0,0.0,0.0,0.0,0.0,0.0,0.0,0.0,0.0,0.0,0.0,0.0,0.0,0.0,0.0,0.4187,0.4986,0.5679,0.6252,0.6334,0.6435,0.6506,0.5086,0.0,0.0,0.0,0.0,0.0,0.0,0.0,0.0,0.0,0.0,0.0,0.0,0.0,0.0,0.0,0.0,0.0,0.0,0.0,0.0,0.0,0.0,0.0,0.0,0.0,0.0,0.0,-0.637,0.0,0.0,0.0,0.0,0.0,0.0,0.0,0.0,0.0,0.0,0.0,0.0,0.0,0.0,-1.2775,-1.3122,-1.3962,-1.4844,0.0,0.0,-1.7565,-1.7845,-1.9048,-1.9895,0.0,0.0,0.0,0.0,0.0,0.0,0.0,0.0,0.0,0.0,0.0,0.0,0.0,0.0,0.0,0.0,0.0,0.0,0.0,0.0,0.0,0.0,0.0,0.0,0.0,0.0,0.0,0.0,0.0,0.0,0.0,0.0,0.0,0.0,0.0,0.0,0.0,0.0,0.0,0.0,0.0,0.0,0.0,0.0,0.0,0.0,0.0,0.0,0.0,0.0,0.0,0.0,0.0,0.0,0.0,0.3566,0.4232,0.4903,0.5621,0.5252,0.4911,0.4686,0.4081,0.2948,0.0,0.0,0.0,0.0,0.0,0.0,0.0,0.0,0.0,0.0,0.0,0.0,0.0,0.0,0.0,0.0,0.0,0.0,0.0,0.0,0.0,0.0,0.0,0.0,0.0,0.0,0.0,0.0,0.0,0.0,0.0,0.0,0.0,0.0,0.0,0.0,0.0,0.0,0.0,0.0,0.0,-1.2708,-1.3283,-1.4603,-1.5901,0.0,0.0,-1.9204,-1.9714,-2.0501,-2.1096,-2.107,0.0,0.0,0.0,0.0,0.0,0.0,0.0,0.0,0.0,0.0,0.0,0.0,0.0,0.0,0.0,0.0,0.0,0.0,0.0,0.0,0.0,0.0,0.0,0.0,0.0,0.0,0.0,0.0,0.0,0.0,0.0,0.0,0.0,0.0,0.0,0.0,0.0,0.0,0.0,0.0,0.0,0.0,0.0,0.0,0.0,0.0,0.0,0.0,0.0,0.0,0.0,0.0,0.0,0.2217,0.2751,0.3259,0.3666,0.3906,0.3831,0.3875,0.4,0.2833,0.1431,0.0,0.0,0.0,0.0,0.0,0.0,0.0,0.0,0.0,0.0,0.0,0.0,0.0,0.0,0.0,0.0,0.0,0.0,0.0,0.0,0.0,0.0,0.0,0.0,0.0,0.0,0.0,0.0,-0.6405,-0.6649,-0.7688,0.0,0.0,0.0,0.0,0.0,0.0,0.0,0.0,0.0,0.0,-1.1722,-1.2533,-1.3888,0.0,0.0,-1.7802,-1.892,-1.9361,-2.0598,-2.1516,-2.1517,-2.2346,0.0,0.0,0.0,0.0,0.0,0.0,0.0,0.0,0.0,0.0,0.0,0.0,0.0,0.0,0.0,0.0,0.0,0.0,0.0,0.0,0.0,0.0,0.0,0.0,0.0,0.0,0.0,0.0,0.0,0.0,0.0,0.0,0.0,0.0,0.0,0.0,0.0,0.0,0.0,0.0,0.0,0.0,0.0,0.0,0.0,0.0,0.0,0.0,0.0,0.0,0.0,0.0,0.1802,0.2106,0.2441,0.2639,0.2772,0.2629,0.2702,0.2893,0.1709,0.0368,0.0,0.0,0.0,0.0,0.0,0.0,0.0,0.0,0.0,0.0,0.0,0.0,0.0,0.0,0.0,0.0,0.0,0.0,0.0,0.0,0.0,0.0,0.0,0.0,0.0,0.0,0.0,0.0,-0.6558,-0.673,-0.7644,0.0,0.0,0.0,0.0,0.0,0.0,0.0,0.0,0.0,0.0,-1.0956,-1.1706,-1.3159,-1.4546,-1.5747,-1.7451,-1.8753,-1.9316,-2.0487,-2.1362,-2.1378,0.0,0.0,0.0,0.0,0.0,0.0,0.0,0.0,0.0,0.0,0.0,0.0,0.0,0.0,0.0,0.0,0.0,0.0,0.0,0.0,0.0,0.0,0.0,0.0,0.0,0.0,0.0,0.0,0.0,0.0,0.0,0.0,0.0,0.0,0.0,0.0,0.0,0.0,0.0,0.0,0.0,0.0,0.0,0.0,0.0,0.0,0.0,0.0,0.0,0.0,0.0,0.0,0.0,0.1525,0.1607,0.1849,0.2117,0.2447,0.174,0.1336,0.1236,0.0704,-0.0,-0.0907,0.0,0.0,0.0,0.0,0.0,0.0,0.0,0.0,0.0,0.0,0.0,0.0,0.0,0.0,0.0,0.0,0.0,0.0,0.0,0.0,0.0,0.0,0.0,0.0,0.0,0.0,-0.6632,-0.7104,-0.7531,0.0,0.0,0.0,0.0,0.0,0.0,0.0,0.0,0.0,0.0,-0.9984,-1.0523,-1.0901,-1.2589,-1.4257,-1.561,-1.7408,-1.899,-1.9866,-2.03,-2.0551,0.0,0.0,0.0,0.0,0.0,0.0,0.0,0.0,0.0,0.0,0.0,0.0,0.0,0.0,0.0,0.0,0.0,0.0,0.0,0.0,0.0,0.0,0.0,0.0,0.0,0.0,0.0,-0.0639,-0.0669,0.0,0.0,0.0,0.0,0.0,0.0,0.0,0.0,0.0,0.0,0.0,0.1684,0.1767,0.0,0.0,0.0,0.0,0.0,0.0,0.0,0.0,0.0,0.0,0.0,0.0,0.1346,0.1416,0.1628,0.1736,0.1701,0.1094,0.0536,0.01,-0.0235,-0.094,-0.2078,0.0,0.0,0.0,0.0,0.0,0.0,0.0,0.0,0.0,0.0,0.0,0.0,0.0,0.0,0.0,0.0,0.0,0.0,0.0,0.0,0.0,0.0,0.0,0.0,0.0,-0.6666,0.0,0.0,0.0,0.0,0.0,0.0,0.0,0.0,0.0,0.0,0.0,-0.9126,-0.9305,-0.9799,-1.037,-1.1065,-1.2401,-1.3686,0.0,0.0,0.0,0.0,0.0,0.0,0.0,0.0,0.0,0.0,0.0,0.0,0.0,0.0,-1.5769,-1.5717,-1.46,-1.3307,-1.2146,0.0,0.0,0.0,0.0,0.0,0.0,0.0,0.0,0.0,0.0,0.0,0.0,0.0,0.0,0.0,0.0,-0.0882,0.0,0.0,0.0,0.0,0.0,0.0,0.0,0.0,0.1859,0.2085,0.2197,0.2199,0.2075,0.0,0.1726,0.1397,0.0,0.0,0.0,0.0,0.0,0.0,0.0,0.0,0.1082,0.1083,0.1122,0.0971,0.0634,0.0108,-0.0532,-0.1243,-0.1427,-0.1911,-0.2812,-0.3298,-0.3885,0.0,0.0,0.0,0.0,0.0,0.0,0.0,0.0,0.0,0.0,0.0,0.0,0.0,0.0,0.0,0.0,0.0,0.0,0.0,0.0,0.0,0.0,0.0,-0.68,0.0,0.0,0.0,0.0,0.0,0.0,0.0,0.0,0.0,-0.9011,-0.8869,-0.8853,-0.9136,-0.9617,-1.0201,-1.1005,0.0,0.0,0.0,0.0,0.0,0.0,0.0,-1.8472,-1.8963,-1.9197,-1.9071,-1.829,-1.7324,-1.6315,-1.5321,0.0,0.0,-1.3767,-1.277,-1.1532,-1.04,-0.9424,-0.8664,-0.8207,-0.7957,-0.7804,0.0,0.0,0.0,0.0,0.0,0.0,0.0,0.0,-0.1215,-0.1262,0.0,-0.1298,0.0,0.0,0.0,0.0,0.0,0.0,0.0,0.0,0.2183,0.2478,0.2686,0.2478,0.2272,0.2215,0.1895,0.1591,0.1294,0.1146,0.0,0.0,0.0,0.0,0.0,0.0,0.0751,0.0553,0.0238,-0.0158,-0.0628,-0.1176,-0.1837,-0.2644,-0.2781,-0.2926,-0.3117,-0.3523,-0.398,-0.4581,-0.5438,0.0,0.0,0.0,0.0,0.0,0.0,0.0,0.0,0.0,0.0,0.0,0.0,0.0,0.0,0.0,0.0,0.0,0.0,0.0,0.0,-0.7141,0.0,0.0,0.0,0.0,0.0,0.0,0.0,0.0,0.0,0.0,-0.8851,-0.8821,-0.8843,-0.9023,0.0,0.0,0.0,0.0,-1.2513,-1.307,-1.4225,-1.5216,-1.5708,-1.6399,-1.6873,-1.6684,0.0,0.0,-1.588,-1.5058,-1.4378,-1.3751,-1.2636,-1.181,-1.1952,-1.1311,-1.0321,-0.9279,-0.8814,-0.8571,-0.8326,-0.8253,-0.8308,-0.5061,0.0,0.0,0.0,0.0,-0.3004,-0.2409,-0.1928,-0.1728,-0.1577,-0.147,-0.1488,0.0,0.0,0.0,0.0,0.0,0.0,0.2425,0.2466,0.2868,0.3082,0.3095,0.2966,0.2737,0.2461,0.2177,0.1874,0.1465,0.0661,0.0216,0.0148,0.0,0.0,0.0,0.0,0.0043,-0.0315,-0.0677,-0.1066,-0.1506,-0.242,-0.2942,-0.2968,-0.3281,-0.3487,-0.3672,-0.3881,-0.424,-0.486,-0.5625,0.0,0.0,0.0,0.0,0.0,0.0,0.0,0.0,0.0,0.0,0.0,0.0,0.0,0.0,0.0,0.0,0.0,0.0,0.0,-0.7695,-0.7757,-0.7932,0.0,0.0,0.0,0.0,0.0,0.0,0.0,0.0,0.0,-0.8966,-0.8851,-0.8997,0.0,0.0,-1.0068,-1.1027,-1.16,-1.2088,-1.2514,0.0,0.0,0.0,-1.5017,-1.5411,-1.554,-1.5181,-1.4725,-1.4225,-1.3692,-1.3114,-1.2458,-1.1881,-1.1307,-1.0875,-1.0208,-0.959,-0.8845,-0.845,-0.8201,-0.8196,-0.8659,-0.9202,-0.4643,-0.4766,-0.4591,-0.432,-0.3959,-0.3319,-0.2843,-0.242,-0.2193,-0.195,-0.1694,-0.1734,-0.1689,-0.1456,-0.0651,0.0,0.0,0.0,0.2804,0.2858,0.3253,0.3437,0.3337,0.3159,0.2879,0.2555,0.2228,0.1922,0.1651,0.0567,-0.0293,-0.0877,0.0,0.0,-0.0752,-0.0953,-0.1217,-0.1556,-0.2041,-0.2444,-0.2714,-0.3636,-0.4049,-0.3805,-0.4017,-0.413,-0.4192,-0.4231,-0.4482,-0.4969,-0.5697,-0.6361,0.0,0.0,0.0,0.0,0.0,0.0,0.0,0.0,0.0,0.0,0.0,-0.9772,-1.0118,0.0,0.0,0.0,-0.8929,-0.852,-0.8157,-0.8297,0.0,0.0,0.0,0.0,0.0,0.0,0.0,-0.9218,-0.9305,-0.9358,-0.9392,-0.9238,-0.9214,-0.9383,-0.9499,-0.98,-1.0699,0.0,-1.1353,-1.1653,-1.2063,-1.2592,-1.3266,-1.375,-1.4135,-1.448,-1.3996,-1.3511,-1.3268,-1.2903,-1.248,-1.1905,-1.145,-1.1002,-1.0568,-1.0169,-0.9735,-0.9112,-0.8893,-0.8882,-0.9253,-0.9879,-1.047,-0.3977,-0.407,-0.3967,-0.4089,-0.4188,-0.3467,-0.3044,-0.2859,-0.2662,-0.2428,-0.205,-0.2043,-0.1887,-0.1595,-0.0345,0.0,0.0,0.2653,0.2994,0.3109,0.3404,0.3518,0.3411,0.306,0.2765,0.2477,0.2027,0.1773,0.1663,0.0749,-0.0578,-0.2141,-0.1919,-0.1736,-0.178,-0.2361,-0.2798,-0.295,-0.3663,-0.4106,-0.4214,-0.4867,-0.5173,-0.505,-0.4987,-0.4898,-0.473,-0.4666,-0.4783,-0.5074,-0.5766,-0.6433,-0.7062,0.0,0.0,0.0,0.0,0.0,0.0,0.0,0.0,0.0,0.0,0.0,0.0,0.0,0.0,0.0,-0.8933,0.0,-0.8627,-0.8748,0.0,0.0,0.0,-0.8651,-0.8481,-0.8898,-0.9203,-0.9088,0.0,0.0,-1.0015,0.0,-0.9538,-0.9153,-0.9233,-0.9467,-1.0054,-1.0372,-1.0566,-1.0803,-1.1115,-1.1459,-1.2078,-1.2538,-1.3022,-1.3539,-1.324,-1.2923,-1.2793,-1.261,-1.2292,-1.1791,-1.1333,-1.1025,-1.0818,-1.0866,-1.072,-1.0154,-1.0113,-1.0399,-1.1114,-1.1702,-1.2303,-0.3639,-0.3628,-0.3535,-0.3656,-0.3912,-0.3481,-0.3305,-0.3319,-0.3048,-0.2772,-0.2564,-0.2319,-0.1632,-0.055,0.031,0.1137,0.1942,0.2729,0.3271,0.3602,0.3736,0.3845,0.3801,0.3277,0.28,0.2448,0.2211,0.166,0.0887,0.0332,-0.0662,-0.2078,-0.2224,-0.2239,-0.2129,-0.2433,-0.2897,-0.3433,-0.4247,-0.5141,-0.6116,-0.6313,-0.6396,-0.6343,-0.6274,-0.6149,-0.5894,-0.5793,-0.5757,-0.5907,-0.6288,-0.6897,-0.7728,-0.8431,0.0,0.0,0.0,0.0,0.0,0.0,0.0,0.0,0.0,-1.0976,-1.1378,0.0,-1.0846,0.0,-0.9998,-0.9322,-0.8951,-0.8856,0.0,0.0,-0.851,-0.8524,-0.8806,-0.9126,-0.9462,-0.9801,-1.005,-1.0292,-1.0428,-1.0122,-0.9979,-1.0133,-1.0073,-1.0067,-1.0425,-1.0716,-1.0858,-1.0803,-1.0978,-1.1207,-1.162,-1.1881,-1.24,-1.303,-1.274,-1.2384,-1.2503,-1.2384,-1.2145,-1.1857,-1.1668,-1.156,-1.1735,-1.1773,-1.2204,-1.2802,-1.2679,-1.2438,-1.3094,-1.3951,-1.4734,-0.347,-0.359,-0.339,-0.3577,-0.3966,-0.3639,-0.3477,-0.3471,-0.3429,-0.3214,-0.2854,-0.2265,-0.1344,-0.0262,0.0598,0.1349,0.1988,0.2644,0.3176,0.3572,0.3802,0.3861,0.3694,0.3175,0.2775,0.2381,0.2128,0.1427,0.0427,-0.0059,-0.0937,-0.2222,-0.2442,-0.2662,-0.2993,-0.3148,-0.3586,-0.4379,-0.5534,-0.6579,-0.738,-0.7624,-0.761,-0.7504,-0.7433,-0.7271,-0.7095,-0.689,-0.6837,-0.6968,-0.7271,-0.7743,-0.8448,-0.9062,-0.9706,0.0,0.0,0.0,0.0,0.0,0.0,0.0,0.0,0.0,0.0,0.0,-1.1233,0.0,-1.0249,-0.9621,-0.9211,-0.9054,-0.8926,-0.8783,-0.888,-0.9043,-0.9279,-0.9701,-1.0038,-1.0322,-1.0498,-1.0681,-1.0863,-1.0788,-1.0807,-1.1106,-1.1175,-1.0955,-1.0603,-1.0528,-1.0572,-1.0758,-1.0933,-1.1271,-1.186,-1.2471,-1.2949,-1.3132,-1.3169,-1.3084,-1.3143,-1.3194,-1.3132,-1.2828,-1.2735,-1.2735,-1.2693,-1.3067,-1.365,-1.4283,-1.4797,-1.5008,-1.5258,-1.5781,-1.6322,-0.3481,-0.3808,-0.3496,-0.3678,-0.4221,-0.3898,-0.3663,-0.3567,-0.3795,-0.3521,-0.2855,-0.1971,-0.1224,-0.0422,0.0636,0.1416,0.1984,0.2485,0.2986,0.3343,0.3695,0.3713,0.3485,0.3075,0.2724,0.237,0.1895,0.1215,0.0201,-0.0512,-0.137,-0.2475,-0.2572,-0.3116,-0.4017,-0.4206,-0.4689,-0.5612,-0.7111,-0.8084,-0.8404,-0.8742,-0.8783,-0.866,-0.849,-0.8364,-0.8187,-0.7968,-0.791,-0.8128,-0.8387,-0.8753,-0.926,-0.9898,-1.0439,0.0,-1.1137,0.0,0.0,0.0,0.0,0.0,0.0,0.0,0.0,-1.1728,-1.1175,-1.0514,-1.0102,-0.9732,-0.9465,-0.9368,-0.9225,-0.9176,-0.9512,-0.9818,-0.991,-1.0333,-1.0671,-1.0653,-1.0953,-1.1178,-1.1365,-1.156,-1.1685,-1.1903,-1.2081,-1.1892,-1.105,-1.0686,-1.0685,-1.091,-1.1104,-1.1718,-1.2596,-1.3371,-1.38,-1.3708,-1.3844,-1.4127,-1.4007,-1.4209,-1.4308,-1.3987,-1.3989,-1.3993,-1.3597,-1.4294,-1.4987,-1.5339,-1.6356,-1.7174,-1.7103,-1.7176,-1.7463,-0.3879,-0.4161,-0.4042,-0.4069,-0.4165,-0.438,-0.4355,-0.4199,-0.3891,-0.3381,-0.255,-0.1912,-0.1163,-0.0362,0.0517,0.1194,0.172,0.2285,0.2843,0.3455,0.3532,0.3636,0.3778,0.3257,0.2756,0.2301,0.1879,0.1099,-0.0,-0.1465,-0.2226,-0.2364,-0.3018,-0.3745,-0.4515,0.0,0.0,0.0,-0.8215,-0.9051,-0.9607,-0.946,-0.9537,-0.9899,-0.9771,0.0,-0.9257,-0.9148,-0.9058,-0.8898,-0.9044,0.0,0.0,0.0,0.0,0.0,0.0,0.0,0.0,0.0,0.0,0.0,-1.1057,-1.1149,-1.146,-1.1175,-1.0812,-1.0328,-1.0233,-1.0028,-0.9614,-0.9614,-0.9776,-0.994,-1.0129,-1.0413,-1.0755,-1.0945,-1.0991,-1.1002,-1.1149,-1.1365,-1.1685,-1.1872,-1.2182,-1.2658,-1.2606,-1.253,-1.2651,-1.2321,-1.2051,-1.1911,-1.2239,-1.2742,-1.338,-1.3612,-1.3928,-1.4137,-1.4194,-1.4218,-1.4277,-1.4313,-1.4308,-1.4212,-1.4346,-1.4623,-1.4717,-1.5091,-1.5739,-1.6706,-1.7347,-1.7693,-1.7847,-1.8282,-1.8708,-0.4667,0.0,-0.5045,-0.5251,0.0,-0.5555,-0.5462,-0.5184,-0.47,-0.3842,-0.2815,-0.1986,-0.1362,-0.0758,-0.0,0.0694,0.1234,0.1797,0.2433,0.2979,0.3137,0.3272,0.3467,0.3122,0.2712,0.227,0.1965,0.1202,-0.0074,-0.1714,-0.2575,-0.2737,-0.3556,-0.4454,-0.5381,-0.6667,-0.7638,-0.815,-0.8981,-0.9762,-1.0438,-1.054,-1.0697,-1.087,0.0,0.0,0.0,0.0,0.0,0.0,0.0,0.0,0.0,0.0,0.0,-1.136,-1.1226,-1.1074,-1.1023,-1.0922,-1.0913,-1.0922,-1.0777,-1.0777,-1.0964,-1.0871,-1.0667,-1.0395,-1.0352,-1.0146,-0.9836,-1.0023,-1.0242,-1.0322,-1.0677,-1.108,-1.1323,-1.1405,-1.15,-1.1586,-1.1622,-1.1864,-1.2343,-1.2658,-1.3025,-1.3631,-1.3604,-1.3641,-1.3889,-1.3402,-1.2902,-1.3153,-1.3429,-1.3772,-1.4044,-1.4088,-1.417,-1.4487,-1.4649,-1.4772,-1.4984,-1.5032,-1.5076,-1.5093,-1.5285,-1.5499,-1.5605,-1.6095,-1.6813,-1.7456,-1.8048,-1.8526,-1.8809,-1.9016,-1.9251,-0.5481,-0.583,-0.606,-0.6525,-0.7032,-0.6739,-0.6437,-0.6102,0.0,0.0,0.0,-0.24,-0.1748,-0.1273,-0.0557,0.008,0.0636,0.1193,0.1749,0.2224,0.2463,0.2702,0.2945,0.2919,0.2781,0.2371,0.188,0.1061,-0.0081,-0.184,-0.2813,-0.3276,-0.4152,-0.527,-0.6509,-0.8143,-0.8915,-0.8844,-0.9662,-1.0434,-1.1021,-1.1472,-1.1639,-1.1528,-1.1469,-1.1267,-1.0922,-1.082,-1.0777,-1.082,-1.0922,-1.1074,-1.1368,-1.1267,-1.1175,-1.1226,-1.1023,-1.0871,-1.082,-1.082,-1.0769,-1.0675,-1.0573,-1.0514,-1.0667,-1.0675,-1.0616,-1.0522,-1.0419,-1.0288,-1.0142,-1.0432,-1.0655,-1.0652,-1.1218,-1.1629,-1.1713,-1.1813,-1.1919,-1.212,-1.2182,-1.2421,-1.3009,-1.3321,-1.3812,-1.4419,-1.451,-1.4775,-1.4847,-1.4148,-1.3636,-1.4288,-1.4476,-1.458,-1.4722,-1.4769,-1.4819,-1.4974,-1.5235,-1.5491,-1.5773,-1.5961,-1.6029,-1.6005,-1.6415,-1.6553,-1.6481,-1.7192,-1.7852,-1.7979,-1.8622,-1.9279,-1.95,-1.9565,-1.9512,-0.6076,-0.6506,-0.6815,-0.7105,-0.7453,-0.7344,-0.6984,-0.6268,-0.5204,-0.436,-0.368,-0.3167,-0.233,-0.1249,-0.1082,-0.0583,-0.0,0.0333,0.0666,0.0,0.1582,0.1915,0.2166,0.2759,0.3099,0.3016,0.1508,0.0332,-0.0488,-0.2335,-0.3377,-0.3684,-0.4862,-0.632,-0.7731,-0.8508,-0.9092,-0.9536,-1.0699,-1.1366,-1.1667,-1.1747,-1.1688,-1.1495,-1.1242,-1.099,-1.0913,-1.0871,-1.0769,-1.0573,-1.1023,-1.1175,-1.1023,-1.1267,-1.1318,-1.1023,-1.0922,-1.082,-1.0573,-1.0573,-1.0573,-1.0522,-1.0522,-1.0522,-1.0522,-1.0522,-1.0522,-1.0522,-1.0494,-1.0545,-1.0662,-1.0771,-1.1036,-1.1526,-1.1721,-1.1892,-1.2181,-1.2197,-1.2243,-1.2313,-1.2552,-1.2858,-1.339,-1.3761,-1.4181,-1.4725,-1.5029,-1.5186,-1.5533,-1.498,-1.4559,-1.4943,-1.5018,-1.5167,-1.5479,-1.58,-1.5669,-1.5753,-1.5932,-1.6146,-1.626,-1.6379,-1.6524,-1.6637,-1.722,-1.7571,-1.7368,-1.8047,-1.8617,-1.8703,-1.9052,-1.934,-1.9589,-1.9681,-1.9733,-0.672,-0.7201,-0.7773,-0.8204,-0.8568,-0.8291,-0.7786,-0.7072,-0.6151,-0.5236,-0.4357,-0.3714,-0.3023,-0.2267,-0.1764,-0.1261,-0.084,-0.0756,-0.042,0.0168,0.0252,0.0504,0.1009,0.1276,0.1454,0.1626,0.0514,-0.0341,-0.1095,-0.2964,-0.4017,-0.4387,-0.6023,-0.761,-0.8799,-0.9262,-0.9875,-1.0581,-1.112,-1.1575,-1.1986,-1.1935,-1.1843,-1.1791,-1.137,-1.1057,-1.0913,-1.082,-1.0777,-1.0718,-1.0922,-1.1074,-1.1116,-1.1167,-1.1124,-1.093,-1.0769,-1.0616,-1.0522,-1.0522,-1.0522,-1.0522,-1.0522,-1.0522,-1.0624,-1.0573,-1.055,-1.0724,-1.0756,-1.0899,-1.1123,-1.1327,-1.1563,-1.1862,-1.2075,-1.2316,-1.2397,-1.2375,-1.2367,-1.256,-1.2744,-1.3164,-1.3821,-1.4249,-1.4793,-1.5391,-1.5672,-1.5928,-1.6032,-1.5739,-1.5577,-1.5939,-1.5529,-1.5427,-1.5887,-1.5579,-1.5563,-1.5882,-1.5999,-1.621,-1.6584,-1.6842,-1.6965,-1.7054,-1.7639,-1.8076,-1.8103,-1.8885,-1.9409,-1.9479,-1.9714,-1.9883,-1.9793,-1.9985,-2.0263,-0.7267,-0.7729,-0.8442,-0.9084,-0.9558,-0.9181,-0.8548,-0.7879,-0.7139,-0.6201,-0.5217,-0.44,-0.3751,-0.3238,-0.2557,-0.2047,-0.1877,-0.1876,-0.162,-0.1194,-0.1364,-0.1194,-0.0768,-0.0694,-0.0612,-0.0524,-0.1049,-0.157,-0.2162,-0.3773,-0.4915,-0.5559,-0.7223,-0.852,-0.9498,-0.9947,-1.0482,-1.122,-1.1254,-1.1554,-1.2059,-1.1961,-1.1885,-1.1837,-1.1385,-1.1097,-1.0892,-1.0767,-1.0718,-1.082,-1.0871,-1.0972,-1.1124,-1.0972,-1.0871,-1.082,-1.0624,-1.0522,-1.0522,-1.0565,-1.0565,-1.0573,-1.0645,-1.0737,-1.0892,-1.0921,-1.0975,-1.1116,-1.1212,-1.1414,-1.1744,-1.1953,-1.211,-1.2198,-1.2517,-1.2741,-1.2695,-1.2617,-1.2727,-1.304,-1.3289,-1.374,-1.4398,-1.5014,-1.5544,-1.6046,-1.6368,-1.6413,-1.6208,-1.6277,-1.6504,-1.6654,-1.6159,-1.5807,-1.617,-1.587,-1.5751,-1.6235,-1.6223,-1.6493,-1.6949,-1.7224,-1.7301,-1.7423,-1.8045,-1.8542,-1.8908,-1.9692,-2.0237,-2.0285,-2.0471,-2.0578,-2.036,-2.0727,-2.1029,-0.7327,-0.7866,-0.8687,-0.9452,-1.0036,-0.966,-0.8995,-0.8318,-0.7473,-0.6901,-0.6177,-0.5165,-0.4364,-0.3827,-0.3296,-0.3117,-0.3027,-0.3029,-0.3027,-0.2935,-0.3025,-0.3204,-0.329,-0.2854,-0.259,-0.2677,-0.3479,-0.38,-0.3917,-0.4999,-0.6062,-0.7346,-0.7996,-0.8695,-0.9446,-1.0008,-1.0416,-1.0797,-1.1283,-1.1639,-1.1724,-1.1639,-1.1476,-1.1463,-1.1013,-1.0832,-1.0877,-1.0629,-1.0522,-1.0565,-1.0777,-1.082,-1.0624,-1.0777,-1.0777,-1.0581,-1.053,-1.0573,-1.0683,-1.082,-1.0904,-1.0896,-1.1149,-1.1411,-1.164,-1.2044,-1.2104,-1.1842,-1.1831,-1.2172,-1.258,-1.2555,-1.2543,-1.2732,-1.2986,-1.3164,-1.3132,-1.3314,-1.3621,-1.3958,-1.4193,-1.4798,-1.5351,-1.593,-1.6387,-1.6587,-1.669,-1.6715,-1.6759,-1.67,-1.684,-1.728,-1.696,-1.6656,-1.6818,-1.6959,-1.6787,-1.6902,-1.7124,-1.729,-1.7412,-1.7611,-1.7723,-1.8136,-1.8794,-1.9425,-1.9725,-2.0308,-2.1162,-2.106,-2.1113,-2.12,-2.1337,-2.1681,-2.1983,-0.7257,-0.8038,-0.8844,-0.9686,-1.0464,-0.9987,-0.934,-0.8482,-0.791,-0.7197,-0.6449,-0.5792,-0.5383,-0.5009,-0.4824,-0.4612,-0.4379,-0.4379,-0.4346,-0.43,-0.4474,-0.4561,-0.4472,-0.4469,-0.4289,-0.42,-0.4823,-0.5245,-0.5725,-0.6857,-0.7887,-0.855,-0.8902,-0.9301,-0.9575,-0.9756,-0.9987,-1.0325,-1.0533,-1.0757,-1.1005,-1.1226,-1.135,-1.1428,-1.102,-1.0804,-1.0933,-1.074,-1.0674,-1.0764,-1.0737,-1.0616,-1.0522,-1.0773,-1.0938,-1.0788,-1.1193,-1.1453,-1.1569,-1.173,-1.1783,-1.1668,-1.1918,-1.2121,-1.2301,-1.2797,-1.3114,-1.3175,-1.304,-1.305,-1.3355,-1.3237,-1.3141,-1.336,-1.3441,-1.3541,-1.3713,-1.3851,-1.4065,-1.4378,-1.478,-1.5254,-1.5827,-1.6465,-1.6854,-1.697,-1.7026,-1.7126,-1.7132,-1.7181,-1.7444,-1.7786,-1.7684,-1.7499,-1.7424,-1.7202,-1.7222,-1.7364,-1.7404,-1.75,-1.7841,-1.8159,-1.8437,-1.8794,-1.9653,-2.0357,-2.0791,-2.1401,-2.2066,-2.1799,-2.1487,-2.1525,-2.1907,-2.2159,-2.2385,-0.7241,-0.8038,-0.8924,-0.9813,-1.0605,-1.0216,-0.9449,-0.8653,-0.8164,-0.7424,-0.6568,-0.6469,-0.6373,-0.6263,-0.6016,-0.5748,-0.5588,-0.5673,-0.5723,-0.5644,-0.5913,-0.5907,-0.5721,-0.5902,-0.5882,-0.5849,-0.6293,-0.689,-0.7548,-0.852,-0.9289,-0.9476,-0.9687,-0.982,-0.9701,-0.9656,-0.9793,-1.0135,-1.0059,-1.0145,-1.0586,-1.0876,-1.1204,-1.1397,-1.1013,-1.0924,-1.115,-1.0977,-1.0919,-1.1083,-1.0891,-1.0748,-1.0809,-1.0995,-1.1184,-1.1263,-1.174,-1.2175,-1.2342,-1.2517,-1.2572,-1.247,-1.2737,-1.3007,-1.3256,-1.3794,-1.4368,-1.4817,-1.4613,-1.4506,-1.4228,-1.4188,-1.4134,-1.4196,-1.4179,-1.4326,-1.4513,-1.4555,-1.479,-1.5091,-1.5437,-1.5896,-1.6552,-1.713,-1.7427,-1.7472,-1.7452,-1.7424,-1.7381,-1.7577,-1.7857,-1.8136,-1.8282,-1.8148,-1.7823,-1.7553,-1.7506,-1.7585,-1.769,-1.7859,-1.8224,-1.863,-1.9078,-1.944,-2.031,-2.0976,-2.1455,-2.2137,-2.2652,-2.2412,-2.2131,-2.1931,-2.2343,-2.2489,-2.2652,-0.7138,-0.7829,-0.9027,-0.9821,-1.0413,-1.0117,-0.9517,-0.8696,-0.8216,-0.7521,-0.6907,-0.7006,-0.7313,-0.7381,-0.6666,-0.6361,-0.6543,-0.7014,-0.7192,-0.7169,-0.7453,-0.7466,-0.7192,-0.7473,-0.7571,-0.7706,-0.8332,-0.9153,-1.0038,-0.9823,-0.9793,-1.0287,-1.0326,-1.0141,-0.9943,-0.9874,-0.9948,-1.0141,-1.0126,-1.0351,-1.0721,-1.0726,-1.0906,-1.1198,-1.1067,-1.1058,-1.1428,-1.1328,-1.1285,-1.1277,-1.1375,-1.1416,-1.1424,-1.1447,-1.1584,-1.1784,-1.2184,-1.2534,-1.2735,-1.2946,-1.3057,-1.3166,-1.3718,-1.4154,-1.4478,-1.5232,-1.5927,-1.6582,-1.6556,-1.6292,-1.5548,-1.5457,-1.5433,-1.5201,-1.5455,-1.5507,-1.5274,-1.5515,-1.5826,-1.6157,-1.6345,-1.6791,-1.786,-1.8107,-1.8012,-1.7988,-1.7695,-1.736,-1.761,-1.7821,-1.8052,-1.8347,-1.8641,-1.8764,-1.7958,-1.7833,-1.7877,-1.7865,-1.8007,-1.8363,-1.8713,-1.9076,-1.9557,-2.0084,-2.0913,-2.1528,-2.2009,-2.2424,-2.2772,-2.2735,-2.265,-2.2698,-2.2528,-2.2737,-2.2811,-0.6933,-0.763,-0.8531,-0.8928,-0.9126,-0.9225,-0.8825,-0.8131,-0.8233,-0.7839,-0.7141,-0.7138,-0.7335,-0.7621,-0.7622,-0.7818,-0.8119,-0.8306,-0.8441,-0.8535,-0.88,-0.8897,-0.8991,-0.9448,-0.9692,-0.9907,-1.0438,-1.123,-1.1981,-1.1826,-1.1702,-1.1505,-1.1061,-1.0533,-1.0,-0.9648,-0.958,-0.9811,-0.9822,-0.9943,-1.0248,-1.0355,-1.0673,-1.1137,-1.1233,-1.1345,-1.1603,-1.1497,-1.148,-1.1628,-1.1467,-1.1398,-1.1511,-1.1824,-1.2232,-1.2722,-1.3175,-1.3575,-1.3843,-1.4363,-1.4619,-1.4597,-1.512,-1.5427,-1.566,-1.6157,-1.6655,-1.6957,-1.7376,-1.7322,-1.7032,-1.6596,-1.6241,-1.6103,-1.6136,-1.622,-1.6291,-1.6471,-1.6612,-1.6853,-1.6952,-1.7282,-1.7641,-1.7754,-1.7656,-1.7492,-1.7353,-1.7455,-1.752,-1.7733,-1.7991,-1.843,-1.8627,-1.8638,-1.8305,-1.8224,-1.8227,-1.8147,-1.8221,-1.8487,-1.8834,-1.9622,-2.0181,-2.0495,-2.1323,-2.1858,-2.227,-2.2443,-2.2726,-2.2665,-2.2604,-2.2543,-2.2482,-2.2543,-2.2543,-0.6936,-0.7534,-0.7928,-0.8233,-0.8336,-0.8528,-0.8226,-0.773,-0.8031,-0.7836,-0.7338,-0.7335,-0.7633,-0.8028,-0.8627,-0.9265,-0.9736,-0.9732,-0.9853,-1.0017,-1.0297,-1.0485,-1.0679,-1.1229,-1.1563,-1.176,-1.2252,-1.2903,-1.3523,-1.3261,-1.2875,-1.2431,-1.159,-1.0842,-1.0219,-0.9702,-0.9542,-0.9673,-0.9639,-0.9683,-0.9911,-1.0191,-1.0507,-1.0933,-1.1353,-1.1663,-1.1896,-1.1833,-1.184,-1.1897,-1.1781,-1.1783,-1.1984,-1.2518,-1.3124,-1.3596,-1.4197,-1.4628,-1.4952,-1.5501,-1.5775,-1.5804,-1.6163,-1.6474,-1.6593,-1.6977,-1.7313,-1.7606,-1.8102,-1.8431,-1.8334,-1.7959,-1.7598,-1.7427,-1.7156,-1.7248,-1.7642,-1.7647,-1.7661,-1.7789,-1.7803,-1.7885,-1.7917,-1.8015,-1.7945,-1.7719,-1.7707,-1.7725,-1.7835,-1.7977,-1.8162,-1.8628,-1.8865,-1.8865,-1.862,-1.8561,-1.8504,-1.8458,-1.8532,-1.8748,-1.9156,-1.9969,-2.0592,-2.0969,-2.1413,-2.2006,-2.2299,-2.2506,-2.2445,-2.2321,-2.2235,-2.2235,-2.2185,-2.2111,-2.2111,-0.6942,-0.7238,-0.7531,-0.7736,-0.8038,-0.8233,-0.8134,-0.7733,-0.7935,-0.7836,-0.7437,-0.7739,-0.8233,-0.8825,-0.9521,-1.0498,-1.1268,-1.1258,-1.1249,-1.1526,-1.1823,-1.1925,-1.2012,-1.2758,-1.3132,-1.3321,-1.3752,-1.4219,-1.4744,-1.3761,-1.2997,-1.2631,-1.1746,-1.1026,-1.0626,-0.9999,-0.9738,-0.9909,-0.9809,-0.9728,-0.9892,-1.0272,-1.0566,-1.0768,-1.1325,-1.1883,-1.231,-1.2398,-1.2395,-1.2318,-1.2387,-1.2611,-1.278,-1.3485,-1.4131,-1.436,-1.5053,-1.5588,-1.5918,-1.6109,-1.6329,-1.6459,-1.6749,-1.7139,-1.748,-1.7811,-1.823,-1.8735,-1.9155,-1.9441,-1.9492,-1.9626,-1.9556,-1.9073,-1.8635,-1.873,-1.9053,-1.9146,-1.899,-1.8884,-1.871,-1.8751,-1.8757,-1.8644,-1.863,-1.862,-1.8392,-1.8207,-1.8344,-1.8428,-1.8712,-1.8903,-1.9105,-1.9083,-1.8956,-1.8871,-1.8781,-1.8779,-1.8879,-1.9078,-1.9469,-2.0122,-2.0592,-2.1009,-2.1475,-2.2029,-2.2027,-2.2171,-2.2241,-2.2127,-2.2044,-2.193,-2.1851,-2.1799,-2.1761,-0.7138,-0.7238,-0.7335,-0.7338,-0.7537,-0.7935,-0.7939,-0.764,-0.8038,-0.8131,-0.8035,-0.8038,-0.8634,-0.9521,-1.0109,-1.0988,-1.2175,-1.2565,-1.2657,-1.2565,-1.2845,-1.313,-1.342,-1.4094,-1.4715,-1.5256,-1.5579,-1.5652,-1.5452,-1.4421,-1.3578,-1.2859,-1.1662,-1.0901,-1.0472,-1.023,-1.0067,-1.0014,-1.0062,-1.0029,-1.001,-1.0049,-1.0315,-1.0827,-1.1169,-1.1661,-1.2322,-1.2428,-1.2434,-1.2454,-1.2639,-1.2846,-1.3201,-1.3595,-1.4049,-1.4567,-1.5227,-1.5753,-1.6185,-1.668,-1.7038,-1.7191,-1.7445,-1.7949,-1.8399,-1.8705,-1.9073,-1.9655,-2.001,-2.0143,-2.0103,-2.0124,-1.9971,-1.9666,-1.9574,-1.9563,-1.9743,-1.966,-1.9343,-1.896,-1.8822,-1.8752,-1.852,-1.8475,-1.8485,-1.863,-1.8319,-1.8133,-1.8415,-1.8593,-1.8687,-1.9002,-1.917,-1.9309,-1.911,-1.8984,-1.8976,-1.8966,-1.9089,-1.9269,-1.9638,-1.9996,-2.0515,-2.0981,-2.1448,-2.1773,-2.1757,-2.1794,-2.1929,-2.1881,-2.1786,-2.1644,-2.1533,-2.1529,-2.1502,-0.7235,-0.7235,-0.7235,-0.7235,-0.7235,-0.764,-0.7743,-0.7646,-0.8038,-0.8333,-0.8333,-0.8439,-0.9027,-1.0117,-1.0694,-1.1575,-1.2657,-1.3346,-1.3636,-1.3534,-1.3913,-1.4196,-1.458,-1.5242,-1.6008,-1.6425,-1.6458,-1.631,-1.6,-1.4731,-1.378,-1.3117,-1.1932,-1.1123,-1.084,-1.0681,-1.0467,-1.0376,-1.0463,-1.0467,-1.0269,-1.0248,-1.0388,-1.0689,-1.1168,-1.1654,-1.2235,-1.2533,-1.2649,-1.2658,-1.2914,-1.3263,-1.3528,-1.3978,-1.4451,-1.4926,-1.5472,-1.6015,-1.643,-1.694,-1.7494,-1.7736,-1.7968,-1.8437,-1.9072,-1.9323,-1.9554,-1.9961,-2.0236,-2.0472,-2.041,-2.051,-2.0498,-2.035,-2.0126,-2.0126,-2.0196,-2.0272,-2.0082,-1.9747,-1.954,-1.9301,-1.9081,-1.8961,-1.8744,-1.8858,-1.8661,-1.8537,-1.8785,-1.8744,-1.8961,-1.9096,-1.9173,-1.9183,-1.9142,-1.911,-1.9121,-1.9107,-1.9156,-1.9393,-1.9613,-1.9916,-2.0328,-2.064,-2.1035,-2.132,-2.1357,-2.1619,-2.1778,-2.1655,-2.1598,-2.152,-2.1497,-2.1397,-2.1386,-0.7235,-0.7235,-0.7235,-0.7238,-0.7338,-0.7543,-0.7643,-0.7643,-0.7939,-0.8237,-0.8531,-0.8935,-0.9628,-1.0511,-1.1487,-1.2365,-1.3147,-1.3636,-1.4118,-1.4502,-1.4885,-1.5077,-1.5445,-1.6109,-1.6581,-1.6908,-1.6394,-1.6091,-1.5906,-1.4591,-1.3719,-1.3417,-1.2378,-1.1715,-1.1677,-1.1303,-1.1213,-1.1173,-1.1131,-1.1029,-1.0768,-1.0758,-1.0636,-1.0585,-1.1349,-1.1891,-1.2186,-1.2856,-1.3142,-1.2913,-1.3319,-1.3677,-1.4003,-1.4545,-1.4925,-1.5317,-1.5824,-1.6271,-1.6724,-1.7028,-1.7473,-1.8066,-1.827,-1.8753,-1.933,-1.9565,-1.976,-2.0025,-2.037,-2.0561,-2.0642,-2.0777,-2.0998,-2.0971,-2.0546,-2.0526,-2.0854,-2.0793,-2.0629,-2.0581,-2.0493,-2.0359,-2.0246,-2.0184,-1.9998,-1.9913,-1.9737,-1.9665,-1.9624,-1.9499,-1.9437,-1.9468,-1.951,-1.951,-1.9561,-1.9561,-1.9582,-1.9619,-1.9557,-1.9547,-1.9684,-1.9933,-2.015,-2.0479,-2.0732,-2.0974,-2.1149,-2.1468,-2.1688,-2.1603,-2.1603,-2.1533,-2.1468,-2.1359,-2.1239,-0.7739,-0.7739,-0.7839,-0.7739,-0.7839,-0.7842,-0.7839,-0.7942,-0.7939,-0.8233,-0.873,-0.9034,-0.9826,-1.1002,-1.1878,-1.2662,-1.334,-1.3919,-1.44,-1.4688,-1.4987,-1.5465,-1.5933,-1.64,-1.6581,-1.6452,-1.6282,-1.5987,-1.549,-1.4663,-1.3982,-1.3513,-1.2905,-1.2507,-1.2287,-1.2337,-1.232,-1.2333,-1.2115,-1.1861,-1.1591,-1.1321,-1.1128,-1.1155,-1.1651,-1.2093,-1.2494,-1.3259,-1.3639,-1.352,-1.3655,-1.395,-1.4229,-1.453,-1.4856,-1.5275,-1.5638,-1.6061,-1.6474,-1.6901,-1.7332,-1.7729,-1.8098,-1.8637,-1.9278,-1.9691,-2.0062,-2.043,-2.0725,-2.0785,-2.0728,-2.0615,-2.0518,-2.0323,-2.0595,-2.0874,-2.0991,-2.1104,-2.0999,-2.0676,-2.0505,-2.0592,-2.0594,-2.0493,-2.0422,-2.0524,-2.0452,-2.0255,-2.0203,-2.01,-1.9975,-2.01,-2.0151,-2.012,-2.011,-2.011,-2.0131,-2.0162,-2.0056,-1.9854,-1.9917,-1.9991,-2.0253,-2.0495,-2.0931,-2.1144,-2.1317,-2.1544,-2.1543,-2.1664,-2.1653,-2.1653,-2.1535,-2.1418,-2.1246,-0.8038,-0.8038,-0.8038,-0.8038,-0.8038,-0.8038,-0.8038,-0.8038,-0.8038,-0.8333,-0.873,-0.9034,-0.992,-1.1096,-1.1883,-1.2662,-1.334,-1.3919,-1.4304,-1.4688,-1.4981,-1.5458,-1.5933,-1.6211,-1.6103,-1.5906,-1.5906,-1.5622,-1.5229,-1.4703,-1.4358,-1.402,-1.3531,-1.332,-1.3297,-1.3231,-1.3332,-1.3254,-1.3159,-1.2826,-1.2546,-1.2087,-1.1976,-1.1973,-1.2184,-1.2523,-1.3205,-1.3653,-1.3944,-1.4246,-1.423,-1.4359,-1.471,-1.464,-1.4784,-1.507,-1.5408,-1.5796,-1.616,-1.6654,-1.7081,-1.7555,-1.8022,-1.8531,-1.9093,-1.9505,-1.9898,-2.0349,-2.0514,-2.0521,-2.0656,-2.0453,-2.0301,-2.0248,-2.0543,-2.0798,-2.0722,-2.0731,-2.07,-2.0579,-2.0651,-2.0813,-2.1029,-2.0849,-2.0841,-2.0968,-2.0855,-2.0762,-2.07,-2.0586,-2.0534,-2.0648,-2.0576,-2.0452,-2.041,-2.041,-2.0452,-2.0503,-2.0607,-2.0327,-2.025,-2.0228,-2.0329,-2.0679,-2.1041,-2.1389,-2.1445,-2.1543,-2.165,-2.1702,-2.1766,-2.1766,-2.1681,-2.1671,-2.147,-0.8038,-0.8038,-0.8038,-0.8038,-0.8038,-0.8038,-0.8038,-0.8038,-0.8038,-0.8233,-0.873,-0.9034,-0.9723,-1.0806,-1.159,-1.2365,-1.3055,-1.3539,-1.4118,-1.4502,-1.479,-1.5166,-1.5445,-1.5737,-1.5635,-1.5534,-1.5439,-1.5445,-1.5343,-1.5051,-1.4867,-1.4791,-1.4409,-1.4334,-1.4452,-1.4318,-1.4198,-1.4254,-1.4126,-1.3997,-1.3689,-1.3099,-1.2886,-1.3027,-1.3059,-1.338,-1.3967,-1.4191,-1.4402,-1.5194,-1.4828,-1.487,-1.5122,-1.4911,-1.488,-1.5073,-1.5373,-1.5733,-1.6021,-1.6372,-1.6835,-1.7398,-1.7838,-1.8328,-1.8789,-1.9136,-1.946,-1.9861,-1.9816,-2.0035,-2.0143,-2.0186,-2.015,-2.0021,-2.0168,-2.0118,-1.9962,-2.0115,-2.0312,-2.0489,-2.0702,-2.0944,-2.1349,-2.1482,-2.1349,-2.1298,-2.1238,-2.1217,-2.1145,-2.1041,-2.1062,-2.1155,-2.0969,-2.0679,-2.0669,-2.0669,-2.0731,-2.0803,-2.1041,-2.0969,-2.0762,-2.073,-2.0646,-2.0843,-2.123,-2.1492,-2.1513,-2.1669,-2.178,-2.1946,-2.2022,-2.1998,-2.1942,-2.2001,-2.1845,-0.8038,-0.8038,-0.8038,-0.8038,-0.8038,-0.8038,-0.8038,-0.8038,-0.8038,-0.8237,-0.8531,-0.9034,-0.9529,-1.0216,-1.1194,-1.198,-1.2559,-1.3055,-1.3539,-1.4022,-1.44,-1.4496,-1.4777,-1.5077,-1.5356,-1.5343,-1.5439,-1.5629,-1.5818,-1.5913,-1.5913,-1.5792,-1.5846,-1.5913,-1.5752,-1.553,-1.578,-1.5824,-1.5418,-1.5022,-1.4739,-1.4197,-1.3859,-1.3842,-1.3943,-1.4282,-1.4622,-1.4903,-1.536,-1.564,-1.5433,-1.5273,-1.5494,-1.5467,-1.5388,-1.5479,-1.5551,-1.5799,-1.6016,-1.6354,-1.6591,-1.7013,-1.7527,-1.7976,-1.8334,-1.8715,-1.9147,-1.9446,-1.9534,-1.951,-1.9565,-1.9436,-1.9488,-1.9514,-1.9479,-1.9478,-1.941,-1.9725,-2.0009,-2.0093,-2.0165,-2.042,-2.1158,-2.1343,-2.1405,-2.1587,-2.1642,-2.1642,-2.159,-2.1518,-2.1631,-2.1756,-2.1569,-2.1373,-2.1507,-2.1507,-2.1507,-2.1528,-2.1673,-2.1621,-2.1414,-2.1311,-2.1323,-2.1343,-2.1373,-2.1572,-2.1657,-2.178,-2.1921,-2.2128,-2.2346,-2.2449,-2.249,-2.2418,-2.2377,-0.8038,-0.8038,-0.8038,-0.8038,-0.8038,-0.8038,-0.8038,-0.8038,-0.8038,-0.8134,-0.8432,-0.8832,-0.9327,-0.9826,-1.0703,-1.1292,-1.1975,-1.2662,-1.3249,-1.3732,-1.4022,-1.4208,-1.4592,-1.4975,-1.535,-1.5432,-1.5818,-1.619,-1.6473,-1.6662,-1.6669,-1.6581,-1.6784,-1.6567,-1.648,-1.632,-1.642,-1.6411,-1.6254,-1.5878,-1.5778,-1.5266,-1.4884,-1.472,-1.4885,-1.5161,-1.5368,-1.5691,-1.603,-1.6187,-1.6047,-1.5927,-1.585,-1.5769,-1.569,-1.569,-1.5856,-1.599,-1.6172,-1.6397,-1.6613,-1.6782,-1.7351,-1.7672,-1.8012,-1.8398,-1.8777,-1.9134,-1.9261,-1.9217,-1.9314,-1.9462,-1.9356,-1.9339,-1.9234,-1.9255,-1.9236,-1.951,-1.9805,-2.0079,-2.0333,-2.0889,-2.1402,-2.1539,-2.1761,-2.2051,-2.1818,-2.1828,-2.2128,-2.2097,-2.2294,-2.2356,-2.2211,-2.218,-2.2387,-2.2449,-2.2449,-2.248,-2.2542,-2.2356,-2.2087,-2.2035,-2.1994,-2.1911,-2.1756,-2.1694,-2.1745,-2.1942,-2.218,-2.2366,-2.2604,-2.2884,-2.3008,-2.2894,-2.2863,-0.8038,-0.8038,-0.8038,-0.8038,-0.8038,-0.8038,-0.8038,-0.8038,-0.8038,-0.8137,-0.8333,-0.8627,-0.9027,-0.9426,-1.0019,-1.0609,-1.1394,-1.2273,-1.2958,-1.3443,-1.3829,-1.4214,-1.4694,-1.5159,-1.5629,-1.5717,-1.6292,-1.6857,-1.7232,-1.7326,-1.7434,-1.7261,-1.7167,-1.716,-1.6958,-1.677,-1.6842,-1.6951,-1.6741,-1.6727,-1.6626,-1.6237,-1.581,-1.5646,-1.5756,-1.5946,-1.6125,-1.636,-1.6658,-1.6783,-1.6916,-1.6841,-1.6458,-1.6063,-1.584,-1.5872,-1.6158,-1.6325,-1.6541,-1.6659,-1.6841,-1.6881,-1.7311,-1.7613,-1.7835,-1.8148,-1.8529,-1.8863,-1.9027,-1.9118,-1.9438,-1.9405,-1.9422,-1.9438,-1.9338,-1.9307,-1.9401,-1.9495,-1.9936,-2.0355,-2.0643,-2.1173,-2.1816,-2.2201,-2.2359,-2.2463,-2.2144,-2.2108,-2.2418,-2.2635,-2.278,-2.2832,-2.2677,-2.2615,-2.2801,-2.3101,-2.3143,-2.3122,-2.3225,-2.3029,-2.2739,-2.2635,-2.2511,-2.218,-2.2025,-2.2056,-2.218,-2.2439,-2.2615,-2.2697,-2.2967,-2.335,-2.3412,-2.3339,-2.337,-0.8038,-0.8038,-0.8038,-0.8038,-0.8038,-0.8038,-0.8038,-0.8038,-0.8038,-0.8038,-0.8137,-0.8333,-0.8531,-0.8829,-0.9426,-1.0216,-1.1096,-1.198,-1.2662,-1.3147,-1.3636,-1.4124,-1.479,-1.5445,-1.6015,-1.6669,-1.7138,-1.752,-1.8001,-1.8288,-1.8102,-1.8195,-1.8001,-1.7807,-1.7621,-1.7426,-1.7426,-1.752,-1.7326,-1.7246,-1.7318,-1.7066,-1.6629,-1.645,-1.6595,-1.6667,-1.6743,-1.7117,-1.7327,-1.7375,-1.7526,-1.7526,-1.7334,-1.6849,-1.6595,-1.6579,-1.6553,-1.6711,-1.7016,-1.7219,-1.7435,-1.7618,-1.773,-1.7914,-1.8097,-1.8257,-1.8538,-1.8755,-1.8883,-1.8848,-1.8912,-1.9028,-1.902,-1.9012,-1.9188,-1.9338,-1.9612,-2.0018,-2.0465,-2.0796,-2.1147,-2.1518,-2.2231,-2.2705,-2.2808,-2.2938,-2.2801,-2.2739,-2.2967,-2.308,-2.3143,-2.3153,-2.3101,-2.308,-2.3122,-2.3494,-2.3691,-2.3505,-2.3526,-2.3505,-2.3268,-2.3184,-2.2977,-2.2729,-2.2666,-2.276,-2.2884,-2.2967,-2.3153,-2.3298,-2.3577,-2.3867,-2.3877,-2.3877,-2.3939,-0.8038,-0.8038,-0.8038,-0.8038,-0.8038,-0.8038,-0.8038,-0.8038,-0.8038,-0.8038,-0.8038,-0.8237,-0.8432,-0.8531,-0.8924,-0.9616,-1.0507,-1.1394,-1.2073,-1.2759,-1.3346,-1.4124,-1.4885,-1.5547,-1.6298,-1.7044,-1.7512,-1.7986,-1.8558,-1.8651,-1.8574,-1.8481,-1.8381,-1.828,-1.8087,-1.7893,-1.7893,-1.7986,-1.7893,-1.78,-1.79,-1.7628,-1.7424,-1.7442,-1.7375,-1.7484,-1.7576,-1.7802,-1.7889,-1.7838,-1.7953,-1.7946,-1.7739,-1.7525,-1.727,-1.727,-1.7154,-1.7217,-1.7501,-1.7642,-1.7808,-1.7747,-1.7922,-1.8097,-1.8295,-1.8446,-1.8629,-1.8756,-1.8827,-1.8827,-1.8827,-1.8827,-1.8827,-1.8827,-1.9104,-1.9463,-1.992,-2.0456,-2.1006,-2.1386,-2.1959,-2.2398,-2.2973,-2.3304,-2.336,-2.3371,-2.3329,-2.3401,-2.3525,-2.3546,-2.3567,-2.3691,-2.3691,-2.3619,-2.3629,-2.3846,-2.4095,-2.3938,-2.3793,-2.3856,-2.3825,-2.3722,-2.3567,-2.3391,-2.3401,-2.337,-2.3298,-2.3287,-2.3588,-2.3867,-2.4043,-2.4209,-2.4353,-2.4436,-2.4405,-0.8038,-0.8038,-0.8038,-0.8038,-0.8038,-0.8038,-0.8038,-0.8038,-0.8038,-0.8038,-0.8038,-0.8237,-0.8336,-0.8432,-0.873,-0.9126,-0.9723,-1.0806,-1.1683,-1.2565,-1.3249,-1.4022,-1.4885,-1.5547,-1.6109,-1.6857,-1.7512,-1.8272,-1.8643,-1.8735,-1.8743,-1.8566,-1.8574,-1.8473,-1.8272,-1.8087,-1.8179,-1.8179,-1.8179,-1.8187,-1.8187,-1.8187,-1.8187,-1.8187,-1.8179,-1.8164,-1.8187,-1.8372,-1.837,-1.8214,-1.821,-1.8213,-1.796,-1.7897,-1.7889,-1.7873,-1.7659,-1.7707,-1.7874,-1.8097,-1.8241,-1.8105,-1.8271,-1.8375,-1.8454,-1.8645,-1.8804,-1.8827,-1.8827,-1.8827,-1.8827,-1.8827,-1.8827,-1.892,-1.9196,-1.9563,-2.0201,-2.0916,-2.1713,-2.223,-2.2794,-2.324,-2.3609,-2.3825,-2.3865,-2.3907,-2.3867,-2.3867,-2.3981,-2.4002,-2.4074,-2.4291,-2.4333,-2.4209,-2.4188,-2.4209,-2.4353,-2.4248,-2.4206,-2.4176,-2.4176,-2.4229,-2.4064,-2.3898,-2.3836,-2.3774,-2.3681,-2.3681,-2.3971,-2.4219,-2.4395,-2.4488,-2.4498,-2.4509,-2.4488,-0.8038,-0.8038,-0.7939,-0.8038,-0.7939,-0.7939,-0.7939,-0.7939,-0.7939,-0.8038,-0.8038,-0.8041,-0.8038,-0.8137,-0.8627,-0.9221,-1.0015,-1.0801,-1.1683,-1.2662,-1.3249,-1.3925,-1.4688,-1.5255,-1.5724,-1.648,-1.7044,-1.7893,-1.8458,-1.8643,-1.8827,-1.8743,-1.8566,-1.8566,-1.855,-1.8365,-1.8373,-1.855,-1.8558,-1.8473,-1.8473,-1.8473,-1.8473,-1.8473,-1.8481,-1.8473,-1.855,-1.8651,-1.8588,-1.858,-1.848,-1.8488,-1.8364,-1.8157,-1.8257,-1.8268,-1.8247,-1.8113,-1.8281,-1.8458,-1.8652,-1.8518,-1.8684,-1.8756,-1.874,-1.8748,-1.8827,-1.8827,-1.8827,-1.8827,-1.8827,-1.8827,-1.8827,-1.8928,-1.9204,-1.9837,-2.0464,-2.1105,-2.19,-2.2696,-2.3144,-2.358,-2.4029,-2.4221,-2.4382,-2.4361,-2.4426,-2.4385,-2.4353,-2.4333,-2.4333,-2.4478,-2.455,-2.4436,-2.4405,-2.4478,-2.4509,-2.455,-2.4529,-2.4498,-2.4457,-2.4426,-2.4467,-2.4322,-2.424,-2.4188,-2.4157,-2.4219,-2.4405,-2.4467,-2.4498,-2.4519,-2.454,-2.454,-2.4615,-0.7341,-0.7341,-0.7344,-0.7341,-0.7344,-0.7341,-0.7543,-0.7743,-0.7746,-0.7842,-0.7939,-0.8038,-0.8038,-0.8137,-0.8531,-0.9027,-0.9723,-1.0703,-1.1683,-1.2565,-1.3249,-1.3925,-1.4592,-1.507,-1.554,-1.6015,-1.6581,-1.7239,-1.79,-1.8465,-1.8651,-1.8735,-1.8743,-1.8643,-1.8827,-1.8635,-1.8643,-1.8735,-1.8735,-1.8658,-1.8658,-1.8651,-1.8558,-1.8473,-1.8481,-1.8473,-1.8365,-1.8365,-1.8272,-1.8179,-1.8102,-1.8001,-1.7807,-1.7699,-1.7699,-1.777,-1.7858,-1.8032,-1.849,-1.8704,-1.8792,-1.8772,-1.8827,-1.8812,-1.8827,-1.8827,-1.8827,-1.8827,-1.8827,-1.8827,-1.8827,-1.8827,-1.8827,-1.8928,-1.9304,-1.9928,-2.0555,-2.1284,-2.1998,-2.2794,-2.3493,-2.3851,-2.4196,-2.4368,-2.4433,-2.4423,-2.4402,-2.4478,-2.4467,-2.4467,-2.4478,-2.4519,-2.455,-2.4519,-2.4509,-2.4529,-2.4519,-2.455,-2.455,-2.4529,-2.454,-2.454,-2.455,-2.455,-2.4436,-2.4447,-2.455,-2.4529,-2.4498,-2.4519,-2.454,-2.455,-2.455,-2.47,-2.4861,-0.6442,-0.6342,-0.6539,-0.6742,-0.6642,-0.6642,-0.6942,-0.7347,-0.7347,-0.7543,-0.7842,-0.7942,-0.8038,-0.8237,-0.863,-0.9027,-0.9529,-1.0609,-1.1688,-1.2467,-1.3244,-1.3919,-1.4496,-1.4879,-1.5166,-1.5547,-1.6116,-1.6676,-1.7239,-1.7815,-1.8381,-1.8743,-1.8743,-1.8735,-1.8827,-1.8735,-1.8827,-1.8827,-1.8827,-1.8735,-1.8643,-1.8759,-1.8574,-1.8388,-1.8202,-1.8094,-1.79,-1.78,-1.7707,-1.7613,-1.734,-1.7145,-1.7044,-1.6951,-1.6951,-1.7044,-1.7245,-1.7717,-1.8211,-1.8511,-1.8735,-1.8827,-1.8827,-1.8827,-1.8827,-1.8827,-1.8827,-1.8827,-1.8827,-1.8827,-1.8827,-1.8827,-1.8827,-1.9012,-1.9296,-1.9928,-2.0555,-2.1284,-2.1998,-2.2882,-2.3493,-2.3841,-2.411,-2.4378,-2.4464,-2.4464,-2.455,-2.455,-2.455,-2.455,-2.455,-2.455,-2.455,-2.455,-2.455,-2.455,-2.455,-2.455,-2.455,-2.455,-2.455,-2.455,-2.455,-2.455,-2.455,-2.455,-2.455,-2.455,-2.455,-2.455,-2.455,-2.455,-2.454,-2.4871,-2.5274,-0.5639,-0.5035,-0.5937,-0.6337,-0.6337,-0.6437,-0.6539,-0.6842,-0.6842,-0.7144,-0.7646,-0.7846,-0.8038,-0.8333,-0.863,-0.9225,-0.992,-1.0801,-1.1785,-1.2565,-1.3244,-1.3823,-1.4304,-1.4592,-1.4783,-1.4975,-1.5547,-1.6116,-1.6676,-1.7434,-1.8001,-1.8473,-1.8651,-1.8735,-1.8827,-1.8827,-1.8827,-1.8827,-1.8735,-1.855,-1.8473,-1.8489,-1.8326,-1.7815,-1.7527,-1.7333,-1.7333,-1.7138,-1.7044,-1.6951,-1.6567,-1.6386,-1.6292,-1.6103,-1.6103,-1.6292,-1.6763,-1.7232,-1.7699,-1.8272,-1.8566,-1.8743,-1.8827,-1.8827,-1.8827,-1.8827,-1.8827,-1.8827,-1.8827,-1.8827,-1.8827,-1.8827,-1.8827,-1.892,-1.9296,-1.9837,-2.0564,-2.1284,-2.2087,-2.2882,-2.3406,-2.3754,-2.4024,-2.4206,-2.4464,-2.4454,-2.455,-2.455,-2.455,-2.455,-2.455,-2.455,-2.455,-2.455,-2.455,-2.455,-2.455,-2.455,-2.455,-2.455,-2.455,-2.455,-2.455,-2.455,-2.455,-2.455,-2.455,-2.455,-2.455,-2.455,-2.455,-2.454,-2.4796,-2.5126,-2.5611,-0.5037,-0.4332,-0.4632,-0.4832,-0.514,-0.5338,-0.5636,-0.6039,-0.6439,-0.6942,-0.7547,-0.7746,-0.7942,-0.8237,-0.8627,-0.9126,-0.9821,-1.0801,-1.1785,-1.2667,-1.3346,-1.3823,-1.4202,-1.4394,-1.449,-1.4592,-1.507,-1.5642,-1.6109,-1.7052,-1.7714,-1.8179,-1.8674,-1.8735,-1.8827,-1.8883,-1.8783,-1.8775,-1.8674,-1.8373,-1.8064,-1.7807,-1.7643,-1.7059,-1.6763,-1.6574,-1.6393,-1.6298,-1.6197,-1.6001,-1.5812,-1.5629,-1.554,-1.5452,-1.5452,-1.5635,-1.6204,-1.6763,-1.7326,-1.7994,-1.8566,-1.8743,-1.8827,-1.8827,-1.8827,-1.8827,-1.8827,-1.8827,-1.8827,-1.8827,-1.8827,-1.8827,-1.8827,-1.8928,-1.9296,-1.9845,-2.0564,-2.1284,-2.1909,-2.2794,-2.3232,-2.359,-2.3851,-2.4024,-2.4282,-2.4454,-2.4454,-2.455,-2.455,-2.455,-2.455,-2.455,-2.455,-2.455,-2.455,-2.455,-2.455,-2.455,-2.455,-2.455,-2.455,-2.455,-2.455,-2.455,-2.455,-2.455,-2.455,-2.455,-2.455,-2.455,-2.454,-2.4625,-2.4956,-2.538,-2.5874,-0.4636,-0.3831,-0.3528,-0.363,-0.4034,-0.4332,-0.4734,-0.5238,-0.5737,-0.6537,-0.7347,-0.7547,-0.7842,-0.8137,-0.863,-0.9221,-0.9916,-1.0801,-1.1785,-1.2667,-1.3346,-1.3823,-1.4106,-1.4298,-1.4394,-1.4394,-1.4879,-1.5363,-1.592,-1.6857,-1.7601,-1.8232,-1.8715,-1.8917,-1.9034,-1.9004,-1.8942,-1.8761,-1.8479,-1.7983,-1.7494,-1.7347,-1.6992,-1.6491,-1.6142,-1.5883,-1.5761,-1.5625,-1.5452,-1.5248,-1.5153,-1.4968,-1.4879,-1.4885,-1.4892,-1.5267,-1.573,-1.6473,-1.7138,-1.79,-1.8658,-1.8827,-1.8827,-1.8827,-1.8827,-1.8827,-1.8827,-1.8827,-1.8827,-1.8827,-1.8827,-1.8827,-1.892,-1.9012,-1.9479,-2.0027,-2.0654,-2.1374,-2.1998,-2.2618,-2.3057,-2.3503,-2.3764,-2.3937,-2.4196,-2.4454,-2.4454,-2.455,-2.455,-2.455,-2.455,-2.455,-2.455,-2.455,-2.455,-2.455,-2.455,-2.455,-2.455,-2.455,-2.455,-2.455,-2.455,-2.455,-2.455,-2.455,-2.455,-2.455,-2.455,-2.455,-2.454,-2.4625,-2.5031,-2.5369,-2.5968,-0.4332,-0.3528,-0.3026,-0.3027,-0.3229,-0.3528,-0.3932,-0.4438,-0.4836,-0.5636,-0.6842,-0.7344,-0.7839,-0.8233,-0.8627,-0.9225,-0.992,-1.0806,-1.1785,-1.2662,-1.3244,-1.3817,-1.4106,-1.4298,-1.4298,-1.4394,-1.4879,-1.5363,-1.5825,-1.6935,-1.7727,-1.8514,-1.8987,-1.9304,-1.9399,-1.9388,-1.9228,-1.8829,-1.8385,-1.7633,-1.6895,-1.683,-1.6553,-1.6196,-1.5665,-1.5477,-1.5445,-1.513,-1.4971,-1.4952,-1.4734,-1.4637,-1.4631,-1.4479,-1.4647,-1.4929,-1.5737,-1.6473,-1.7037,-1.8164,-1.8643,-1.8827,-1.8827,-1.892,-1.8827,-1.8827,-1.892,-1.9012,-1.892,-1.892,-1.8827,-1.8827,-1.9012,-1.9288,-1.9662,-2.0201,-2.0826,-2.1553,-2.2176,-2.2618,-2.3067,-2.3513,-2.3677,-2.3851,-2.4196,-2.4368,-2.4464,-2.455,-2.4464,-2.455,-2.455,-2.455,-2.455,-2.455,-2.455,-2.455,-2.455,-2.455,-2.455,-2.455,-2.455,-2.455,-2.455,-2.455,-2.455,-2.455,-2.455,-2.455,-2.455,-2.455,-2.455,-2.4625,-2.5031,-2.5454,-2.5884,-0.4435,-0.333,-0.2927,-0.2523,-0.2222,-0.2825,-0.333,-0.3734,-0.4433,-0.5436,-0.6439,-0.6942,-0.7344,-0.7939,-0.8531,-0.9126,-0.9624,-1.0806,-1.1785,-1.2565,-1.3147,-1.3823,-1.4106,-1.4298,-1.4298,-1.449,-1.4885,-1.5363,-1.5825,-1.702,-1.7853,-1.8628,-1.9221,-1.9411,-1.94,-1.9259,-1.8875,-1.8262,-1.786,-1.7158,-1.6334,-1.6192,-1.6137,-1.5733,-1.5425,-1.5269,-1.5263,-1.5022,-1.4973,-1.4967,-1.4763,-1.4775,-1.4745,-1.4684,-1.4765,-1.519,-1.5979,-1.6763,-1.7613,-1.8558,-1.8735,-1.8827,-1.892,-1.9004,-1.9096,-1.9204,-1.9387,-1.9479,-1.9387,-1.9387,-1.9471,-1.9387,-1.9479,-1.9571,-1.9936,-2.0464,-2.1096,-2.1811,-2.2441,-2.2706,-2.3067,-2.3329,-2.3503,-2.3677,-2.3937,-2.4196,-2.4282,-2.4454,-2.4454,-2.4464,-2.455,-2.455,-2.455,-2.455,-2.455,-2.455,-2.455,-2.455,-2.455,-2.455,-2.455,-2.455,-2.455,-2.455,-2.455,-2.455,-2.455,-2.455,-2.455,-2.455,-2.455,-2.4625,-2.4956,-2.5285,-2.5633,-0.4437,-0.333,-0.2927,-0.2423,-0.192,-0.2323,-0.2826,-0.343,-0.4435,-0.5438,-0.6239,-0.6742,-0.7144,-0.7743,-0.8432,-0.8931,-0.9331,-1.0605,-1.159,-1.237,-1.3147,-1.3727,-1.4112,-1.4298,-1.4298,-1.4496,-1.4885,-1.5363,-1.5838,-1.7095,-1.8052,-1.8777,-1.9275,-1.9186,-1.9112,-1.8773,-1.8585,-1.7985,-1.7497,-1.6843,-1.6202,-1.5894,-1.5816,-1.5682,-1.5415,-1.5246,-1.5215,-1.5179,-1.5119,-1.5125,-1.5125,-1.5125,-1.5059,-1.5068,-1.5196,-1.5647,-1.6395,-1.7268,-1.8272,-1.8651,-1.8827,-1.8827,-1.9096,-1.9188,-1.9371,-1.9654,-1.9928,-2.0019,-2.0027,-2.0019,-2.0102,-1.9928,-1.9845,-1.9936,-2.0382,-2.0817,-2.1454,-2.2176,-2.2618,-2.2882,-2.2969,-2.3242,-2.3329,-2.3503,-2.3677,-2.3851,-2.411,-2.4282,-2.4454,-2.4454,-2.455,-2.455,-2.455,-2.455,-2.455,-2.455,-2.455,-2.455,-2.455,-2.455,-2.455,-2.455,-2.455,-2.455,-2.455,-2.455,-2.455,-2.455,-2.455,-2.455,-2.455,-2.4625,-2.4871,-2.52,-2.5625,-0.4533,-0.3629,-0.3026,-0.2523,-0.2123,-0.2122,-0.2725,-0.3629,-0.4636,-0.5441,-0.6042,-0.6839,-0.7241,-0.7743,-0.8432,-0.8928,-0.943,-1.0605,-1.1487,-1.237,-1.3147,-1.3727,-1.4112,-1.4298,-1.4298,-1.4496,-1.4892,-1.5402,-1.5885,-1.7175,-1.8291,-1.8881,-1.9023,-1.8794,-1.8386,-1.8164,-1.7963,-1.7624,-1.7095,-1.6441,-1.6002,-1.587,-1.5852,-1.5798,-1.5614,-1.5529,-1.5457,-1.5366,-1.5258,-1.5215,-1.5191,-1.5179,-1.5251,-1.5417,-1.5632,-1.6195,-1.7187,-1.8014,-1.8629,-1.8915,-1.8827,-1.8827,-1.9104,-1.9279,-1.9646,-2.0019,-2.0382,-2.0555,-2.0645,-2.0645,-2.0637,-2.0464,-2.0192,-2.0555,-2.0916,-2.1365,-2.1909,-2.2441,-2.2784,-2.296,-2.3057,-2.3144,-2.3232,-2.3319,-2.3503,-2.3677,-2.3937,-2.4196,-2.4368,-2.4454,-2.4454,-2.455,-2.455,-2.455,-2.455,-2.4571,-2.455,-2.455,-2.455,-2.455,-2.455,-2.455,-2.455,-2.455,-2.455,-2.455,-2.455,-2.455,-2.455,-2.455,-2.4464,-2.454,-2.47,-2.5238,-2.5677,-0.4535,-0.3527,-0.3026,-0.2623,-0.2322,-0.2726,-0.3128,-0.3729,-0.4336,-0.514,-0.6042,-0.6642,-0.7241,-0.7646,-0.8432,-0.8829,-0.9521,-1.0408,-1.1389,-1.2273,-1.305,-1.3721,-1.4106,-1.4298,-1.4298,-1.4496,-1.4904,-1.5473,-1.6323,-1.7577,-1.834,-1.8882,-1.8582,-1.7996,-1.7477,-1.7054,-1.706,-1.706,-1.6636,-1.6311,-1.5986,-1.5885,-1.5885,-1.5843,-1.5807,-1.5734,-1.5692,-1.5662,-1.5608,-1.5626,-1.5644,-1.5656,-1.5662,-1.5799,-1.6081,-1.7274,-1.8082,-1.8824,-1.9083,-1.8978,-1.8867,-1.8991,-1.9244,-1.9571,-1.9928,-2.0425,-2.0987,-2.1176,-2.1347,-2.14,-2.1309,-2.1119,-2.0937,-2.1119,-2.1482,-2.1942,-2.2499,-2.2847,-2.3183,-2.3164,-2.3252,-2.3203,-2.3193,-2.3319,-2.3503,-2.3677,-2.3881,-2.4084,-2.4364,-2.4471,-2.4567,-2.4674,-2.4778,-2.484,-2.4664,-2.4633,-2.4581,-2.455,-2.456,-2.456,-2.455,-2.455,-2.455,-2.455,-2.455,-2.455,-2.455,-2.455,-2.455,-2.4464,-2.4475,-2.454,-2.4708,-2.5288,-2.5721,-0.4535,-0.3729,-0.3128,-0.2826,-0.2825,-0.3128,-0.3629,-0.4131,-0.4535,-0.524,-0.6044,-0.6642,-0.7244,-0.7839,-0.8432,-0.8928,-0.9324,-1.0507,-1.159,-1.237,-1.3147,-1.3721,-1.4106,-1.4298,-1.4298,-1.4496,-1.4923,-1.5499,-1.6562,-1.7753,-1.8635,-1.838,-1.7911,-1.7272,-1.6743,-1.6424,-1.6311,-1.6318,-1.6211,-1.6105,-1.5998,-1.5885,-1.5885,-1.5885,-1.5885,-1.5885,-1.5885,-1.5885,-1.5885,-1.5885,-1.5885,-1.5885,-1.6043,-1.6254,-1.7114,-1.8224,-1.8777,-1.9302,-1.9511,-1.9248,-1.9177,-1.9255,-1.9487,-1.9901,-2.0466,-2.0971,-2.1534,-2.1943,-2.2071,-2.2172,-2.2044,-2.1843,-2.176,-2.1677,-2.2144,-2.26,-2.2962,-2.3323,-2.3405,-2.3359,-2.3369,-2.3399,-2.3427,-2.3466,-2.361,-2.3824,-2.4129,-2.4476,-2.4661,-2.4748,-2.4846,-2.4943,-2.5088,-2.5213,-2.5016,-2.4871,-2.4871,-2.4799,-2.4602,-2.4592,-2.4571,-2.455,-2.455,-2.455,-2.455,-2.455,-2.455,-2.455,-2.455,-2.4506,-2.465,-2.4881,-2.5026,-2.5384,-2.5774,-0.4433,-0.3833,-0.3432,-0.313,-0.3229,-0.353,-0.413,-0.4834,-0.514,-0.5641,-0.6242,-0.6942,-0.754,-0.8137,-0.873,-0.9225,-0.9817,-1.0801,-1.1785,-1.2467,-1.3249,-1.3829,-1.4202,-1.4298,-1.4394,-1.4496,-1.4929,-1.5641,-1.6616,-1.7636,-1.8226,-1.7911,-1.7391,-1.6749,-1.6324,-1.6105,-1.5992,-1.5992,-1.5998,-1.5885,-1.5885,-1.5885,-1.5885,-1.5885,-1.5885,-1.5885,-1.5885,-1.5885,-1.5885,-1.5885,-1.5885,-1.5885,-1.6436,-1.7055,-1.8147,-1.8918,-1.9498,-1.9662,-1.982,-1.959,-1.959,-1.9686,-1.9782,-2.0123,-2.0659,-2.1299,-2.1832,-2.2318,-2.2371,-2.2444,-2.2342,-2.2137,-2.2044,-2.2044,-2.2324,-2.2704,-2.3074,-2.3423,-2.3712,-2.3787,-2.3809,-2.374,-2.392,-2.3989,-2.4295,-2.4223,-2.4537,-2.4968,-2.5149,-2.5238,-2.5248,-2.5337,-2.5409,-2.5544,-2.5533,-2.5399,-2.5306,-2.515,-2.4892,-2.4747,-2.4799,-2.4695,-2.455,-2.455,-2.455,-2.455,-2.455,-2.4633,-2.4747,-2.4809,-2.4985,-2.5244,-2.5471,-2.5809,-2.5996,-0.4034,-0.3432,-0.323,-0.323,-0.3331,-0.4131,-0.4734,-0.514,-0.5837,-0.6339,-0.6739,-0.7441,-0.8038,-0.8432,-0.913,-0.9624,-1.0216,-1.1194,-1.2078,-1.2764,-1.3448,-1.3925,-1.4298,-1.4394,-1.4394,-1.4682,-1.523,-1.6009,-1.7083,-1.7721,-1.7809,-1.7378,-1.6855,-1.643,-1.6105,-1.5885,-1.5885,-1.5885,-1.5885,-1.5885,-1.5885,-1.5885,-1.5885,-1.5885,-1.5885,-1.5885,-1.5885,-1.5885,-1.5885,-1.5885,-1.5885,-1.6311,-1.714,-1.8011,-1.8926,-1.969,-2.0046,-2.0213,-2.017,-1.9971,-1.9884,-1.9957,-2.0022,-2.0305,-2.0712,-2.1405,-2.1875,-2.2344,-2.2573,-2.2636,-2.2577,-2.2369,-2.2256,-2.2351,-2.2533,-2.2826,-2.3109,-2.3533,-2.4044,-2.4059,-2.4185,-2.4281,-2.4374,-2.4616,-2.4867,-2.5157,-2.5447,-2.5671,-2.5795,-2.5937,-2.5958,-2.5937,-2.5782,-2.5844,-2.5927,-2.5885,-2.5771,-2.5595,-2.5347,-2.5202,-2.5068,-2.4964,-2.485,-2.4633,-2.455,-2.4716,-2.4871,-2.4943,-2.5037,-2.5109,-2.5388,-2.572,-2.602,-2.637,-2.6474,-0.3732,-0.323,-0.333,-0.3531,-0.3833,-0.4636,-0.5238,-0.5839,-0.6437,-0.6939,-0.7341,-0.7839,-0.8336,-0.8832,-0.9525,-1.0216,-1.0806,-1.1683,-1.2467,-1.3152,-1.3642,-1.4022,-1.4208,-1.449,-1.4688,-1.4987,-1.5813,-1.678,-1.7533,-1.7612,-1.7499,-1.714,-1.6643,-1.6211,-1.5885,-1.5885,-1.5885,-1.5885,-1.5891,-1.5903,-1.5903,-1.5903,-1.5891,-1.5885,-1.5891,-1.5903,-1.5885,-1.5885,-1.5885,-1.5992,-1.6099,-1.6836,-1.7569,-1.8269,-1.922,-2.0025,-2.0429,-2.0623,-2.0519,-2.0353,-2.0178,-2.0309,-2.0229,-2.0442,-2.0899,-2.1467,-2.1722,-2.2071,-2.2486,-2.2556,-2.2458,-2.2253,-2.2253,-2.2253,-2.2637,-2.293,-2.3329,-2.3795,-2.3916,-2.3994,-2.4097,-2.4365,-2.4526,-2.4816,-2.5149,-2.5573,-2.5937,-2.6175,-2.632,-2.6455,-2.6506,-2.6506,-2.6351,-2.6413,-2.661,-2.6465,-2.6206,-2.6009,-2.5813,-2.5627,-2.5461,-2.5316,-2.5161,-2.5078,-2.5068,-2.5213,-2.5347,-2.5388,-2.544,-2.5523,-2.5865,-2.6237,-2.6609,-2.692,-2.7076,-0.3506,-0.3317,-0.3525,-0.3932,-0.4438,-0.5041,-0.5739,-0.6437,-0.7036,-0.7637,-0.8237,-0.8336,-0.8836,-0.943,-1.0117,-1.09,-1.1585,-1.2273,-1.2861,-1.3443,-1.3835,-1.4118,-1.44,-1.4688,-1.507,-1.578,-1.6656,-1.719,-1.7818,-1.7728,-1.7435,-1.7041,-1.6643,-1.6105,-1.5998,-1.5885,-1.5885,-1.5916,-1.5934,-1.5964,-1.5952,-1.594,-1.5964,-1.5958,-1.597,-1.597,-1.5958,-1.594,-1.594,-1.6099,-1.6418,-1.7259,-1.7982,-1.87,-1.9435,-2.0261,-2.068,-2.0845,-2.0813,-2.0623,-2.0662,-2.0702,-2.0551,-2.0692,-2.1135,-2.1338,-2.1502,-2.1737,-2.2156,-2.2291,-2.219,-2.2181,-2.208,-2.2198,-2.2593,-2.2894,-2.3302,-2.3809,-2.3779,-2.3832,-2.423,-2.4497,-2.4853,-2.5133,-2.5584,-2.5982,-2.6268,-2.6496,-2.6693,-2.6827,-2.691,-2.6941,-2.6889,-2.7024,-2.7148,-2.6951,-2.661,-2.6506,-2.631,-2.6082,-2.5844,-2.5647,-2.5585,-2.5699,-2.573,-2.5689,-2.5771,-2.5844,-2.5896,-2.5968,-2.6351,-2.6786,-2.6941,-2.7243,-2.7672,-0.36,-0.3458,-0.3506,-0.393,-0.4537,-0.5438,-0.6139,-0.683,-0.7537,-0.8336,-0.913,-0.9525,-0.9826,-1.0023,-1.0703,-1.1487,-1.2273,-1.2759,-1.3249,-1.3835,-1.4118,-1.44,-1.4682,-1.5166,-1.573,-1.6566,-1.743,-1.7795,-1.7875,-1.7606,-1.7298,-1.6836,-1.6318,-1.5998,-1.5992,-1.5891,-1.5903,-1.5958,-1.6097,-1.6175,-1.6223,-1.6217,-1.6084,-1.6162,-1.6306,-1.6228,-1.6047,-1.6096,-1.6072,-1.6178,-1.6743,-1.7687,-1.8401,-1.9013,-1.9753,-2.0388,-2.0822,-2.0925,-2.0853,-2.0798,-2.0869,-2.0869,-2.075,-2.0798,-2.1043,-2.1067,-2.1216,-2.1366,-2.1636,-2.1918,-2.1808,-2.1775,-2.1775,-2.1926,-2.2249,-2.235,-2.2655,-2.316,-2.3573,-2.3899,-2.4375,-2.4916,-2.5479,-2.5863,-2.632,-2.6709,-2.6941,-2.7117,-2.7013,-2.7148,-2.7282,-2.7272,-2.7272,-2.7272,-2.7241,-2.722,-2.7003,-2.692,-2.6786,-2.6496,-2.6206,-2.5916,-2.5906,-2.6154,-2.6072,-2.5947,-2.6061,-2.633,-2.6382,-2.6496,-2.6858,-2.7222,-2.7421,-2.7757,-2.8209]},{"header":{"parameterUnit":"m.s-1","parameterCategory":1,"la1":31.0,"la2":29.5877,"lo1":-88.7671,"lo2":-86.6584,"dy":0.0162,"dx":0.0185,"nx":115,"ny":88,"refTime":"2023-06-21T12:00:00:Z","depth":0,"parameterNumber":3,"parameterNumberName":"V-component_of_WINDS"},"data":[0.0,0.0,0.0,0.0,0.0,0.0,0.0,0.0,0.0,0.0,0.0,0.0,0.0,0.0,0.0,0.0,0.0,0.0,0.0,0.0,0.0,0.0,0.0,0.0,0.0,0.0,0.0,0.0,0.0,0.0,0.0,0.0,0.0,0.0,0.0,0.0,0.0,0.0,0.0,0.0,0.0,0.0,0.0,0.0,0.0,0.0,0.0,0.0,0.0,0.0,0.0,0.0,0.0,0.0,0.0,0.0,0.0,0.0,0.0,0.0,0.0,0.0,0.0,0.0,0.0,0.0,0.0,0.0,0.0,0.0,0.0,0.0,0.0,0.0,0.0,0.0,0.0,0.0,0.0,0.0,0.0,0.0,0.0,0.0,0.0,0.0,0.0,0.0,0.0,0.0,0.0,0.0,0.0,0.0,0.0,0.0,0.0,0.0,0.0,0.0,0.0,0.0,0.0,0.0,0.0,0.0,0.0,0.0,0.0,0.0,0.0,0.0,0.0,0.0,0.0,0.0,0.0,0.0,0.0,0.0,0.0,0.0,0.0,0.0,0.0,0.0,0.0,0.0,0.0,0.0,0.0,0.0,0.0,0.0,0.0,0.0,0.0,0.0,0.0,0.0,0.0,0.0,0.0,0.0,0.0,0.0,0.0,0.0,0.0,0.0,0.0,0.0,0.0,0.0,0.0,0.0,0.0,0.0,0.0,0.0,0.0,0.0,0.0,0.0,0.0,0.0,0.0,0.0,0.0,0.0,0.0,0.0,0.0,0.0,0.0,0.0,0.0,0.0,0.0,0.0,0.0,0.0,0.0,0.0,0.0,0.0,0.0,0.0,0.0,0.0,0.0,0.0,0.0,0.0,0.0,0.0,0.0,0.0,0.0,0.0,0.0,0.0,0.0,0.0,0.0,0.0,0.0,0.0,0.0,0.0,0.0,0.0,0.0,0.0,0.0,0.0,0.0,0.0,0.0,0.0,0.0,0.0,0.0,0.0,0.0,0.0,0.0,0.0,0.0,0.0,0.0,0.0,0.0,0.0,0.0,0.0,0.0,0.0,0.0,0.0,0.0,0.0,0.0,0.0,0.0,0.0,0.0,0.0,0.0,0.0,0.0,0.0,0.0,0.0,0.0,0.0,0.0,0.0,0.0,0.0,0.0,0.0,0.0,0.0,0.0,0.0,0.0,0.0,0.0,0.0,0.0,0.0,0.0,0.0,0.0,0.0,0.0,0.0,0.0,0.0,0.0,0.0,0.0,0.0,0.0,0.0,0.0,0.0,0.0,0.0,0.0,0.0,0.0,0.0,0.0,0.0,0.0,0.0,0.0,0.0,0.0,0.0,0.0,0.0,0.0,0.0,0.0,0.0,0.0,0.0,0.0,0.0,0.0,0.0,0.0,0.0,0.0,0.0,0.0,0.0,0.0,0.0,0.0,0.0,0.0,0.0,0.0,0.0,0.0,0.0,0.0,0.0,0.0,0.0,0.0,0.0,0.0,0.0,0.0,0.0,0.0,0.0,0.0,0.0,0.0,0.0,0.0,0.0,0.0,0.0,0.0,0.0,0.0,0.0,0.0,0.0,0.0,0.0,0.0,0.0,0.0,0.0,0.0,0.0,0.0,0.0,0.0,0.0,0.0,0.0,0.0,0.0,0.0,0.0,0.0,0.0,0.0,0.0,0.0,0.0,0.0,0.0,0.0,0.0,0.0,0.0,0.0,0.0,0.0,0.0,0.0,0.0,0.0,0.0,0.0,0.0,0.0,0.0,0.0,0.0,0.0,0.0,0.0,0.0,0.0,0.0,0.0,0.0,0.0,0.0,0.0,0.0,0.0,0.0,0.0,0.0,0.0,0.0,0.0,0.0,0.0,0.0,0.0,0.0,0.0,0.0,0.0,0.0,0.0,0.0,0.0,0.0,0.0,0.0,0.0,0.0,0.0,0.0,0.0,0.0,0.0,0.0,0.0,0.0,0.0,0.0,0.0,0.0,0.0,0.0,0.0,0.0,0.0,0.0,0.0,0.0,0.0,0.0,0.0,0.0,0.0,0.0,0.0,0.0,0.0,0.0,0.0,0.0,0.0,0.0,0.0,0.0,0.0,0.0,0.0,0.0,0.0,0.0,0.0,0.0,0.0,0.0,0.0,0.0,0.0,0.0,0.0,0.0,0.0,0.0,0.0,0.0,0.0,0.0,0.0,0.0,0.0,0.0,0.0,0.0,0.0,0.0,0.0,0.0,0.0,0.0,0.0,0.0,0.0,0.0,0.0,0.0,0.0,0.0,0.0,0.0,0.0,0.0,0.0,0.0,0.0,0.0,0.0,0.0,0.0,0.0,0.0,0.0,0.0,0.0,0.0,0.0,0.0,0.0,0.0,0.0,0.0,0.0,0.0,0.0,0.0,0.0,0.0,0.0,0.0,0.0,0.0,0.0,0.0,0.0,0.0,0.0,0.0,0.0,0.0,0.0,0.0,0.0,0.0,0.0,0.0,0.0,0.0,0.0,0.0,0.0,0.0,0.0,0.0,0.0,0.0,0.0,0.0,0.0,0.0,0.0,0.0,0.0,0.0,0.0,0.0,0.0,0.0,0.0,0.0,0.0,0.0,0.0,0.0,0.0,0.0,0.0,0.0,0.0,0.0,0.0,0.0,0.0,0.0,0.0,0.0,0.0,0.0,0.0,0.0,0.0,0.0,0.0,0.0,0.0,0.0,0.0,0.0,0.0,0.0,0.0,0.0,0.0,0.0,0.0,0.0,0.0,0.0,0.0,0.0,0.0,0.0,0.0,0.0,0.0,0.0,0.0,0.0,0.0,0.0,0.0,0.0,0.0,0.0,0.0,0.0,0.0,0.0,0.0,0.0,0.0,0.0,0.0,0.0,0.0,0.0,0.0,0.0,0.0,0.0,0.0,0.0,0.0,0.0,0.0,0.0,0.0,0.0,0.0,0.0,0.0,0.0,0.0,0.0,0.0,0.0,0.0,0.0,0.0,0.0,0.0,0.0,0.0,0.0,0.0,0.0,0.0,0.0,0.0,0.0,0.0,0.0,0.0,0.0,0.0,0.0,0.0,0.0,0.0,0.0,0.0,0.0,0.0,0.0,0.0,0.0,0.0,0.0,0.0,0.0,0.0,0.0,0.0,0.0,0.0,0.0,0.0,0.0,0.0,0.0,0.0,0.0,0.0,0.0,0.0,0.0,0.0,0.0,0.0,0.0,0.0,0.0,0.0,0.0,0.0,0.0,0.0,0.0,0.0,0.0,0.0,0.0,0.0,0.0,0.0,0.0,0.0,0.0,0.0,0.0,0.0,0.0,0.0,0.0,0.0,0.0,0.0,0.0,0.0,0.0,0.0,0.0,0.0,0.0,0.0,0.0,0.0,0.0,0.0,0.0,0.0,0.0,0.0,0.0,0.0,0.0,0.0,0.0,0.0,0.0,0.0,0.0,0.0,0.0,0.0,0.0,0.0,0.0,0.0,0.0,0.0,0.0,0.0,0.0,0.0,0.0,0.0,0.0,0.0,0.0,0.0,0.0,0.0,0.0,0.0,0.0,0.0,0.0,0.0,0.0,0.0,0.0,0.0,0.0,0.0,0.0,0.0,0.0,0.0,0.0,0.0,0.0,0.0,0.0,0.0,0.0,0.0,0.0,0.0,0.0,0.0,0.0,0.0,0.0,0.0,0.0,0.0,0.0,0.0,0.0,0.0,0.0,0.0,0.0,0.0,0.0,0.0,0.0,0.0,0.0,0.0,0.0,0.0,0.0,0.0,0.0,0.0,0.0,0.0,0.0,0.0,0.0,0.0,0.0,0.0,0.0,0.0,0.0,0.0,0.0,0.0,0.0,0.0,0.0,0.0,0.0,0.0,0.0,0.0,0.0,0.0,0.0,0.0,0.0,0.0,0.0,0.0,0.0,0.0,0.0,0.0,0.0,0.0,0.0,0.0,0.0,0.0,0.0,0.0,0.0,0.0,0.0,0.0,0.0,0.0,0.0,0.0,0.0,0.0,0.0,0.0,0.0,0.0,0.0,0.0,0.0,0.0,0.0,0.0,0.0,0.0,0.0,0.0,0.0,0.0,0.0,0.0,0.0,0.0,0.0,0.0,0.0,0.0,0.0,0.0,0.0,0.0,0.0,0.0,0.0,0.0,0.0,0.0,0.0,0.0,0.0,0.0,0.0,0.0,0.0,0.0,0.0,0.0,0.0,0.0,0.0,0.0,0.0,0.0,0.0,0.0,0.0,0.0,0.0,0.0,0.0,0.0,0.0,0.0,0.0,0.0,-0.9594,0.0,0.0,0.0,0.0,0.0,0.0,0.0,0.0,0.0,0.0,0.0,0.0,0.0,0.0,0.0,0.0,0.0,0.0,0.0,0.0,0.0,0.0,0.0,0.0,0.0,0.0,0.0,0.0,0.0,0.0,0.0,0.0,0.0,0.0,0.0,0.0,0.0,0.0,0.0,0.0,0.0,0.0,0.0,0.0,0.0,0.0,0.0,0.0,0.0,0.0,0.0,0.0,0.0,0.0,0.0,0.0,0.0,0.0,0.0,0.0,0.0,0.0,0.0,0.0,0.0,0.0,0.0,0.0,0.0,0.0,0.0,0.0,0.0,0.0,0.0,0.0,0.0,0.0,0.0,0.0,0.0,0.0,0.0,0.0,0.0,0.0,0.0,0.0,0.0,0.0,0.0,0.0,0.0,0.0,0.0,0.0,0.0,0.0,0.0,0.0,0.0,0.0,0.0,0.0,0.0,0.0,0.0,0.0,0.0,0.0,-0.7635,-0.8935,-0.9488,-0.9825,-0.9913,0.0,0.0,0.0,0.0,0.0,0.0,0.0,0.0,0.0,0.0,0.0,0.0,0.0,0.0,0.0,0.0,0.0,0.0,0.0,0.0,0.0,0.0,0.0,0.0,0.0,0.0,0.0,0.0,0.0,0.0,0.0,0.0,0.0,0.0,0.0,0.0,0.0,0.0,0.0,0.0,0.0,0.0,0.0,0.0,0.0,0.0,0.0,0.0,0.0,0.0,0.0,0.0,0.0,0.0,0.0,0.0,0.0,0.0,0.0,0.0,0.0,0.0,0.0,0.0,0.0,0.0,0.0,0.0,0.0,0.0,0.0,0.0,0.0,0.0,0.0,0.0,0.0,0.0,0.0,0.0,0.0,0.0,0.0,0.0,0.0,0.0,0.0,0.0,0.0,0.0,0.0,0.0,0.0,0.0,0.0,0.0,0.0,0.0,0.0,0.0,0.0,0.0,0.0,0.0,0.0,0.0,0.0,0.0,0.0,0.0,0.0,0.0,-1.0076,-1.0116,-1.0129,0.0,0.0,0.0,0.0,0.0,0.0,0.0,0.0,0.0,0.0,0.0,0.0,0.0,0.0,0.0,0.0,0.0,0.0,0.0,0.0,0.0,0.0,0.0,0.0,0.0,0.0,0.0,0.0,0.0,0.0,0.0,0.0,0.0,0.0,0.0,0.0,0.0,0.0,0.0,0.0,0.0,0.0,0.0,0.0,0.0,0.0,0.0,0.0,0.0,0.0,0.0,0.0,0.0,0.0,0.0,0.0,0.0,0.0,0.0,0.0,0.0,0.0,0.0,0.0,0.0,0.0,0.0,0.0,0.0,0.0,0.0,0.0,0.0,0.0,0.0,0.0,0.0,0.0,0.0,0.0,0.0,0.0,0.0,0.0,0.0,0.0,0.0,0.0,0.0,0.0,0.0,0.0,0.0,0.0,0.0,0.0,0.0,0.0,0.0,0.0,0.0,0.0,0.0,0.0,0.0,0.0,0.0,0.0,0.0,0.0,-1.0757,-1.0118,-1.0163,0.0,-1.019,0.0,0.0,0.0,0.0,0.0,0.0,0.0,0.0,0.0,0.0,0.0,0.0,0.0,0.0,0.0,0.0,0.0,0.0,0.0,0.0,0.0,0.0,0.0,0.0,0.0,0.0,0.0,0.0,0.0,0.0,0.0,0.0,0.0,0.0,0.0,0.0,0.0,0.0,0.0,0.0,0.0,0.0,0.0,0.0,0.0,0.0,0.0,0.0,0.0,0.0,0.0,0.0,0.0,0.0,0.0,0.0,0.0,0.0,0.0,0.0,0.0,0.0,0.0,0.0,0.0,0.0,0.0,0.0,0.0,0.0,0.0,0.0,0.0,0.0,0.0,0.0,0.0,0.0,0.0,0.0,0.0,0.0,0.0,0.0,0.0,0.0,0.0,0.0,0.0,0.0,0.0,0.0,0.0,0.0,0.0,0.0,0.0,0.0,0.0,0.0,0.0,0.0,0.0,0.0,0.0,0.0,0.0,0.0,0.0,0.0,-1.1266,-1.0882,-1.044,-1.022,0.0,0.0,0.0,0.0,0.0,0.0,0.0,0.0,0.0,0.0,0.0,0.0,0.0,0.0,0.0,0.0,0.0,0.0,0.0,0.0,0.0,0.0,0.0,0.0,0.0,0.0,0.0,0.0,0.0,0.0,0.0,0.0,0.0,0.0,0.0,0.0,0.0,0.0,0.0,0.0,0.0,0.0,0.0,0.0,0.0,0.0,0.0,0.0,0.0,0.0,0.0,0.0,0.0,0.0,0.0,0.0,0.0,0.0,0.0,0.0,0.0,0.0,0.0,0.0,0.0,0.0,0.0,0.0,0.0,0.0,0.0,0.0,0.0,0.0,0.0,0.0,0.0,0.0,0.0,0.0,0.0,0.0,0.0,0.0,0.0,0.0,0.0,0.0,0.0,0.0,0.0,0.0,0.0,0.0,0.0,0.0,0.0,0.0,0.0,0.0,0.0,0.0,0.0,0.0,0.0,0.0,0.0,0.0,0.0,0.0,-1.2265,-1.1976,-1.1427,-1.0637,-1.024,-1.0306,0.0,0.0,0.0,0.0,0.0,0.0,0.0,0.0,0.0,0.0,0.0,0.0,0.0,0.0,0.0,0.0,0.0,0.0,0.0,0.0,0.0,0.0,0.0,0.0,0.0,0.0,0.0,0.0,0.0,0.0,0.0,0.0,0.0,0.0,0.0,0.0,0.0,0.0,0.0,0.0,0.0,0.0,0.0,0.0,0.0,0.0,0.0,0.0,0.0,0.0,0.0,0.0,0.0,0.0,0.0,0.0,0.0,0.0,0.0,0.0,0.0,0.0,0.0,0.0,0.0,0.0,0.0,0.0,0.0,0.0,0.0,0.0,0.0,0.0,0.0,0.0,0.0,0.0,0.0,0.0,0.0,0.0,0.0,0.0,0.0,0.0,0.0,0.0,0.0,0.0,0.0,0.0,0.0,0.0,0.0,0.0,0.0,0.0,0.0,0.0,0.0,0.0,0.0,0.0,0.0,0.0,0.0,0.0,-1.353,-1.38,-1.3184,-1.1554,-1.0675,-1.0235,0.0,0.0,0.0,0.0,0.0,0.0,0.0,0.0,0.0,0.0,0.0,0.0,0.0,0.0,0.0,0.0,0.0,0.0,0.0,0.0,0.0,0.0,0.0,0.0,0.0,0.0,0.0,0.0,0.0,0.0,0.0,0.0,0.0,0.0,0.0,0.0,0.0,0.0,0.0,0.0,0.0,0.0,0.0,0.0,0.0,0.0,0.0,0.0,0.0,0.0,0.0,0.0,0.0,0.0,0.0,0.0,0.0,0.0,0.0,0.0,0.0,0.0,0.0,0.0,0.0,0.0,0.0,0.0,0.0,0.0,0.0,0.0,0.0,0.0,0.0,0.0,0.0,0.0,0.0,0.0,0.0,0.0,0.0,0.0,0.0,0.0,0.0,0.0,0.0,0.0,0.0,0.0,0.0,0.0,0.0,0.0,0.0,0.0,0.0,0.0,0.0,0.0,0.0,0.0,0.0,0.0,0.0,0.0,0.0,-1.4662,-1.4321,-1.3281,-1.1576,-1.1187,-1.0799,0.0,0.0,0.0,0.0,0.0,0.0,0.0,0.0,0.0,0.0,0.0,0.0,0.0,0.0,0.0,0.0,0.0,0.0,0.0,0.0,0.0,0.0,0.0,0.0,0.0,0.0,0.0,0.0,0.0,0.0,0.0,0.0,0.0,0.0,0.0,0.0,0.0,0.0,0.0,0.0,0.0,0.0,0.0,0.0,0.0,0.0,0.0,0.0,0.0,0.0,0.0,0.0,0.0,0.0,0.0,0.0,0.0,0.0,0.0,0.0,0.0,0.0,0.0,0.0,0.0,0.0,0.0,0.0,0.0,0.0,0.0,0.0,0.0,0.0,0.0,0.0,0.0,0.0,0.0,0.0,0.0,0.0,0.0,0.0,0.0,0.0,0.0,0.0,0.0,0.0,0.0,0.0,0.0,0.0,0.0,0.0,0.0,0.0,0.0,0.0,0.0,0.0,0.0,0.0,0.0,0.0,0.0,0.0,0.0,-1.529,0.0,-1.3533,-1.24,-1.1815,-1.1288,0.0,0.0,0.0,0.0,0.0,0.0,0.0,0.0,0.0,0.0,0.0,0.0,0.0,0.0,0.0,0.0,0.0,0.0,0.0,0.0,0.0,0.0,0.0,0.0,0.0,0.0,0.0,0.0,0.0,0.0,0.0,0.0,0.0,0.0,0.0,0.0,0.0,0.0,0.0,0.0,0.0,0.0,0.0,0.0,0.0,0.0,0.0,0.0,0.0,0.0,0.0,0.0,0.0,0.0,0.0,0.0,0.0,0.0,0.0,0.0,0.0,0.0,0.0,0.0,0.0,0.0,0.0,0.0,0.0,0.0,0.0,0.0,0.0,0.0,0.0,0.0,0.0,0.0,0.0,0.0,0.0,0.0,0.0,0.0,0.0,0.0,0.0,0.0,0.0,0.0,0.0,0.0,0.0,0.0,0.0,0.0,0.0,0.0,0.0,0.0,0.0,0.0,0.0,0.0,0.0,0.0,0.0,0.0,-1.5357,-1.5394,-1.4565,-1.4127,-1.4063,-1.2525,-1.1634,0.0,0.0,0.0,0.0,0.0,0.0,0.0,0.0,0.0,0.0,0.0,0.0,0.0,0.0,0.0,0.0,0.0,0.0,0.0,0.0,0.0,0.0,0.0,0.0,0.0,0.0,0.0,0.0,0.0,0.0,0.0,0.0,0.0,0.0,0.0,0.0,0.0,0.0,0.0,0.0,0.0,0.0,0.0,0.0,0.0,0.0,0.0,0.0,0.0,0.0,0.0,0.0,0.0,0.0,0.0,0.0,0.0,0.0,0.0,0.0,0.0,0.0,0.0,0.0,0.0,0.0,0.0,0.0,0.0,0.0,0.0,0.0,0.0,0.0,0.0,0.0,0.0,0.0,0.0,0.0,0.0,0.0,0.0,0.0,0.0,0.0,0.0,0.0,0.0,0.0,0.0,0.0,0.0,0.0,0.0,0.0,0.0,0.0,0.0,0.0,0.0,0.0,0.0,0.0,0.0,0.0,0.0,0.0,0.0,-1.6202,-1.5371,-1.4922,-1.4881,-1.3887,-1.2792,0.0,0.0,0.0,0.0,0.0,0.0,0.0,0.0,0.0,0.0,0.0,0.0,0.0,0.0,0.0,0.0,0.0,0.0,0.0,0.0,0.0,0.0,0.0,0.0,0.0,0.0,0.0,0.0,0.0,0.0,0.0,0.0,0.0,0.0,0.0,0.0,0.0,0.0,0.0,0.0,0.0,0.0,0.0,0.0,0.0,0.0,0.0,0.0,0.0,0.0,0.0,0.0,0.0,0.0,0.0,0.0,0.0,0.0,0.0,0.0,0.0,0.0,0.0,0.0,0.0,0.0,0.0,0.0,0.0,0.0,0.0,0.0,0.0,0.0,0.0,0.0,0.0,0.0,0.0,0.0,0.0,0.0,0.0,0.0,0.0,0.0,0.0,0.0,0.0,0.0,0.0,0.0,0.0,0.0,0.0,0.0,0.0,0.0,0.0,0.0,0.0,0.0,0.0,0.0,0.0,0.0,0.0,0.0,0.0,-1.7608,-1.6719,-1.6208,-1.6207,-1.5096,-1.4054,-1.3063,0.0,0.0,0.0,0.0,0.0,0.0,0.0,0.0,0.0,0.0,0.0,0.0,0.0,0.0,0.0,0.0,0.0,0.0,0.0,0.0,0.0,0.0,0.0,0.0,0.0,0.0,0.0,0.0,0.0,0.0,0.0,0.0,0.0,0.0,0.0,0.0,0.0,0.0,0.0,0.0,0.0,0.0,0.0,0.0,0.0,0.0,0.0,0.0,0.0,0.0,0.0,0.0,0.0,0.0,0.0,0.0,0.0,0.0,0.0,0.0,0.0,0.0,0.0,0.0,0.0,0.0,0.0,0.0,0.0,0.0,0.0,0.0,0.0,0.0,0.0,0.0,0.0,0.0,0.0,0.0,0.0,0.0,0.0,0.0,0.0,0.0,0.0,0.0,0.0,0.0,0.0,0.0,0.0,0.0,0.0,0.0,0.0,0.0,0.0,0.0,0.0,0.0,0.0,0.0,0.0,0.0,0.0,0.0,-1.9524,-1.8461,-1.7888,-1.7793,-1.6148,-1.53,0.0,0.0,0.0,0.0,0.0,0.0,0.0,0.0,0.0,0.0,0.0,0.0,0.0,0.0,0.0,0.0,0.0,0.0,0.0,0.0,0.0,0.0,0.0,0.0,0.0,0.0,0.0,0.0,0.0,0.0,0.0,0.0,0.0,0.0,0.0,0.0,0.0,0.0,0.0,0.0,0.0,0.0,0.0,0.0,0.0,0.0,0.0,0.0,0.0,0.0,0.0,0.0,0.0,0.0,0.0,0.0,0.0,0.0,0.0,0.0,0.0,0.0,0.0,0.0,0.0,0.0,0.0,0.0,0.0,0.0,0.0,0.0,0.0,0.0,0.0,0.0,0.0,0.0,0.0,0.0,0.0,0.0,0.0,0.0,0.0,0.0,0.0,0.0,0.0,0.0,0.0,0.0,0.0,0.0,0.0,0.0,0.0,0.0,0.0,0.0,0.0,0.0,0.0,0.0,0.0,0.0,0.0,0.0,0.0,-2.0029,-2.0305,-2.0024,-1.9178,-1.7178,-1.5845,0.0,0.0,0.0,0.0,0.0,0.0,0.0,0.0,0.0,0.0,0.0,0.0,0.0,0.0,0.0,0.0,0.0,0.0,0.0,0.0,0.0,0.0,0.0,0.0,0.0,0.0,0.0,0.0,0.0,0.0,0.0,0.0,0.0,0.0,0.0,0.0,0.0,0.0,0.0,0.0,0.0,0.0,0.0,0.0,0.0,0.0,0.0,0.0,0.0,0.0,0.0,0.0,0.0,0.0,0.0,0.0,0.0,0.0,0.0,0.0,0.0,0.0,0.0,0.0,0.0,0.0,0.0,0.0,0.0,0.0,0.0,0.0,0.0,0.0,0.0,0.0,0.0,0.0,0.0,0.0,0.0,0.0,0.0,0.0,0.0,0.0,0.0,0.0,0.0,0.0,0.0,0.0,0.0,0.0,0.0,0.0,0.0,0.0,0.0,0.0,0.0,0.0,0.0,0.0,0.0,0.0,0.0,0.0,-1.9021,-2.0517,-2.1041,-2.1007,-2.0396,-1.8658,-1.7289,0.0,0.0,0.0,0.0,0.0,0.0,0.0,0.0,0.0,0.0,0.0,0.0,0.0,0.0,0.0,0.0,0.0,0.0,0.0,0.0,0.0,0.0,0.0,0.0,0.0,0.0,0.0,0.0,0.0,0.0,0.0,0.0,0.0,0.0,0.0,0.0,0.0,0.0,0.0,0.0,0.0,0.0,0.0,0.0,0.0,0.0,0.0,0.0,0.0,0.0,0.0,0.0,0.0,0.0,0.0,0.0,0.0,0.0,0.0,0.0,0.0,0.0,0.0,0.0,0.0,0.0,0.0,0.0,0.0,0.0,0.0,0.0,0.0,0.0,0.0,0.0,0.0,0.0,0.0,0.0,0.0,0.0,0.0,0.0,0.0,0.0,0.0,0.0,0.0,0.0,0.0,0.0,0.0,0.0,0.0,0.0,0.0,0.0,0.0,0.0,0.0,0.0,0.0,0.0,0.0,0.0,0.0,0.0,-1.9538,-2.0849,-2.1188,-2.135,-2.1219,-2.0181,-1.9002,0.0,0.0,0.0,0.0,0.0,0.0,0.0,0.0,0.0,0.0,0.0,0.0,0.0,0.0,0.0,0.0,0.0,0.0,0.0,0.0,0.0,0.0,0.0,0.0,0.0,0.0,0.0,0.0,0.0,0.0,0.0,0.0,0.0,0.0,0.0,0.0,0.0,0.0,0.0,0.0,0.0,0.0,0.0,0.0,0.0,0.0,0.0,0.0,0.0,0.0,0.0,0.0,0.0,0.0,0.0,0.0,0.0,0.0,0.0,0.0,0.0,0.0,0.0,0.0,0.0,0.0,0.0,0.0,0.0,0.0,0.0,0.0,0.0,0.0,0.0,0.0,0.0,0.0,0.0,0.0,0.0,0.0,0.0,0.0,0.0,0.0,0.0,0.0,0.0,0.0,0.0,0.0,0.0,0.0,0.0,0.0,0.0,0.0,0.0,0.0,0.0,0.0,0.0,0.0,0.0,0.0,0.0,0.0,-1.9928,-2.0726,-2.1857,-2.2019,-2.1149,-2.0083,-1.8898,0.0,0.0,0.0,0.0,0.0,0.0,0.0,0.0,0.0,0.0,0.0,0.0,0.0,0.0,0.0,0.0,0.0,0.0,0.0,0.0,0.0,0.0,0.0,0.0,0.0,0.0,0.0,0.0,0.0,0.0,0.0,0.0,0.0,0.0,0.0,0.0,0.0,0.0,0.0,0.0,0.0,0.0,0.0,0.0,0.0,0.0,0.0,0.0,-0.7695,0.0,0.0,0.0,0.0,0.0,0.0,0.0,0.0,0.0,0.0,0.0,0.0,0.0,0.0,0.0,0.0,0.0,0.0,0.0,0.0,0.0,0.0,0.0,0.0,0.0,0.0,0.0,0.0,0.0,0.0,0.0,0.0,0.0,0.0,0.0,0.0,0.0,0.0,0.0,0.0,0.0,0.0,0.0,0.0,0.0,0.0,0.0,0.0,0.0,0.0,0.0,0.0,0.0,0.0,0.0,0.0,0.0,0.0,0.0,-2.0398,-2.0721,-2.2104,-2.2244,-2.1015,-2.026,-1.9133,0.0,0.0,0.0,0.0,0.0,0.0,0.0,0.0,0.0,0.0,0.0,0.0,0.0,0.0,0.0,0.0,0.0,0.0,0.0,0.0,0.0,0.0,0.0,0.0,0.0,0.0,0.0,0.0,0.0,0.0,0.0,0.0,0.0,0.0,0.0,0.0,0.0,0.0,0.0,0.0,0.0,0.0,0.0,0.0,0.0,0.0,0.0,0.0,0.0,0.0,0.0,0.0,0.0,0.0,0.0,0.0,0.0,0.0,0.0,0.0,0.0,0.0,0.0,0.0,0.0,0.0,0.0,0.0,0.0,0.0,0.0,0.0,0.0,0.0,0.0,0.0,0.0,0.0,0.0,0.0,0.0,0.0,0.0,0.0,0.0,0.0,0.0,0.0,0.0,0.0,0.0,0.0,0.0,0.0,0.0,0.0,0.0,0.0,0.0,0.0,0.0,0.0,0.0,0.0,0.0,0.0,0.0,-1.9932,-2.0859,-2.0743,-2.2121,-2.2202,-2.0842,-2.0586,-1.9493,-1.7468,0.0,0.0,0.0,0.0,0.0,0.0,0.0,0.0,0.0,0.0,0.0,0.0,0.0,0.0,0.0,0.0,0.0,0.0,0.0,0.0,0.0,0.0,0.0,0.0,0.0,0.0,0.0,0.0,0.0,0.0,0.0,0.0,0.0,0.0,0.0,0.0,0.0,0.0,-0.3532,-0.1607,0.0,0.0,0.0,0.0,0.0,0.0,0.0,0.0,-0.745,0.0,0.0,0.0,0.0,0.0,0.0,0.0,0.0,0.0,0.0,0.0,0.0,0.0,0.0,0.0,0.0,0.0,0.0,0.0,0.0,0.0,0.0,0.0,0.0,0.0,0.0,0.0,0.0,0.0,0.0,0.0,0.0,0.0,0.0,0.0,0.0,0.0,0.0,0.0,0.0,0.0,0.0,0.0,0.0,0.0,0.0,0.0,0.0,0.0,0.0,0.0,0.0,0.0,0.0,0.0,0.0,-1.7924,-2.0008,-2.0933,-2.0657,-2.2111,-2.222,-2.0877,-2.103,-1.9913,-1.7405,0.0,0.0,0.0,0.0,0.0,0.0,0.0,0.0,0.0,0.0,0.0,0.0,0.0,0.0,0.0,0.0,0.0,0.0,0.0,0.0,0.0,0.0,0.0,0.0,0.0,0.0,0.0,0.0,0.0,0.0,0.0,0.0,0.0,0.0,0.0,0.0,0.0,0.0,0.0,-0.4305,-0.3352,0.0,0.0,0.0,0.0,0.0,0.0,0.0,0.0,-0.7754,0.0,0.0,0.0,0.0,0.0,0.0,0.0,0.0,0.0,0.0,0.0,0.0,0.0,0.0,0.0,0.0,0.0,0.0,0.0,0.0,0.0,0.0,0.0,0.0,0.0,0.0,0.0,0.0,0.0,0.0,0.0,0.0,0.0,0.0,0.0,0.0,0.0,0.0,0.0,0.0,0.0,0.0,0.0,0.0,0.0,0.0,0.0,0.0,0.0,0.0,0.0,0.0,0.0,0.0,0.0,-1.8074,-1.9219,-1.9949,-2.014,-2.115,-2.1249,-2.0283,-1.9775,-1.8775,0.0,0.0,0.0,0.0,0.0,0.0,0.0,0.0,0.0,0.0,0.0,0.0,0.0,0.0,0.0,0.0,0.0,0.0,0.0,0.0,0.0,0.0,0.0,0.0,0.0,0.0,0.0,0.0,0.0,0.0,0.0,0.0,0.0,0.0,0.0,0.0,0.0,0.0,0.0,0.0,-0.6892,-0.6035,-0.5481,0.0,0.0,0.0,0.0,0.0,0.0,-0.7612,-0.7807,0.0,0.0,0.0,0.0,0.0,0.0,0.0,0.0,0.0,0.0,0.0,0.0,0.0,0.0,0.0,0.0,0.0,0.0,0.0,0.0,0.0,0.0,0.0,0.0,0.0,0.0,0.0,0.0,0.0,0.0,0.0,0.0,0.0,0.0,0.0,0.0,0.0,0.0,0.0,0.0,0.0,0.0,0.0,0.0,0.0,0.0,0.0,0.0,0.0,0.0,0.0,0.0,0.0,0.0,0.0,-1.7921,-1.8493,-1.907,-1.9688,-2.018,-2.0145,-1.9517,-1.8498,-1.7609,0.0,0.0,0.0,0.0,0.0,0.0,0.0,0.0,0.0,0.0,0.0,0.0,0.0,0.0,0.0,0.0,0.0,0.0,0.0,0.0,0.0,0.0,0.0,0.0,0.0,0.0,0.0,0.0,0.0,0.0,0.0,0.0,0.0,0.0,0.0,0.0,0.0,0.0,0.0,0.0,0.0,-0.8519,-0.7678,-0.7412,0.0,0.0,0.0,0.0,-0.7794,-0.7863,0.0,0.0,0.0,0.0,0.0,0.0,0.0,0.0,0.0,0.0,0.0,0.0,0.0,0.0,0.0,0.0,0.0,0.0,0.0,0.0,0.0,0.0,0.0,0.0,0.0,0.0,0.0,0.0,0.0,0.0,0.0,0.0,0.0,0.0,0.0,0.0,0.0,0.0,0.0,0.0,0.0,0.0,0.0,0.0,0.0,0.0,0.0,0.0,0.0,0.0,0.0,0.0,0.0,0.0,0.0,0.0,-1.7158,-1.8362,-1.9219,-1.977,-1.9838,-1.9542,-1.884,-1.8328,-1.7484,0.0,0.0,0.0,0.0,0.0,0.0,0.0,0.0,0.0,0.0,0.0,0.0,0.0,0.0,0.0,0.0,0.0,0.0,0.0,0.0,0.0,0.0,0.0,0.0,0.0,0.0,0.0,0.0,0.0,0.0,0.0,0.0,0.0,0.0,0.0,0.0,0.0,0.0,0.0,0.0,0.0,-1.0659,-0.983,-0.9334,-0.8887,0.0,0.0,-0.8043,-0.8427,-0.8488,0.0,0.0,0.0,0.0,0.0,0.0,0.0,0.0,0.0,0.0,0.0,0.0,0.0,0.0,0.0,0.0,0.0,0.0,0.0,0.0,0.0,0.0,0.0,0.0,0.0,0.0,0.0,0.0,0.0,0.0,0.0,0.0,0.0,0.0,0.0,0.0,0.0,0.0,0.0,0.0,0.0,0.0,0.0,0.0,0.0,0.0,0.0,0.0,0.0,0.0,0.0,0.0,0.0,0.0,0.0,-1.5858,-1.6432,-1.6851,-1.7379,-1.8016,-1.7966,-1.7841,-1.7662,-1.7127,-1.6656,0.0,0.0,0.0,0.0,0.0,0.0,0.0,0.0,0.0,0.0,0.0,0.0,0.0,0.0,0.0,0.0,0.0,0.0,0.0,0.0,0.0,0.0,0.0,0.0,0.0,0.0,0.0,0.0,0.0,0.0,0.0,0.0,0.0,0.0,0.0,0.0,0.0,0.0,0.0,0.0,0.0,0.0,-1.1335,-1.056,0.0,0.0,0.0,-0.8703,-0.8705,0.0,0.0,0.0,0.0,0.0,0.0,0.0,0.0,0.0,0.0,0.0,0.0,0.0,0.0,0.0,0.0,0.0,0.0,0.0,0.0,0.0,0.0,0.0,0.0,0.0,0.0,0.0,0.0,0.0,0.0,0.0,0.0,0.0,0.0,0.0,0.0,0.0,0.0,0.0,0.0,0.0,0.0,0.0,0.0,0.0,0.0,0.0,0.0,0.0,0.0,0.0,0.0,0.0,0.0,0.0,0.0,0.0,-1.6045,-1.5815,-1.6036,-1.6721,-1.6502,-1.6442,-1.6624,-1.6008,0.0,0.0,0.0,0.0,0.0,0.0,0.0,0.0,0.0,0.0,0.0,0.0,0.0,0.0,0.0,0.0,0.0,0.0,0.0,0.0,0.0,0.0,0.0,0.0,0.0,0.0,0.0,-1.0868,0.0,0.0,0.0,0.0,0.0,0.0,0.0,0.0,0.0,0.0,0.0,0.0,0.0,0.0,-1.4567,-1.3008,-1.2191,-1.139,0.0,0.0,-0.9887,-0.9538,-1.0022,-1.0467,0.0,0.0,0.0,0.0,0.0,0.0,0.0,0.0,0.0,0.0,0.0,0.0,0.0,0.0,0.0,0.0,0.0,0.0,0.0,0.0,0.0,0.0,0.0,0.0,0.0,0.0,0.0,0.0,0.0,0.0,0.0,0.0,0.0,0.0,0.0,0.0,0.0,0.0,0.0,0.0,0.0,0.0,0.0,0.0,0.0,0.0,0.0,0.0,0.0,0.0,0.0,0.0,0.0,0.0,0.0,-1.6254,-1.6073,-1.629,-1.6923,-1.6283,-1.594,-1.5947,-1.5366,-1.5165,0.0,0.0,0.0,0.0,0.0,0.0,0.0,0.0,0.0,0.0,0.0,0.0,0.0,0.0,0.0,0.0,0.0,0.0,0.0,0.0,0.0,0.0,0.0,0.0,0.0,0.0,0.0,0.0,0.0,0.0,0.0,0.0,0.0,0.0,0.0,0.0,0.0,0.0,0.0,0.0,0.0,-1.6787,-1.5213,-1.4731,-1.4068,0.0,0.0,-1.2058,-1.1439,-1.1717,-1.1935,-1.1981,0.0,0.0,0.0,0.0,0.0,0.0,0.0,0.0,0.0,0.0,0.0,0.0,0.0,0.0,0.0,0.0,0.0,0.0,0.0,0.0,0.0,0.0,0.0,0.0,0.0,0.0,0.0,0.0,0.0,0.0,0.0,0.0,0.0,0.0,0.0,0.0,0.0,0.0,0.0,0.0,0.0,0.0,0.0,0.0,0.0,0.0,0.0,0.0,0.0,0.0,0.0,0.0,0.0,-1.4835,-1.5599,-1.5501,-1.557,-1.5814,-1.551,-1.5399,-1.5468,-1.5287,-1.5206,0.0,0.0,0.0,0.0,0.0,0.0,0.0,0.0,0.0,0.0,0.0,0.0,0.0,0.0,0.0,0.0,0.0,0.0,0.0,0.0,0.0,0.0,0.0,0.0,0.0,0.0,0.0,0.0,-1.1857,-1.1632,-1.2607,0.0,0.0,0.0,0.0,0.0,0.0,0.0,0.0,0.0,0.0,-1.8051,-1.7015,-1.6698,0.0,0.0,-1.4545,-1.4128,-1.362,-1.3959,-1.4309,-1.4378,-1.4931,0.0,0.0,0.0,0.0,0.0,0.0,0.0,0.0,0.0,0.0,0.0,0.0,0.0,0.0,0.0,0.0,0.0,0.0,0.0,0.0,0.0,0.0,0.0,0.0,0.0,0.0,0.0,0.0,0.0,0.0,0.0,0.0,0.0,0.0,0.0,0.0,0.0,0.0,0.0,0.0,0.0,0.0,0.0,0.0,0.0,0.0,0.0,0.0,0.0,0.0,0.0,0.0,-1.4419,-1.5226,-1.5196,-1.5163,-1.5139,-1.5105,-1.5132,-1.5236,-1.5295,-1.5328,0.0,0.0,0.0,0.0,0.0,0.0,0.0,0.0,0.0,0.0,0.0,0.0,0.0,0.0,0.0,0.0,0.0,0.0,0.0,0.0,0.0,0.0,0.0,0.0,0.0,0.0,0.0,0.0,-1.3011,-1.2791,-1.365,0.0,0.0,0.0,0.0,0.0,0.0,0.0,0.0,0.0,0.0,-1.9563,-1.8733,-1.8706,-1.8452,-1.7412,-1.7074,-1.6738,-1.6208,-1.6443,-1.669,-1.6702,0.0,0.0,0.0,0.0,0.0,0.0,0.0,0.0,0.0,0.0,0.0,0.0,0.0,0.0,0.0,0.0,0.0,0.0,0.0,0.0,0.0,0.0,0.0,0.0,0.0,0.0,0.0,0.0,0.0,0.0,0.0,0.0,0.0,0.0,0.0,0.0,0.0,0.0,0.0,0.0,0.0,0.0,0.0,0.0,0.0,0.0,0.0,0.0,0.0,0.0,0.0,0.0,0.0,-1.451,-1.5287,-1.5338,-1.5303,-1.5234,-1.5272,-1.5274,-1.5282,-1.5355,-1.5391,-1.5383,0.0,0.0,0.0,0.0,0.0,0.0,0.0,0.0,0.0,0.0,0.0,0.0,0.0,0.0,0.0,0.0,0.0,0.0,0.0,0.0,0.0,0.0,0.0,0.0,0.0,0.0,-1.4061,-1.4485,-1.4861,0.0,0.0,0.0,0.0,0.0,0.0,0.0,0.0,0.0,0.0,-2.1657,-2.1575,-2.0394,-2.0849,-2.0939,-1.9802,-2.0114,-2.0187,-1.9353,-1.9097,-1.8914,0.0,0.0,0.0,0.0,0.0,0.0,0.0,0.0,0.0,0.0,0.0,0.0,0.0,0.0,0.0,0.0,0.0,0.0,0.0,0.0,0.0,0.0,0.0,0.0,0.0,0.0,0.0,-1.5416,-1.5317,0.0,0.0,0.0,0.0,0.0,0.0,0.0,0.0,0.0,0.0,0.0,-1.8772,-1.8784,0.0,0.0,0.0,0.0,0.0,0.0,0.0,0.0,0.0,0.0,0.0,0.0,-1.539,-1.6188,-1.6168,-1.6177,-1.618,-1.5645,-1.5362,-1.5351,-1.5389,-1.5362,-1.5269,0.0,0.0,0.0,0.0,0.0,0.0,0.0,0.0,0.0,0.0,0.0,0.0,0.0,0.0,0.0,0.0,0.0,0.0,0.0,0.0,0.0,0.0,0.0,0.0,0.0,-1.5609,0.0,0.0,0.0,0.0,0.0,0.0,0.0,0.0,0.0,0.0,0.0,-2.2032,-2.2888,-2.3084,-2.3155,-2.3069,-2.3446,-2.3469,0.0,0.0,0.0,0.0,0.0,0.0,0.0,0.0,0.0,0.0,0.0,0.0,0.0,0.0,-2.3052,-2.2447,-2.3027,-2.3641,-2.371,0.0,0.0,0.0,0.0,0.0,0.0,0.0,0.0,0.0,0.0,0.0,0.0,0.0,0.0,0.0,0.0,-1.6832,0.0,0.0,0.0,0.0,0.0,0.0,0.0,0.0,-1.9305,-2.0264,-2.1352,-2.1371,-2.107,0.0,-2.0239,-1.8796,0.0,0.0,0.0,0.0,0.0,0.0,0.0,0.0,-1.5979,-1.7095,-1.7112,-1.7101,-1.7098,-1.6543,-1.6261,-1.6242,-1.5913,-1.5567,-1.5171,-1.5033,-1.5296,0.0,0.0,0.0,0.0,0.0,0.0,0.0,0.0,0.0,0.0,0.0,0.0,0.0,0.0,0.0,0.0,0.0,0.0,0.0,0.0,0.0,0.0,0.0,-1.7264,0.0,0.0,0.0,0.0,0.0,0.0,0.0,0.0,0.0,-2.3173,-2.2955,-2.3213,-2.4275,-2.4572,-2.4779,-2.501,0.0,0.0,0.0,0.0,0.0,0.0,0.0,-2.4963,-2.4937,-2.4905,-2.4854,-2.4831,-2.5207,-2.5733,-2.6404,0.0,0.0,-2.4458,-2.4795,-2.5159,-2.4802,-2.5544,-2.647,-2.7268,-2.7749,-2.838,0.0,0.0,0.0,0.0,0.0,0.0,0.0,0.0,-2.0609,-2.0625,0.0,-2.0486,0.0,0.0,0.0,0.0,0.0,0.0,0.0,0.0,-2.2669,-2.309,-2.3126,-2.309,-2.3072,-2.2999,-2.2224,-2.1406,-2.0428,-1.8089,0.0,0.0,0.0,0.0,0.0,0.0,-1.6389,-1.8097,-1.8162,-1.8085,-1.7997,-1.795,-1.7855,-1.7694,-1.6842,-1.5984,-1.5151,-1.4962,-1.5251,-1.5977,-1.6613,0.0,0.0,0.0,0.0,0.0,0.0,0.0,0.0,0.0,0.0,0.0,0.0,0.0,0.0,0.0,0.0,0.0,0.0,0.0,0.0,-1.8724,0.0,0.0,0.0,0.0,0.0,0.0,0.0,0.0,0.0,0.0,-2.4318,-2.491,-2.5502,-2.5481,0.0,0.0,0.0,0.0,-2.6835,-2.6503,-2.6613,-2.6622,-2.6403,-2.6762,-2.6743,-2.5937,0.0,0.0,-2.696,-2.7026,-2.704,-2.743,-2.7252,-2.6683,-2.5631,-2.5707,-2.5869,-2.5493,-2.6729,-2.8035,-2.8333,-2.8781,-2.9456,-2.4602,0.0,0.0,0.0,0.0,-2.2437,-2.2921,-2.3201,-2.3256,-2.3286,-2.3196,-2.1961,0.0,0.0,0.0,0.0,0.0,0.0,-2.3076,-2.4485,-2.4697,-2.5104,-2.5673,-2.5059,-2.4496,-2.3917,-2.3689,-2.3166,-2.2354,-2.163,-1.9784,-1.6933,0.0,0.0,0.0,0.0,-1.9609,-2.0642,-2.0672,-2.0343,-1.9689,-1.9026,-1.8063,-1.683,-1.6493,-1.5891,-1.5006,-1.4873,-1.516,-1.5895,-1.6571,0.0,0.0,0.0,0.0,0.0,0.0,0.0,0.0,0.0,0.0,0.0,0.0,0.0,0.0,0.0,0.0,0.0,0.0,0.0,-1.9661,-2.0474,-2.1076,0.0,0.0,0.0,0.0,0.0,0.0,0.0,0.0,0.0,-2.6039,-2.5706,-2.5945,0.0,0.0,-2.6929,-2.7816,-2.8005,-2.7968,-2.778,0.0,0.0,0.0,-2.8094,-2.7946,-2.7607,-2.7247,-2.712,-2.7473,-2.7612,-2.7805,-2.8147,-2.7653,-2.6964,-2.6255,-2.6249,-2.6169,-2.5688,-2.6005,-2.6617,-2.7231,-2.7886,-2.8533,-2.9737,-2.7381,-2.5707,-2.5139,-2.5357,-2.5645,-2.5958,-2.6334,-2.6393,-2.6236,-2.5843,-2.4803,-2.416,-2.3803,-2.2959,0.0,0.0,0.0,-2.5098,-2.6094,-2.6028,-2.6103,-2.6234,-2.5725,-2.5266,-2.483,-2.4842,-2.4417,-2.3614,-2.3606,-2.242,-2.0078,0.0,0.0,-2.0279,-2.0779,-2.143,-2.225,-2.2211,-2.1876,-2.1332,-2.0361,-1.9047,-1.7341,-1.6892,-1.6261,-1.5376,-1.5001,-1.5131,-1.5881,-1.6547,-1.7243,0.0,0.0,0.0,0.0,0.0,0.0,0.0,0.0,0.0,0.0,0.0,-1.7629,-1.8442,0.0,0.0,0.0,-2.0055,-2.0825,-2.1388,-2.2191,0.0,0.0,0.0,0.0,0.0,0.0,0.0,-2.5328,-2.6458,-2.737,-2.7668,-2.7019,-2.6759,-2.7444,-2.7011,-2.6924,-2.7692,0.0,-2.7579,-2.7453,-2.7254,-2.7315,-2.797,-2.8193,-2.8351,-2.8572,-2.8072,-2.7701,-2.7818,-2.7989,-2.8031,-2.7877,-2.7306,-2.6561,-2.5832,-2.5488,-2.5196,-2.4867,-2.5112,-2.5613,-2.6311,-2.6958,-2.7634,-3.4242,-3.3149,-2.9145,-2.8201,-2.9331,-2.8757,-2.8961,-2.9687,-2.9685,-2.9216,-2.8422,-2.8325,-2.7866,-2.7043,-2.6345,0.0,0.0,-2.694,-2.7336,-2.7284,-2.7229,-2.6722,-2.5909,-2.5855,-2.577,-2.5721,-2.576,-2.5348,-2.4553,-2.45,-2.4095,-2.33,-2.2496,-2.2061,-2.1998,-2.2003,-2.2384,-2.3192,-2.313,-2.2996,-2.2738,-2.1727,-2.0369,-1.8685,-1.7831,-1.6943,-1.6097,-1.5382,-1.5285,-1.5971,-1.6626,-1.7321,-1.8042,0.0,0.0,0.0,0.0,0.0,0.0,0.0,0.0,0.0,0.0,0.0,0.0,0.0,0.0,0.0,-2.0544,0.0,-2.2922,-2.3711,0.0,0.0,0.0,-2.3768,-2.3143,-2.4447,-2.5458,-2.5665,0.0,0.0,-2.9086,0.0,-2.7701,-2.6965,-2.6814,-2.6733,-2.6538,-2.65,-2.6317,-2.6242,-2.6027,-2.6197,-2.697,-2.7512,-2.8085,-2.8706,-2.8393,-2.7872,-2.7911,-2.7994,-2.7772,-2.7118,-2.6379,-2.5661,-2.4879,-2.3981,-2.3253,-2.3634,-2.4266,-2.4951,-2.5559,-2.6282,-2.6997,-3.695,-3.6029,-3.435,-3.2726,-3.1299,-3.1783,-3.2116,-3.2252,-3.165,-3.0911,-3.0067,-2.946,-2.8743,-2.8022,-2.8416,-2.8942,-2.9624,-3.0425,-3.1118,-3.1612,-3.0986,-3.0225,-2.9364,-2.8759,-2.7809,-2.6645,-2.6607,-2.6197,-2.5414,-2.5388,-2.5265,-2.5011,-2.4803,-2.437,-2.3733,-2.3645,-2.4025,-2.4822,-2.4716,-2.4186,-2.3232,-2.1657,-2.0285,-1.9235,-1.8352,-1.7485,-1.6643,-1.6472,-1.6485,-1.668,-1.7394,-1.8085,-1.8658,-1.9506,0.0,0.0,0.0,0.0,0.0,0.0,0.0,0.0,0.0,-2.011,-2.0847,0.0,-2.1173,0.0,-2.2722,-2.3365,-2.3781,-2.4004,0.0,0.0,-2.2612,-2.2648,-2.371,-2.4737,-2.5821,-2.7111,-2.8184,-2.8864,-2.9044,-2.8386,-2.7794,-2.7468,-2.749,-2.7471,-2.7337,-2.7204,-2.6874,-2.6242,-2.6021,-2.6242,-2.6724,-2.6843,-2.721,-2.8103,-2.7634,-2.7174,-2.712,-2.7174,-2.6961,-2.6169,-2.5311,-2.465,-2.4329,-2.3484,-2.2953,-2.3095,-2.3474,-2.4021,-2.4626,-2.5695,-2.658,-3.8692,-3.8152,-3.6895,-3.5523,-3.4145,-3.3907,-3.3786,-3.3728,-3.332,-3.2635,-3.1825,-3.1403,-3.0771,-3.0038,-3.0443,-3.0908,-3.1382,-3.1824,-3.2246,-3.2617,-3.2119,-3.1443,-3.0637,-3.0205,-2.9499,-2.8651,-2.8632,-2.8421,-2.7946,-2.7226,-2.682,-2.6744,-2.596,-2.5329,-2.482,-2.4742,-2.5116,-2.5823,-2.522,-2.4341,-2.3231,-2.2142,-2.1195,-2.034,-1.949,-1.882,-1.8364,-1.8067,-1.8045,-1.8392,-1.882,-1.9285,-1.9902,-2.0594,-2.1054,0.0,0.0,0.0,0.0,0.0,0.0,0.0,0.0,0.0,0.0,0.0,-2.2531,0.0,-2.3571,-2.3813,-2.3996,-2.4056,-2.3874,-2.349,-2.3286,-2.3558,-2.4492,-2.5607,-2.667,-2.7606,-2.8457,-2.8952,-2.8863,-2.8474,-2.8153,-2.8016,-2.8009,-2.7634,-2.6576,-2.6059,-2.5682,-2.5499,-2.5446,-2.5768,-2.6639,-2.6898,-2.7148,-2.7688,-2.7454,-2.7126,-2.7098,-2.7052,-2.6777,-2.6013,-2.5404,-2.4726,-2.3998,-2.3574,-2.3173,-2.2857,-2.3226,-2.3786,-2.4182,-2.4891,-2.5497,-3.9789,-3.9544,-3.8043,-3.7339,-3.7045,-3.5588,-3.4847,-3.4661,-3.4656,-3.4214,-3.3472,-3.3418,-3.2985,-3.2263,-3.2396,-3.243,-3.2439,-3.2483,-3.25,-3.2485,-3.2427,-3.1972,-3.1193,-3.1216,-3.1131,-3.0984,-3.0977,-3.0914,-3.0741,-2.9312,-2.8522,-2.829,-2.6712,-2.5848,-2.5723,-2.5475,-2.5609,-2.6123,-2.5005,-2.3987,-2.3088,-2.2774,-2.2297,-2.1569,-2.0752,-2.0318,-2.0391,-1.9721,-1.9702,-2.0372,-2.0373,-2.0621,-2.1297,-2.1846,-2.2134,0.0,-2.2709,0.0,0.0,0.0,0.0,0.0,0.0,0.0,0.0,-2.2893,-2.3168,-2.3476,-2.3656,-2.3789,-2.3876,-2.3935,-2.4032,-2.4218,-2.478,-2.5248,-2.5485,-2.6745,-2.7619,-2.7752,-2.8348,-2.8743,-2.8669,-2.8612,-2.8562,-2.8386,-2.812,-2.7351,-2.5566,-2.4723,-2.4574,-2.4796,-2.4795,-2.5417,-2.6408,-2.6965,-2.723,-2.7495,-2.7317,-2.7282,-2.7344,-2.7151,-2.6768,-2.6031,-2.563,-2.5115,-2.3791,-2.379,-2.3638,-2.2848,-2.3359,-2.3856,-2.3978,-2.4191,-2.4369,-4.0282,-3.9587,-3.9285,-3.8712,-3.8034,-3.7715,-3.6794,-3.5475,-3.553,-3.5111,-3.4319,-3.3676,-3.33,-3.3221,-3.3883,-3.4198,-3.4254,-3.4867,-3.5139,-3.5084,-3.5076,-3.4595,-3.3813,-3.3828,-3.3167,-3.1909,-3.1859,-3.1485,-3.0801,-3.0492,-2.9956,-2.9221,-2.812,-2.752,-2.7345,0.0,0.0,0.0,-2.4375,-2.389,-2.3482,-2.2697,-2.2198,-2.1975,-2.1196,0.0,-2.0914,-2.0791,-2.0831,-2.109,-2.105,0.0,0.0,0.0,0.0,0.0,0.0,0.0,0.0,0.0,0.0,0.0,-2.3052,-2.2986,-2.2985,-2.3168,-2.3319,-2.3473,-2.3535,-2.3624,-2.3795,-2.3795,-2.4046,-2.4759,-2.4914,-2.5452,-2.6789,-2.726,-2.7725,-2.8476,-2.867,-2.8669,-2.8562,-2.8484,-2.8353,-2.8101,-2.7502,-2.6871,-2.6229,-2.5976,-2.5844,-2.5543,-2.5517,-2.5838,-2.626,-2.6009,-2.6195,-2.7013,-2.6695,-2.6461,-2.6851,-2.6499,-2.5811,-2.4992,-2.4599,-2.4458,-2.3898,-2.3803,-2.3779,-2.3638,-2.3658,-2.3693,-2.3577,-2.3933,-2.4271,-4.0965,0.0,-3.9661,-3.922,0.0,-3.831,-3.7672,-3.6884,-3.6948,-3.6556,-3.5768,-3.4983,-3.4661,-3.4718,-3.5137,-3.5345,-3.5349,-3.5775,-3.5914,-3.5853,-3.5859,-3.5612,-3.5201,-3.5684,-3.5443,-3.4633,-3.4612,-3.4413,-3.3945,-3.2709,-3.183,-3.1287,-2.9493,-2.8522,-2.8341,-2.674,-2.5379,-2.4356,-2.402,-2.3714,-2.3445,-2.2863,-2.2553,-2.2535,0.0,0.0,0.0,0.0,0.0,0.0,0.0,0.0,0.0,0.0,0.0,-2.3035,-2.3144,-2.3217,-2.3241,-2.3289,-2.3271,-2.3289,-2.3378,-2.3378,-2.3247,-2.3313,-2.3407,-2.3486,-2.3526,-2.3616,-2.3747,-2.405,-2.4424,-2.4919,-2.5618,-2.6423,-2.7168,-2.7705,-2.811,-2.8496,-2.8587,-2.8466,-2.8219,-2.8101,-2.7933,-2.7642,-2.7285,-2.6917,-2.668,-2.6161,-2.5736,-2.5675,-2.5796,-2.5902,-2.5867,-2.5285,-2.5173,-2.6136,-2.6024,-2.5976,-2.6619,-2.6435,-2.5982,-2.5496,-2.5313,-2.5045,-2.4495,-2.4433,-2.4349,-2.3916,-2.3842,-2.3819,-2.3646,-2.3906,-2.4094,-4.1633,-4.0836,-3.9953,-3.9523,-3.9377,-3.8715,-3.8469,-3.8524,0.0,0.0,0.0,-3.6621,-3.6384,-3.6443,-3.6461,-3.6445,-3.644,-3.6445,-3.6403,-3.6358,-3.6362,-3.6364,-3.6404,-3.7092,-3.7416,-3.7425,-3.7433,-3.7407,-3.7207,-3.5108,-3.3848,-3.3257,-3.1012,-2.9514,-2.8765,-2.7491,-2.6077,-2.4632,-2.4218,-2.3853,-2.3501,-2.3263,-2.3092,-2.2995,-2.3003,-2.3102,-2.3289,-2.3336,-2.3378,-2.3336,-2.3289,-2.3217,-2.3052,-2.3102,-2.3168,-2.3144,-2.3241,-2.3313,-2.3336,-2.3336,-2.336,-2.3424,-2.3471,-2.3476,-2.3407,-2.3424,-2.343,-2.3494,-2.3539,-2.3661,-2.3894,-2.4428,-2.4949,-2.5247,-2.6428,-2.723,-2.7428,-2.8,-2.8422,-2.838,-2.8353,-2.8228,-2.7897,-2.7771,-2.7552,-2.7261,-2.7147,-2.707,-2.6785,-2.5922,-2.5377,-2.5644,-2.5717,-2.5771,-2.5758,-2.5324,-2.4909,-2.5295,-2.548,-2.5782,-2.6251,-2.6434,-2.6415,-2.6247,-2.627,-2.5859,-2.5138,-2.5132,-2.5028,-2.3967,-2.3943,-2.4021,-2.3867,-2.3839,-2.3882,-4.1905,-4.1663,-4.0723,-4.0296,-4.0213,-4.0114,-4.0119,-4.0139,-3.8872,-3.8268,-3.8222,-3.8111,-3.8093,-3.8144,-3.8149,-3.816,-3.8144,-3.8143,-3.8158,0.0,-3.8151,-3.8135,-3.8142,-3.826,-3.8312,-3.8319,-3.8369,-3.8026,-3.7301,-3.686,-3.5896,-3.4334,-3.3023,-3.1063,-2.8602,-2.7401,-2.6594,-2.6023,-2.5672,-2.5084,-2.4189,-2.4085,-2.3701,-2.3055,-2.3049,-2.317,-2.3271,-2.3313,-2.336,-2.3471,-2.3241,-2.3168,-2.3241,-2.3102,-2.3077,-2.3241,-2.3289,-2.3336,-2.3471,-2.3471,-2.3471,-2.3494,-2.3494,-2.3494,-2.3494,-2.3494,-2.3494,-2.3494,-2.357,-2.3825,-2.4521,-2.4771,-2.538,-2.6509,-2.6956,-2.7351,-2.8013,-2.8219,-2.8327,-2.8318,-2.8191,-2.8053,-2.776,-2.76,-2.7386,-2.712,-2.6975,-2.6842,-2.6371,-2.5947,-2.5603,-2.5494,-2.5495,-2.5748,-2.6017,-2.6166,-2.5445,-2.4608,-2.5374,-2.5839,-2.6021,-2.6085,-2.6063,-2.599,-2.6265,-2.6172,-2.5508,-2.5655,-2.539,-2.4595,-2.4276,-2.4097,-2.387,-2.3769,-2.3726,-4.3033,-4.246,-4.1942,-4.172,-4.1647,-4.1683,-4.1502,-4.1155,-4.0552,-3.9774,-3.8996,-3.8572,-3.8416,-3.8449,-3.8475,-3.8514,-3.8506,-3.8508,-3.8513,-3.8515,-3.8515,-3.8512,-3.8541,-3.8983,-3.9192,-3.9204,-3.9235,-3.9061,-3.8598,-3.7657,-3.6675,-3.5728,-3.416,-3.2319,-3.0433,-2.9375,-2.8679,-2.8301,-2.6682,-2.5547,-2.4989,-2.4471,-2.4016,-2.3649,-2.3312,-2.3182,-2.3271,-2.3336,-2.3378,-2.3383,-2.3289,-2.3217,-2.3175,-2.3151,-2.3193,-2.3307,-2.336,-2.343,-2.3494,-2.3494,-2.3494,-2.3494,-2.3494,-2.3494,-2.3448,-2.3471,-2.3695,-2.4088,-2.4159,-2.448,-2.5278,-2.5743,-2.6279,-2.6959,-2.7441,-2.7826,-2.8174,-2.8291,-2.8273,-2.8209,-2.8126,-2.7911,-2.7569,-2.7373,-2.7105,-2.6792,-2.6606,-2.6248,-2.5657,-2.531,-2.5295,-2.5508,-2.5095,-2.4929,-2.5425,-2.4811,-2.4429,-2.4456,-2.4636,-2.5081,-2.5537,-2.5811,-2.5754,-2.5766,-2.615,-2.6301,-2.5854,-2.6113,-2.5873,-2.5157,-2.4673,-2.4336,-2.3904,-2.3923,-2.4148,-4.4013,-4.328,-4.2928,-4.2737,-4.2673,-4.2736,-4.2488,-4.2002,-4.2094,-4.1492,-4.0308,-3.9384,-3.896,-3.8967,-3.9018,-3.9067,-3.9076,-3.9056,-3.9068,-3.9064,-3.9058,-3.9064,-3.9113,-3.9779,-4.0054,-4.0055,-4.0064,-3.9969,-3.9609,-3.8311,-3.7334,-3.6651,-3.4725,-3.3242,-3.2325,-3.1309,-3.066,-3.021,-2.8209,-2.6731,-2.5862,-2.5217,-2.4778,-2.454,-2.3869,-2.353,-2.3626,-2.349,-2.3383,-2.3336,-2.3313,-2.3265,-2.3193,-2.3265,-2.3313,-2.3336,-2.3448,-2.3494,-2.3494,-2.3453,-2.3453,-2.3471,-2.3631,-2.3697,-2.3626,-2.3827,-2.4082,-2.4533,-2.4746,-2.5191,-2.592,-2.6534,-2.7041,-2.7237,-2.795,-2.8449,-2.8513,-2.8675,-2.8754,-2.8614,-2.8499,-2.8328,-2.7955,-2.7652,-2.7335,-2.6838,-2.6322,-2.5763,-2.5198,-2.4827,-2.4935,-2.5281,-2.4764,-2.4457,-2.4781,-2.4207,-2.3911,-2.4645,-2.4395,-2.4684,-2.5366,-2.5535,-2.553,-2.5589,-2.6133,-2.6358,-2.6145,-2.6491,-2.6373,-2.5617,-2.5167,-2.4852,-2.4372,-2.4702,-2.5061,-4.438,-4.4049,-4.3178,-4.2637,-4.2623,-4.269,-4.2775,-4.2793,-4.2929,-4.2965,-4.2601,-4.1319,-4.0665,-4.068,-4.0746,-4.074,-4.0727,-4.0766,-4.0727,-4.0695,-4.0708,-4.0714,-4.0668,-4.0818,-4.0875,-4.085,-4.0789,-4.0388,-3.9768,-3.9293,-3.8273,-3.6514,-3.4636,-3.362,-3.3214,-3.2232,-3.1589,-3.1357,-3.0999,-2.9548,-2.7125,-2.6928,-2.6552,-2.5747,-2.5028,-2.4617,-2.4575,-2.3873,-2.3494,-2.3453,-2.3378,-2.3336,-2.3448,-2.3378,-2.3378,-2.3489,-2.3512,-2.3471,-2.3442,-2.3336,-2.3383,-2.3366,-2.4045,-2.4332,-2.4267,-2.4831,-2.4954,-2.4689,-2.5084,-2.5809,-2.6523,-2.6772,-2.7209,-2.7939,-2.866,-2.9223,-2.9323,-2.9904,-3.0238,-3.0105,-2.9757,-2.968,-2.9177,-2.8887,-2.8383,-2.7334,-2.6581,-2.5987,-2.5562,-2.4993,-2.4733,-2.5142,-2.4793,-2.481,-2.5289,-2.5501,-2.4887,-2.4478,-2.4799,-2.504,-2.5217,-2.5269,-2.531,-2.5425,-2.6107,-2.6493,-2.6295,-2.6466,-2.6965,-2.6123,-2.5727,-2.5604,-2.5541,-2.5839,-2.6198,-4.5182,-4.501,-4.4461,-4.4145,-4.4007,-4.4138,-4.394,-4.3636,-4.3744,-4.3589,-4.3153,-4.2557,-4.2315,-4.2322,-4.2343,-4.2111,-4.1665,-4.1665,-4.1354,-4.0907,-4.0849,-4.082,-4.083,-4.0811,-4.081,-4.082,-4.0751,-4.0521,-4.0101,-3.9388,-3.8338,-3.7034,-3.5704,-3.5016,-3.4821,-3.347,-3.2667,-3.2501,-3.1941,-3.102,-2.9831,-2.8682,-2.7918,-2.7421,-2.6279,-2.5607,-2.5446,-2.47,-2.4259,-2.4177,-2.3697,-2.343,-2.3494,-2.3916,-2.4141,-2.423,-2.4562,-2.4701,-2.4668,-2.4592,-2.4566,-2.46,-2.4848,-2.4989,-2.4944,-2.5527,-2.5738,-2.5444,-2.5732,-2.6317,-2.7081,-2.7291,-2.7706,-2.8488,-2.8989,-2.9373,-2.9917,-3.0219,-3.0335,-3.0145,-2.9972,-2.9777,-2.9455,-2.9102,-2.8471,-2.7557,-2.6854,-2.6372,-2.5761,-2.5234,-2.5029,-2.5051,-2.4907,-2.499,-2.5351,-2.503,-2.4826,-2.4798,-2.4627,-2.4535,-2.5012,-2.4879,-2.4916,-2.5284,-2.608,-2.665,-2.6611,-2.7025,-2.7494,-2.668,-2.595,-2.5766,-2.6108,-2.6408,-2.6677,-4.5719,-4.5586,-4.5381,-4.5197,-4.5038,-4.5148,-4.4935,-4.4518,-4.4591,-4.4363,-4.3945,-4.394,-4.3954,-4.3871,-4.3492,-4.2937,-4.2446,-4.2376,-4.2054,-4.1473,-4.1416,-4.1377,-4.1364,-4.1339,-4.1203,-4.0971,-4.0886,-4.0631,-4.0236,-3.9242,-3.8324,-3.7654,-3.6793,-3.6333,-3.6203,-3.4819,-3.4151,-3.4214,-3.3421,-3.2926,-3.2581,-3.1144,-2.9966,-2.9307,-2.7779,-2.6868,-2.6754,-2.5703,-2.5112,-2.504,-2.4462,-2.4141,-2.4135,-2.4694,-2.4973,-2.5002,-2.5321,-2.5526,-2.5446,-2.5382,-2.5355,-2.5427,-2.5687,-2.5946,-2.6017,-2.664,-2.7023,-2.6869,-2.6914,-2.7282,-2.7625,-2.7997,-2.8504,-2.9105,-2.9396,-2.9867,-3.0427,-3.0688,-3.0835,-3.0602,-3.0626,-3.0214,-2.986,-2.9374,-2.872,-2.8097,-2.7394,-2.6831,-2.6135,-2.5815,-2.5621,-2.5425,-2.5513,-2.556,-2.5336,-2.4952,-2.477,-2.4882,-2.4687,-2.4469,-2.4855,-2.4723,-2.4751,-2.5335,-2.5995,-2.6489,-2.6732,-2.7337,-2.7849,-2.7188,-2.6609,-2.6369,-2.6864,-2.692,-2.7115,-4.5715,-4.5563,-4.538,-4.5235,-4.5103,-4.517,-4.526,-4.5266,-4.5435,-4.5555,-4.5534,-4.5519,-4.553,-4.5321,-4.395,-4.3206,-4.3139,-4.3065,-4.2977,-4.2842,-4.2813,-4.289,-4.2977,-4.2929,-4.2396,-4.1577,-4.1416,-4.0862,-3.9889,-3.9037,-3.8561,-3.8392,-3.7551,-3.7197,-3.7109,-3.6217,-3.6177,-3.6569,-3.5904,-3.5514,-3.5343,-3.4545,-3.3072,-3.1403,-2.96,-2.8621,-2.8286,-2.6849,-2.5953,-2.5936,-2.57,-2.564,-2.5658,-2.5711,-2.5714,-2.5709,-2.5544,-2.5417,-2.5404,-2.5408,-2.5351,-2.5426,-2.6636,-2.7334,-2.723,-2.82,-2.8733,-2.8721,-2.8533,-2.8505,-2.8339,-2.8767,-2.9332,-2.9673,-3.0332,-3.0766,-3.1144,-3.1635,-3.2091,-3.1882,-3.1566,-3.1087,-3.0779,-3.0135,-2.9393,-2.8787,-2.791,-2.6989,-2.6733,-2.6545,-2.6389,-2.6447,-2.6622,-2.6798,-2.5646,-2.5233,-2.5178,-2.5162,-2.5013,-2.4704,-2.4833,-2.4973,-2.5145,-2.5477,-2.6291,-2.6824,-2.6937,-2.7203,-2.7625,-2.7579,-2.7599,-2.7534,-2.7573,-2.7705,-2.7795,-4.5708,-4.5596,-4.5476,-4.54,-4.5361,-4.5341,-4.54,-4.553,-4.5531,-4.562,-4.5735,-4.5715,-4.5665,-4.5539,-4.4944,-4.4335,-4.3805,-4.375,-4.3425,-4.2909,-4.2776,-4.2776,-4.2756,-4.2618,-4.2402,-4.2072,-4.1863,-4.1192,-4.0124,-3.9294,-3.8883,-3.884,-3.8257,-3.7981,-3.7983,-3.7308,-3.7043,-3.7265,-3.6979,-3.6785,-3.6641,-3.5818,-3.4909,-3.4024,-3.1722,-3.0143,-2.9457,-2.8279,-2.7378,-2.6742,-2.6215,-2.5904,-2.5854,-2.6249,-2.6686,-2.6975,-2.6865,-2.6643,-2.6593,-2.6871,-2.7066,-2.7166,-2.7994,-2.8561,-2.8545,-2.885,-2.8994,-2.8932,-2.9206,-2.9261,-2.9205,-2.9185,-2.9451,-3.0126,-3.0507,-3.0993,-3.1462,-3.1809,-3.1912,-3.1696,-3.1222,-3.0391,-2.9799,-2.9115,-2.8671,-2.813,-2.7503,-2.7137,-2.6978,-2.6792,-2.6925,-2.7195,-2.7486,-2.7502,-2.7138,-2.627,-2.5791,-2.5441,-2.5195,-2.5098,-2.5108,-2.5687,-2.5947,-2.5998,-2.6687,-2.7235,-2.7379,-2.7591,-2.794,-2.7989,-2.8039,-2.8088,-2.8137,-2.8088,-2.8088,-4.5727,-4.5632,-4.5545,-4.5531,-4.5532,-4.5457,-4.5493,-4.558,-4.5547,-4.5601,-4.5684,-4.5665,-4.5616,-4.5528,-4.5438,-4.5033,-4.4374,-4.4355,-4.3988,-4.339,-4.3304,-4.3259,-4.3232,-4.3032,-4.2781,-4.2403,-4.1694,-4.0924,-4.0126,-3.9349,-3.9045,-3.9127,-3.8814,-3.8766,-3.8814,-3.8201,-3.7919,-3.8088,-3.7955,-3.7783,-3.7643,-3.7062,-3.6344,-3.5483,-3.3685,-3.2045,-3.0789,-2.9849,-2.8941,-2.8029,-2.742,-2.71,-2.7076,-2.7628,-2.8145,-2.8505,-2.832,-2.81,-2.7973,-2.8254,-2.8459,-2.851,-2.916,-2.9568,-2.9479,-2.9553,-2.9538,-2.9592,-2.9978,-3.0373,-3.0363,-3.0337,-3.048,-3.0959,-3.111,-3.1439,-3.2158,-3.2334,-3.2192,-3.1764,-3.0992,-3.0062,-2.9382,-2.9254,-2.8998,-2.8357,-2.8064,-2.7822,-2.7728,-2.7683,-2.7702,-2.8144,-2.8502,-2.8502,-2.8266,-2.7648,-2.705,-2.6607,-2.6222,-2.5923,-2.577,-2.638,-2.6715,-2.6719,-2.7041,-2.7542,-2.7908,-2.8042,-2.8217,-2.8314,-2.8332,-2.8332,-2.8396,-2.8429,-2.8429,-4.5765,-4.57,-4.5613,-4.5618,-4.5586,-4.5531,-4.5549,-4.5599,-4.5584,-4.5601,-4.5668,-4.5637,-4.5531,-4.54,-4.5279,-4.5023,-4.4776,-4.4738,-4.47,-4.4569,-4.4511,-4.4504,-4.444,-4.413,-4.3633,-4.2901,-4.11,-4.0154,-3.9965,-3.9405,-3.9128,-3.9166,-3.9338,-3.9425,-3.9656,-3.9012,-3.9058,-3.9378,-3.898,-3.8658,-3.8596,-3.8335,-3.7464,-3.6063,-3.538,-3.4268,-3.2492,-3.1474,-3.0487,-2.9737,-2.9539,-2.9529,-2.9392,-2.9763,-3.0132,-2.9937,-2.9704,-2.9471,-2.9317,-2.9212,-2.9157,-2.924,-2.9907,-3.0292,-3.0277,-3.0695,-3.0948,-3.0874,-3.1258,-3.1724,-3.1807,-3.2183,-3.2386,-3.2219,-3.2114,-3.2442,-3.3,-3.333,-3.3059,-3.2059,-3.1139,-3.0749,-3.0608,-3.0128,-2.9814,-2.9798,-2.9433,-2.8996,-2.8933,-2.8926,-2.9091,-2.9247,-2.9419,-2.9526,-2.9329,-2.9059,-2.851,-2.7972,-2.7598,-2.7246,-2.692,-2.7193,-2.7451,-2.7503,-2.7736,-2.8196,-2.8321,-2.8506,-2.8724,-2.8836,-2.8728,-2.8839,-2.8997,-2.906,-2.8747,-4.5715,-4.57,-4.5665,-4.5684,-4.5651,-4.5584,-4.5603,-4.5654,-4.5586,-4.553,-4.5566,-4.5586,-4.5477,-4.5279,-4.5132,-4.4905,-4.4659,-4.4551,-4.4505,-4.4551,-4.443,-4.4327,-4.424,-4.403,-4.3661,-4.3082,-4.1946,-4.1314,-4.1055,-4.0165,-3.9716,-3.9872,-3.9689,-3.9642,-3.9777,-3.9558,-3.964,-3.9794,-3.9621,-3.9488,-3.9413,-3.8858,-3.8162,-3.7451,-3.6248,-3.5106,-3.432,-3.2803,-3.1565,-3.0631,-3.0513,-3.0448,-3.036,-3.0356,-3.03,-3.0033,-2.9725,-2.9472,-2.9349,-2.9632,-2.981,-2.9926,-3.0523,-3.1089,-3.1392,-3.1597,-3.1901,-3.2074,-3.2337,-3.2392,-3.2486,-3.2679,-3.2911,-3.273,-3.2739,-3.2882,-3.3184,-3.3211,-3.2513,-3.1399,-3.0866,-3.0451,-2.9928,-2.9566,-2.9582,-2.9814,-2.9317,-2.9019,-2.9327,-2.9468,-2.9617,-2.9972,-3.0236,-3.0309,-2.9996,-2.9799,-2.9502,-2.9066,-2.8705,-2.8301,-2.8046,-2.8033,-2.8237,-2.8355,-2.8592,-2.8763,-2.8872,-2.9186,-2.95,-2.9706,-2.9848,-2.9927,-2.9911,-2.9769,-2.9595,-4.568,-4.568,-4.568,-4.568,-4.568,-4.5654,-4.5657,-4.5693,-4.5586,-4.5513,-4.5513,-4.5533,-4.538,-4.517,-4.4976,-4.4758,-4.4505,-4.4344,-4.4255,-4.4266,-4.4128,-4.4017,-4.3892,-4.3646,-4.3391,-4.3068,-4.2323,-4.194,-4.1955,-4.1029,-4.0596,-4.0671,-4.0282,-4.0107,-4.0104,-3.9863,-3.9758,-3.9762,-3.9739,-3.9758,-3.9709,-3.9271,-3.8769,-3.8221,-3.7106,-3.6136,-3.5283,-3.3973,-3.2739,-3.1728,-3.1372,-3.1247,-3.1112,-3.1212,-3.1168,-3.0944,-3.0696,-3.0439,-3.0261,-3.056,-3.0764,-3.1031,-3.1438,-3.1935,-3.2378,-3.2479,-3.2705,-3.2894,-3.3184,-3.3245,-3.3306,-3.3634,-3.3779,-3.3868,-3.3661,-3.3661,-3.3778,-3.3573,-3.3094,-3.2224,-3.1732,-3.1191,-3.0684,-3.0344,-2.9996,-3.0179,-2.9864,-2.9665,-3.0063,-2.9996,-3.0344,-3.0559,-3.0534,-3.0551,-3.0485,-3.0435,-3.0452,-3.0137,-2.9781,-2.93,-2.8941,-2.9113,-2.9303,-2.9204,-2.9354,-2.9751,-2.9941,-3.0449,-3.0815,-3.0926,-3.0989,-3.102,-3.0988,-3.0844,-3.0685,-4.568,-4.568,-4.568,-4.57,-4.5684,-4.569,-4.5673,-4.5673,-4.5603,-4.555,-4.5476,-4.5438,-4.5297,-4.508,-4.4821,-4.4587,-4.4383,-4.4255,-4.4104,-4.3979,-4.3851,-4.3786,-4.3615,-4.3375,-4.3196,-4.2923,-4.2431,-4.2192,-4.2262,-4.1783,-4.1605,-4.1601,-4.1127,-4.0854,-4.0722,-4.0077,-3.9758,-3.9951,-3.9801,-3.9768,-3.984,-3.9802,-3.935,-3.8493,-3.801,-3.7147,-3.5898,-3.5082,-3.4014,-3.2573,-3.2155,-3.2026,-3.2013,-3.2478,-3.2563,-3.2294,-3.2266,-3.1933,-3.1787,-3.1691,-3.185,-3.2258,-3.2457,-3.2812,-3.3313,-3.338,-3.3379,-3.3493,-3.3902,-3.422,-3.4354,-3.4751,-3.5119,-3.5249,-3.4706,-3.4673,-3.5227,-3.4605,-3.3996,-3.3751,-3.3278,-3.2741,-3.2558,-3.2459,-3.216,-3.1868,-3.1586,-3.147,-3.1404,-3.1205,-3.1106,-3.1156,-3.1222,-3.1222,-3.1305,-3.1305,-3.1338,-3.1246,-3.0846,-3.0389,-2.988,-2.9973,-3.0157,-3.0077,-3.0306,-3.0661,-3.1062,-3.153,-3.1853,-3.2028,-3.2028,-3.2075,-3.1978,-3.1816,-3.1637,-4.5637,-4.5637,-4.562,-4.5637,-4.562,-4.564,-4.562,-4.5622,-4.5603,-4.5531,-4.5438,-4.5419,-4.5254,-4.4962,-4.4719,-4.4524,-4.4325,-4.4147,-4.3992,-4.3897,-4.3837,-4.3671,-4.3481,-4.3286,-4.3196,-4.3141,-4.2976,-4.3045,-4.3143,-4.2585,-4.2402,-4.2534,-4.1885,-4.1557,-4.148,-4.067,-4.0614,-4.0977,-4.0574,-4.0364,-4.0422,-4.0478,-4.0126,-3.9226,-3.8408,-3.778,-3.7072,-3.6182,-3.4848,-3.3255,-3.2967,-3.2865,-3.2724,-3.2827,-3.2787,-3.2573,-3.2422,-3.2214,-3.2159,-3.2466,-3.2769,-3.2823,-3.3333,-3.3796,-3.4423,-3.4278,-3.4401,-3.4684,-3.5009,-3.511,-3.5189,-3.5526,-3.5718,-3.5739,-3.5493,-3.5261,-3.5283,-3.5124,-3.4777,-3.4242,-3.3957,-3.3768,-3.3606,-3.3278,-3.3001,-3.3006,-3.2729,-3.2415,-3.2332,-3.2166,-3.1967,-3.2166,-3.2249,-3.2199,-3.2183,-3.2183,-3.2216,-3.2266,-3.194,-3.1467,-3.0964,-3.0637,-3.0745,-3.0819,-3.1326,-3.1795,-3.2055,-3.2396,-3.2702,-3.3043,-3.3027,-3.3027,-3.2847,-3.2667,-3.2406,-4.5586,-4.5586,-4.5586,-4.5586,-4.5586,-4.5586,-4.5586,-4.5586,-4.5586,-4.5513,-4.5438,-4.5419,-4.5213,-4.4919,-4.4738,-4.4524,-4.4325,-4.4147,-4.4023,-4.3897,-4.3818,-4.3652,-4.3481,-4.3358,-4.3356,-4.3408,-4.3408,-4.3511,-4.3609,-4.3315,-4.3225,-4.315,-4.259,-4.2247,-4.2172,-4.1332,-4.1033,-4.1407,-4.1109,-4.0989,-4.1035,-4.0806,-4.0431,-3.978,-3.8939,-3.8256,-3.755,-3.6515,-3.5399,-3.4393,-3.3934,-3.3625,-3.343,-3.3077,-3.282,-3.269,-3.2855,-3.2931,-3.295,-3.3403,-3.3888,-3.4085,-3.4436,-3.4852,-3.5349,-3.5369,-3.553,-3.6151,-3.6259,-3.6457,-3.6695,-3.6898,-3.7004,-3.71,-3.687,-3.639,-3.5712,-3.5549,-3.5318,-3.4936,-3.4712,-3.4638,-3.4485,-3.4022,-3.3844,-3.3719,-3.3375,-3.3226,-3.3127,-3.2945,-3.2862,-3.3044,-3.2928,-3.2729,-3.2663,-3.2663,-3.2729,-3.2812,-3.2978,-3.2531,-3.2095,-3.16,-3.1605,-3.1843,-3.24,-3.2779,-3.3023,-3.3332,-3.382,-3.4065,-3.4001,-3.4001,-3.387,-3.3691,-3.3379,-4.5586,-4.5586,-4.5586,-4.5586,-4.5586,-4.5586,-4.5586,-4.5586,-4.5586,-4.5531,-4.5438,-4.5419,-4.5256,-4.501,-4.4815,-4.4587,-4.443,-4.4285,-4.4104,-4.3979,-4.3883,-4.3734,-4.3615,-4.3532,-4.3548,-4.3563,-4.3597,-4.3615,-4.3631,-4.3712,-4.3795,-4.3573,-4.3063,-4.2841,-4.2575,-4.1878,-4.1527,-4.1693,-4.1613,-4.1533,-4.1512,-4.1231,-4.0868,-4.0393,-3.9602,-3.8586,-3.7607,-3.6729,-3.61,-3.5795,-3.4932,-3.4404,-3.4166,-3.3491,-3.3226,-3.3268,-3.3732,-3.3932,-3.397,-3.4517,-3.5097,-3.5475,-3.5584,-3.5971,-3.6481,-3.6565,-3.6792,-3.7551,-3.7664,-3.7879,-3.8286,-3.8572,-3.8503,-3.846,-3.8538,-3.7836,-3.6766,-3.6103,-3.5902,-3.5667,-3.5498,-3.5379,-3.5182,-3.5055,-3.4838,-3.425,-3.3988,-3.3955,-3.3839,-3.3673,-3.3707,-3.3856,-3.3557,-3.3094,-3.3077,-3.3077,-3.3176,-3.3292,-3.3673,-3.3557,-3.3226,-3.2854,-3.2722,-3.2875,-3.3324,-3.3573,-3.3769,-3.4178,-3.4686,-3.4951,-3.4903,-3.5033,-3.5114,-3.487,-3.4622,-4.5586,-4.5586,-4.5586,-4.5586,-4.5586,-4.5586,-4.5586,-4.5586,-4.5586,-4.555,-4.5476,-4.5419,-4.5317,-4.5148,-4.4895,-4.4712,-4.4532,-4.443,-4.4285,-4.4135,-4.3992,-4.3961,-4.3846,-4.3786,-4.3667,-4.3631,-4.3597,-4.3529,-4.3461,-4.3426,-4.3426,-4.3387,-4.3243,-4.3135,-4.2986,-4.2381,-4.2205,-4.2606,-4.2359,-4.2128,-4.2207,-4.2125,-4.1723,-4.107,-4.021,-3.9239,-3.8342,-3.7834,-3.7546,-3.707,-3.6139,-3.5337,-3.5005,-3.474,-3.4561,-3.4563,-3.4724,-3.4869,-3.4942,-3.5474,-3.5989,-3.6072,-3.6541,-3.7062,-3.78,-3.7743,-3.7986,-3.8579,-3.8754,-3.8919,-3.9241,-3.9196,-3.9301,-3.9353,-3.9283,-3.9066,-3.851,-3.769,-3.6852,-3.6249,-3.6007,-3.5728,-3.5388,-3.5345,-3.5102,-3.4714,-3.4634,-3.4634,-3.4551,-3.4435,-3.4618,-3.4816,-3.4518,-3.4203,-3.4419,-3.4419,-3.4419,-3.4452,-3.4684,-3.4601,-3.427,-3.4104,-3.3958,-3.3991,-3.4203,-3.4355,-3.4325,-3.4686,-3.5081,-3.5413,-3.576,-3.5926,-3.5992,-3.5876,-3.581,-4.5586,-4.5586,-4.5586,-4.5586,-4.5586,-4.5586,-4.5586,-4.5586,-4.5586,-4.5549,-4.5495,-4.5438,-4.5339,-4.5254,-4.5014,-4.487,-4.4693,-4.4524,-4.4373,-4.4226,-4.4135,-4.4055,-4.3929,-4.38,-4.3649,-4.3579,-4.3461,-4.3303,-4.3196,-4.3124,-4.3142,-4.3196,-4.316,-4.316,-4.3214,-4.2794,-4.2777,-4.3032,-4.2903,-4.2752,-4.2768,-4.2518,-4.2032,-4.1282,-4.062,-4.0017,-3.9519,-3.9329,-3.8939,-3.8366,-3.7576,-3.6629,-3.5809,-3.5418,-3.5239,-3.5239,-3.5614,-3.5704,-3.5901,-3.6399,-3.688,-3.6825,-3.7423,-3.7898,-3.8408,-3.8571,-3.9147,-3.9669,-3.9933,-4.0063,-4.0493,-4.0574,-4.0581,-4.0546,-4.0553,-4.0369,-3.988,-3.8919,-3.8044,-3.7369,-3.7254,-3.6922,-3.6514,-3.6025,-3.5685,-3.5461,-3.4916,-3.4932,-3.5413,-3.5363,-3.5678,-3.5777,-3.5545,-3.5495,-3.5827,-3.5926,-3.5926,-3.5976,-3.6075,-3.5777,-3.5346,-3.5263,-3.5197,-3.5065,-3.4816,-3.4717,-3.48,-3.5114,-3.5495,-3.5794,-3.6174,-3.6622,-3.682,-3.6638,-3.6589,-4.5586,-4.5586,-4.5586,-4.5586,-4.5586,-4.5586,-4.5586,-4.5586,-4.5586,-4.5568,-4.5513,-4.5438,-4.538,-4.5319,-4.5192,-4.5057,-4.4865,-4.4632,-4.4458,-4.4314,-4.4195,-4.4073,-4.3915,-4.3716,-4.3529,-4.3477,-4.3286,-4.3069,-4.292,-4.2882,-4.288,-4.2992,-4.303,-4.3012,-4.305,-4.3123,-4.3032,-4.3032,-4.3051,-4.3014,-4.3032,-4.2575,-4.2006,-4.1296,-4.1045,-4.0741,-4.0418,-4.0239,-3.9968,-3.9301,-3.9137,-3.8275,-3.7184,-3.6078,-3.5578,-3.565,-3.6292,-3.6667,-3.6934,-3.7416,-3.7826,-3.7916,-3.8429,-3.8872,-3.9135,-3.9593,-4.0192,-4.0683,-4.1038,-4.1233,-4.1924,-4.1853,-4.1888,-4.1924,-4.1948,-4.164,-4.0905,-3.9972,-3.9338,-3.8484,-3.8019,-3.7614,-3.7222,-3.6766,-3.6487,-3.6124,-3.561,-3.5379,-3.5876,-3.6224,-3.6456,-3.6539,-3.629,-3.6191,-3.6489,-3.697,-3.7036,-3.7003,-3.7168,-3.6854,-3.639,-3.6224,-3.6025,-3.5495,-3.5247,-3.5297,-3.5495,-3.5909,-3.6191,-3.6324,-3.6754,-3.7367,-3.7466,-3.735,-3.74,-4.5586,-4.5586,-4.5586,-4.5586,-4.5586,-4.5586,-4.5586,-4.5586,-4.5586,-4.5586,-4.5568,-4.5513,-4.5476,-4.5419,-4.5319,-4.5148,-4.4919,-4.4712,-4.4524,-4.4383,-4.4255,-4.4123,-4.3883,-4.3615,-4.341,-4.3142,-4.2957,-4.2824,-4.2667,-4.2566,-4.2645,-4.2606,-4.2667,-4.2727,-4.2804,-4.2862,-4.2862,-4.2824,-4.2882,-4.2956,-4.2864,-4.2776,-4.2487,-4.176,-4.1597,-4.1252,-4.0673,-4.0326,-4.0088,-3.996,-3.983,-3.9595,-3.8933,-3.7844,-3.7273,-3.7238,-3.7399,-3.7756,-3.8219,-3.8449,-3.893,-3.934,-3.959,-4.0,-4.041,-4.0766,-4.1154,-4.1635,-4.192,-4.2085,-4.2228,-4.224,-4.2222,-4.2205,-4.2103,-4.1948,-4.1584,-4.1042,-4.0165,-3.9112,-3.8545,-3.8227,-3.793,-3.7602,-3.722,-3.6887,-3.6489,-3.639,-3.6754,-3.6936,-3.7036,-3.7052,-3.697,-3.6936,-3.7003,-3.7599,-3.7914,-3.7799,-3.7833,-3.7799,-3.7418,-3.7102,-3.6771,-3.6373,-3.6274,-3.6423,-3.6622,-3.6754,-3.7052,-3.7284,-3.7731,-3.8195,-3.8212,-3.8212,-3.8311,-4.5586,-4.5586,-4.5586,-4.5586,-4.5586,-4.5586,-4.5586,-4.5586,-4.5586,-4.5586,-4.5586,-4.555,-4.5495,-4.5476,-4.5381,-4.5239,-4.5061,-4.4865,-4.4667,-4.4496,-4.4344,-4.4123,-4.3851,-4.36,-4.3304,-4.2995,-4.2806,-4.2631,-4.2427,-4.2387,-4.2463,-4.2503,-4.2526,-4.2548,-4.2609,-4.267,-4.267,-4.2631,-4.267,-4.2709,-4.2688,-4.2822,-4.2589,-4.2371,-4.2208,-4.1951,-4.1659,-4.1435,-4.1142,-4.0781,-4.056,-4.0307,-3.9843,-3.9361,-3.879,-3.879,-3.8756,-3.8899,-3.9307,-3.9394,-3.9533,-3.986,-4.0253,-4.0646,-4.1092,-4.1431,-4.1841,-4.2126,-4.2287,-4.2287,-4.2287,-4.2287,-4.2287,-4.2287,-4.2163,-4.1977,-4.1762,-4.148,-4.0568,-3.9593,-3.9412,-3.9188,-3.8807,-3.8404,-3.7935,-3.7584,-3.7334,-3.745,-3.7649,-3.7682,-3.7715,-3.7914,-3.7914,-3.7798,-3.7814,-3.8162,-3.856,-3.8496,-3.8448,-3.8363,-3.8314,-3.7963,-3.7715,-3.7433,-3.745,-3.74,-3.7284,-3.7268,-3.7748,-3.8195,-3.8477,-3.8742,-3.8974,-3.9106,-3.9056,-4.5586,-4.5586,-4.5586,-4.5586,-4.5586,-4.5586,-4.5586,-4.5586,-4.5586,-4.5586,-4.5586,-4.555,-4.5532,-4.5495,-4.5438,-4.5361,-4.5256,-4.501,-4.477,-4.4551,-4.4373,-4.4135,-4.3851,-4.36,-4.3375,-4.3069,-4.2806,-4.253,-4.2369,-4.2328,-4.2346,-4.2445,-4.2463,-4.2486,-4.253,-4.2609,-4.257,-4.257,-4.257,-4.2588,-4.2588,-4.2588,-4.2588,-4.2588,-4.257,-4.2534,-4.2332,-4.2253,-4.1998,-4.164,-4.1386,-4.1149,-4.0578,-4.0435,-4.0417,-4.0381,-4.0134,-4.0006,-4.0146,-4.0174,-4.0259,-4.0663,-4.1038,-4.127,-4.1448,-4.1877,-4.2234,-4.2287,-4.2287,-4.2287,-4.2287,-4.2287,-4.2287,-4.2246,-4.2121,-4.1952,-4.1648,-4.1272,-4.0836,-4.0312,-4.0288,-3.9851,-3.9292,-3.907,-3.8565,-3.8446,-3.8195,-3.8195,-3.8377,-3.8411,-3.8526,-3.8874,-3.8941,-3.8742,-3.8709,-3.8742,-3.8974,-3.8994,-3.8927,-3.8877,-3.8877,-3.8775,-3.851,-3.8245,-3.8146,-3.8046,-3.7897,-3.7897,-3.8361,-3.8758,-3.904,-3.9189,-3.9206,-3.9222,-3.9189,-4.5586,-4.5586,-4.5603,-4.5586,-4.5603,-4.5603,-4.5603,-4.5603,-4.5603,-4.5586,-4.5586,-4.5605,-4.5586,-4.5568,-4.5438,-4.5321,-4.5173,-4.4991,-4.477,-4.4524,-4.4373,-4.4165,-4.3897,-4.3682,-4.3495,-4.3214,-4.2995,-4.267,-4.245,-4.2369,-4.2287,-4.2346,-4.2445,-4.2445,-4.2409,-4.249,-4.2508,-4.2409,-4.2427,-4.2486,-4.2486,-4.2486,-4.2486,-4.2486,-4.2503,-4.2486,-4.2409,-4.2387,-4.2244,-4.2226,-4.2248,-4.2266,-4.2235,-4.2261,-4.2239,-4.1765,-4.0985,-4.021,-4.082,-4.0976,-4.1167,-4.1591,-4.1966,-4.2126,-4.2091,-4.2109,-4.2287,-4.2287,-4.2287,-4.2287,-4.2287,-4.2287,-4.2287,-4.2264,-4.2139,-4.1823,-4.1498,-4.1198,-4.0758,-4.032,-4.0087,-3.9833,-3.9404,-3.9332,-3.9209,-3.9176,-3.909,-3.9023,-3.8974,-3.8941,-3.8941,-3.9172,-3.9288,-3.9106,-3.9056,-3.9172,-3.9222,-3.9288,-3.9255,-3.9206,-3.9139,-3.909,-3.9156,-3.8924,-3.8791,-3.8709,-3.8659,-3.8758,-3.9056,-3.9156,-3.9206,-3.9239,-3.9272,-3.9272,-3.9202,-4.5703,-4.5703,-4.5722,-4.5703,-4.5722,-4.5703,-4.569,-4.5657,-4.5676,-4.564,-4.5603,-4.5586,-4.5586,-4.5568,-4.5476,-4.538,-4.5256,-4.5014,-4.477,-4.4551,-4.4373,-4.4165,-4.3929,-4.3767,-4.3582,-4.341,-4.3196,-4.2938,-4.2688,-4.2468,-4.2387,-4.2328,-4.2346,-4.2369,-4.2287,-4.2351,-4.2369,-4.2328,-4.2328,-4.2405,-4.2405,-4.2387,-4.2427,-4.2486,-4.2503,-4.2486,-4.249,-4.249,-4.253,-4.257,-4.2645,-4.2667,-4.2727,-4.2729,-4.2729,-4.2637,-4.207,-4.1719,-4.1774,-4.1765,-4.1961,-4.2162,-4.2287,-4.2251,-4.2287,-4.2287,-4.2287,-4.2287,-4.2287,-4.2287,-4.2287,-4.2287,-4.2287,-4.2264,-4.2115,-4.178,-4.1453,-4.1105,-4.0728,-4.0288,-3.9884,-3.9694,-3.9484,-3.9379,-3.9292,-3.9276,-3.9242,-3.9172,-3.9156,-3.9156,-3.9172,-3.9239,-3.9288,-3.9239,-3.9222,-3.9255,-3.9239,-3.9288,-3.9288,-3.9255,-3.9272,-3.9272,-3.9288,-3.9288,-3.9106,-3.9123,-3.9288,-3.9255,-3.9206,-3.9239,-3.9272,-3.9288,-3.9288,-3.9148,-3.9023,-4.5838,-4.5852,-4.5805,-4.5795,-4.581,-4.581,-4.5765,-4.5742,-4.5742,-4.569,-4.564,-4.5622,-4.5586,-4.555,-4.5457,-4.538,-4.5317,-4.5057,-4.4789,-4.4578,-4.4354,-4.4147,-4.3961,-4.3832,-4.3734,-4.36,-4.3393,-4.316,-4.2938,-4.2745,-4.2526,-4.2346,-4.2346,-4.2328,-4.2287,-4.2328,-4.2287,-4.2287,-4.2287,-4.2328,-4.2369,-4.2382,-4.2463,-4.2544,-4.2624,-4.2627,-4.2688,-4.2709,-4.2747,-4.2786,-4.2918,-4.2975,-4.2995,-4.3032,-4.3032,-4.2995,-4.2683,-4.251,-4.2386,-4.232,-4.2328,-4.2287,-4.2287,-4.2287,-4.2287,-4.2287,-4.2287,-4.2287,-4.2287,-4.2287,-4.2287,-4.2287,-4.2287,-4.2205,-4.2097,-4.178,-4.1453,-4.1105,-4.0728,-4.0238,-3.9884,-3.9677,-3.9537,-3.9395,-3.9342,-3.9342,-3.9288,-3.9288,-3.9288,-3.9288,-3.9288,-3.9288,-3.9288,-3.9288,-3.9288,-3.9288,-3.9288,-3.9288,-3.9288,-3.9288,-3.9288,-3.9288,-3.9288,-3.9288,-3.9288,-3.9288,-3.9288,-3.9288,-3.9288,-3.9288,-3.9288,-3.9288,-3.9272,-3.904,-3.8733,-4.5925,-4.5975,-4.5867,-4.5814,-4.5814,-4.58,-4.5805,-4.5781,-4.5781,-4.5754,-4.5693,-4.5659,-4.5586,-4.5513,-4.5457,-4.5341,-4.5213,-4.4991,-4.4764,-4.4551,-4.4354,-4.4177,-4.4023,-4.3929,-4.3865,-4.38,-4.36,-4.3393,-4.316,-4.288,-4.2667,-4.2486,-4.2387,-4.2328,-4.2287,-4.2287,-4.2287,-4.2287,-4.2328,-4.2409,-4.2486,-4.2521,-4.2656,-4.2745,-4.2842,-4.29,-4.29,-4.2957,-4.2995,-4.3032,-4.316,-4.325,-4.3286,-4.3356,-4.3356,-4.3286,-4.3105,-4.292,-4.2729,-4.253,-4.2445,-4.2346,-4.2287,-4.2287,-4.2287,-4.2287,-4.2287,-4.2287,-4.2287,-4.2287,-4.2287,-4.2287,-4.2287,-4.2246,-4.2097,-4.1823,-4.1471,-4.1105,-4.068,-4.0238,-3.9935,-3.9729,-3.959,-3.9501,-3.9342,-3.9325,-3.9288,-3.9288,-3.9288,-3.9288,-3.9288,-3.9288,-3.9288,-3.9288,-3.9288,-3.9288,-3.9288,-3.9288,-3.9288,-3.9288,-3.9288,-3.9288,-3.9288,-3.9288,-3.9288,-3.9288,-3.9288,-3.9288,-3.9288,-3.9288,-3.9288,-3.9272,-3.911,-3.8876,-3.8511,-4.5994,-4.6047,-4.5998,-4.5977,-4.6003,-4.596,-4.5905,-4.5874,-4.5819,-4.5765,-4.5709,-4.5676,-4.5622,-4.555,-4.5438,-4.5361,-4.5235,-4.4991,-4.4764,-4.4542,-4.4344,-4.4177,-4.4036,-4.3974,-4.3942,-4.3929,-4.3767,-4.3566,-4.3375,-4.3013,-4.2765,-4.257,-4.244,-4.2328,-4.2287,-4.2412,-4.2435,-4.2417,-4.244,-4.2508,-4.2555,-4.2727,-4.2858,-4.3031,-4.3105,-4.3178,-4.3268,-4.3304,-4.3321,-4.3373,-4.3442,-4.3529,-4.3582,-4.3634,-4.3634,-4.3548,-4.3339,-4.3105,-4.2882,-4.2649,-4.2445,-4.2346,-4.2287,-4.2287,-4.2287,-4.2287,-4.2287,-4.2287,-4.2287,-4.2287,-4.2287,-4.2287,-4.2287,-4.2264,-4.2097,-4.1841,-4.1471,-4.1105,-4.0776,-4.0288,-4.0037,-3.9849,-3.9694,-3.959,-3.9432,-3.9325,-3.9325,-3.9288,-3.9288,-3.9288,-3.9288,-3.9288,-3.9288,-3.9288,-3.9288,-3.9288,-3.9288,-3.9288,-3.9288,-3.9288,-3.9288,-3.9288,-3.9288,-3.9288,-3.9288,-3.9288,-3.9288,-3.9288,-3.9288,-3.9288,-3.9272,-3.9218,-3.8985,-3.8711,-3.8359,-4.6037,-4.6111,-4.6115,-4.6127,-4.6113,-4.6047,-4.6007,-4.5972,-4.5893,-4.5786,-4.5742,-4.5709,-4.564,-4.5568,-4.5457,-4.5321,-4.5194,-4.4991,-4.4764,-4.4542,-4.4344,-4.4177,-4.4067,-4.4005,-4.3974,-4.3974,-4.3832,-4.3686,-4.3444,-4.3069,-4.3023,-4.2951,-4.2785,-4.2739,-4.2751,-4.2935,-4.3048,-4.3148,-4.327,-4.3415,-4.3572,-4.3757,-4.398,-4.4108,-4.405,-4.3936,-4.3897,-4.3821,-4.3634,-4.3664,-4.3697,-4.3781,-4.3832,-4.3851,-4.3869,-4.3719,-4.3513,-4.3196,-4.2957,-4.2688,-4.2405,-4.2287,-4.2287,-4.2287,-4.2287,-4.2287,-4.2287,-4.2287,-4.2287,-4.2287,-4.2287,-4.2287,-4.2246,-4.2205,-4.2012,-4.1754,-4.1426,-4.1059,-4.0728,-4.0387,-4.0138,-3.9901,-3.9746,-3.9642,-3.9484,-3.9325,-3.9325,-3.9288,-3.9288,-3.9288,-3.9288,-3.9288,-3.9288,-3.9288,-3.9288,-3.9288,-3.9288,-3.9288,-3.9288,-3.9288,-3.9288,-3.9288,-3.9288,-3.9288,-3.9288,-3.9288,-3.9288,-3.9288,-3.9288,-3.9288,-3.9272,-3.9218,-3.8914,-3.8694,-3.8319,-4.6047,-4.6115,-4.617,-4.619,-4.6176,-4.6115,-4.6102,-4.6095,-4.6016,-4.5905,-4.5781,-4.5722,-4.562,-4.5531,-4.5438,-4.5341,-4.5213,-4.501,-4.4764,-4.4524,-4.4354,-4.4158,-4.4067,-4.4005,-4.4005,-4.3974,-4.3832,-4.3686,-4.3479,-4.3269,-4.333,-4.3616,-4.3668,-4.3614,-4.3572,-4.4324,-4.4755,-4.4903,-4.4939,-4.5051,-4.5187,-4.5315,-4.548,-4.5421,-4.5173,-4.4949,-4.4857,-4.4572,-4.442,-4.4364,-4.4355,-4.4387,-4.4369,-4.4233,-4.4096,-4.398,-4.3532,-4.3196,-4.2976,-4.2534,-4.2369,-4.2287,-4.2287,-4.2246,-4.2287,-4.2287,-4.2246,-4.2205,-4.2246,-4.2246,-4.2287,-4.2287,-4.2205,-4.2079,-4.1927,-4.1648,-4.1318,-4.0965,-4.0631,-4.0387,-4.0155,-3.9918,-3.9798,-3.9694,-3.9484,-3.9379,-3.9342,-3.9288,-3.9342,-3.9288,-3.9288,-3.9288,-3.9288,-3.9288,-3.9288,-3.9288,-3.9288,-3.9288,-3.9288,-3.9288,-3.9288,-3.9288,-3.9288,-3.9288,-3.9288,-3.9288,-3.9288,-3.9288,-3.9288,-3.9288,-3.9288,-3.9218,-3.8914,-3.8639,-3.8375,-4.6056,-4.6169,-4.6196,-4.622,-4.6255,-4.6183,-4.6169,-4.6158,-4.6037,-4.5929,-4.5819,-4.5765,-4.5722,-4.5603,-4.5476,-4.5361,-4.5277,-4.501,-4.4764,-4.4551,-4.4383,-4.4177,-4.4067,-4.4005,-4.4005,-4.3942,-4.3851,-4.3686,-4.3479,-4.3487,-4.3638,-4.3886,-4.4737,-4.491,-4.4617,-4.4827,-4.5011,-4.52,-4.534,-4.5589,-4.5808,-4.6044,-4.6209,-4.6348,-4.6101,-4.5968,-4.5949,-4.5556,-4.5407,-4.5389,-4.5435,-4.5472,-4.5379,-4.5194,-4.4777,-4.4428,-4.3901,-4.3105,-4.2786,-4.2427,-4.2328,-4.2287,-4.2246,-4.2187,-4.2145,-4.2139,-4.2055,-4.2012,-4.2055,-4.2055,-4.1995,-4.2055,-4.2012,-4.197,-4.1797,-4.1498,-4.118,-4.0806,-4.0485,-4.0337,-4.0155,-4.0003,-3.9901,-3.9798,-3.9642,-3.9484,-3.9432,-3.9325,-3.9325,-3.9342,-3.9288,-3.9288,-3.9288,-3.9288,-3.9288,-3.9288,-3.9288,-3.9288,-3.9288,-3.9288,-3.9288,-3.9288,-3.9288,-3.9288,-3.9288,-3.9288,-3.9288,-3.9288,-3.9288,-3.9288,-3.9288,-3.9218,-3.8985,-3.875,-3.8544,-4.6076,-4.6169,-4.6196,-4.6226,-4.6288,-4.625,-4.6203,-4.6162,-4.6056,-4.5949,-4.5847,-4.5795,-4.5754,-4.5657,-4.5495,-4.5419,-4.5359,-4.5038,-4.4815,-4.4605,-4.4383,-4.4207,-4.4085,-4.4005,-4.4005,-4.3961,-4.3851,-4.3686,-4.3516,-4.3961,-4.44,-4.5052,-4.5966,-4.632,-4.614,-4.6173,-4.6291,-4.6549,-4.6797,-4.6912,-4.7054,-4.7159,-4.7268,-4.721,-4.7092,-4.6921,-4.6828,-4.6717,-4.6531,-4.655,-4.655,-4.655,-4.6345,-4.6034,-4.5416,-4.4807,-4.3852,-4.301,-4.253,-4.2387,-4.2287,-4.2287,-4.2145,-4.2103,-4.2019,-4.1909,-4.178,-4.1736,-4.1754,-4.1736,-4.1675,-4.178,-4.1841,-4.1797,-4.156,-4.13,-4.0995,-4.0631,-4.0387,-4.0238,-4.0188,-4.0054,-4.0003,-3.9901,-3.9798,-3.9694,-3.9537,-3.9432,-3.9325,-3.9325,-3.9288,-3.9288,-3.9288,-3.9288,-3.9288,-3.9288,-3.9288,-3.9288,-3.9288,-3.9288,-3.9288,-3.9288,-3.9288,-3.9288,-3.9288,-3.9288,-3.9288,-3.9288,-3.9288,-3.9288,-3.9288,-3.9218,-3.904,-3.8991,-3.89,-4.6027,-4.6107,-4.617,-4.622,-4.6299,-4.6279,-4.6209,-4.6107,-4.6037,-4.5968,-4.5893,-4.5761,-4.5719,-4.5657,-4.5495,-4.54,-4.5338,-4.5038,-4.4821,-4.4605,-4.4383,-4.4207,-4.4085,-4.4005,-4.4005,-4.3961,-4.3869,-4.3796,-4.3644,-4.4453,-4.5273,-4.615,-4.7083,-4.7407,-4.7587,-4.763,-4.7727,-4.7771,-4.7942,-4.8087,-4.8173,-4.8484,-4.8428,-4.8261,-4.8054,-4.7794,-4.7571,-4.7293,-4.6958,-4.6828,-4.6754,-4.6717,-4.6591,-4.6413,-4.5722,-4.4799,-4.3631,-4.2958,-4.2588,-4.2483,-4.2287,-4.2287,-4.2163,-4.2061,-4.1892,-4.1736,-4.156,-4.1453,-4.1408,-4.1408,-4.1391,-4.1498,-4.1631,-4.1453,-4.1272,-4.1041,-4.0776,-4.0485,-4.0271,-4.0171,-4.0138,-4.0087,-4.0037,-3.9986,-3.9901,-3.9798,-3.9642,-3.9484,-3.9379,-3.9325,-3.9325,-3.9288,-3.9288,-3.9288,-3.9288,-3.9322,-3.9288,-3.9288,-3.9288,-3.9288,-3.9288,-3.9288,-3.9288,-3.9288,-3.9288,-3.9288,-3.9288,-3.9288,-3.9288,-3.9288,-3.9342,-3.9272,-3.9148,-3.9616,-3.9729,-4.6047,-4.6096,-4.617,-4.6195,-4.6231,-4.6228,-4.6183,-4.6099,-4.6085,-4.6003,-4.5893,-4.581,-4.5719,-4.5693,-4.5495,-4.5419,-4.5279,-4.5084,-4.4846,-4.4632,-4.4411,-4.4188,-4.4067,-4.4005,-4.4005,-4.3961,-4.3906,-4.3999,-4.4545,-4.5199,-4.6263,-4.7329,-4.7783,-4.8132,-4.8344,-4.8495,-4.8513,-4.8513,-4.866,-4.875,-4.8837,-4.889,-4.889,-4.876,-4.8649,-4.8426,-4.8296,-4.8203,-4.8036,-4.8091,-4.8147,-4.8184,-4.8203,-4.7562,-4.6703,-4.5294,-4.4198,-4.3292,-4.3114,-4.2626,-4.2376,-4.2406,-4.2228,-4.197,-4.178,-4.1648,-4.1411,-4.1337,-4.1447,-4.1551,-4.1598,-4.1673,-4.1765,-4.1673,-4.1487,-4.1267,-4.1011,-4.0796,-4.0561,-4.0324,-4.0273,-4.0189,-4.0172,-3.9986,-3.9901,-3.9798,-3.9744,-3.969,-3.9565,-3.9545,-3.9508,-3.9487,-3.9653,-3.9752,-3.9471,-3.9421,-3.9338,-3.9288,-3.9305,-3.9305,-3.9288,-3.9288,-3.9288,-3.9288,-3.9288,-3.9288,-3.9288,-3.9288,-3.9288,-3.9342,-3.9358,-3.9272,-3.9351,-3.9886,-4.0374,-4.6047,-4.6099,-4.6183,-4.6203,-4.6183,-4.6183,-4.6107,-4.6065,-4.6047,-4.5991,-4.5912,-4.581,-4.5738,-4.562,-4.5495,-4.54,-4.532,-4.5061,-4.4815,-4.4605,-4.4383,-4.4188,-4.4067,-4.4005,-4.4005,-4.3961,-4.3962,-4.4073,-4.4894,-4.5947,-4.7007,-4.7882,-4.8226,-4.8438,-4.8624,-4.8732,-4.875,-4.8768,-4.8804,-4.8839,-4.8874,-4.889,-4.889,-4.889,-4.889,-4.889,-4.889,-4.889,-4.889,-4.889,-4.889,-4.889,-4.8653,-4.7883,-4.7021,-4.5678,-4.4777,-4.4127,-4.3822,-4.3233,-4.3072,-4.2995,-4.2761,-4.2678,-4.2431,-4.2293,-4.1811,-4.1488,-4.1729,-4.1919,-4.1899,-4.196,-4.2025,-4.2089,-4.1868,-4.1624,-4.1425,-4.1223,-4.0951,-4.0663,-4.0476,-4.0324,-4.0172,-4.0036,-3.9883,-3.9847,-3.996,-4.0137,-4.0047,-3.9993,-3.9956,-3.9918,-4.015,-4.0348,-4.0034,-3.9802,-3.9802,-3.9686,-3.9371,-3.9355,-3.9322,-3.9288,-3.9288,-3.9288,-3.9288,-3.9288,-3.9288,-3.9288,-3.9288,-3.9408,-3.964,-3.9818,-4.005,-4.0426,-4.0849,-4.6037,-4.613,-4.6181,-4.6203,-4.6176,-4.6135,-4.6046,-4.5997,-4.6003,-4.5944,-4.5866,-4.5765,-4.5671,-4.5568,-4.5438,-4.5341,-4.5216,-4.4991,-4.4764,-4.4578,-4.4373,-4.4195,-4.4036,-4.4005,-4.3974,-4.3961,-4.398,-4.4168,-4.504,-4.6243,-4.7481,-4.8226,-4.8437,-4.8642,-4.8787,-4.8839,-4.8855,-4.8855,-4.8874,-4.889,-4.889,-4.889,-4.889,-4.889,-4.889,-4.889,-4.889,-4.889,-4.889,-4.889,-4.889,-4.889,-4.8419,-4.7831,-4.6968,-4.6241,-4.5383,-4.495,-4.4517,-4.4,-4.4,-4.3957,-4.3914,-4.3651,-4.3313,-4.2719,-4.2163,-4.2196,-4.2521,-4.2659,-4.2691,-4.2753,-4.2801,-4.2801,-4.2656,-4.2477,-4.2277,-4.204,-4.1698,-4.1408,-4.1238,-4.1119,-4.0811,-4.0725,-4.0635,-4.0314,-4.0238,-4.0546,-4.0641,-4.0586,-4.0602,-4.0547,-4.0663,-4.0878,-4.0862,-4.0647,-4.0498,-4.0249,-3.9835,-3.9603,-3.9686,-3.952,-3.9288,-3.9288,-3.9288,-3.9288,-3.9288,-3.9421,-3.9603,-3.9702,-3.9984,-4.0398,-4.0763,-4.1104,-4.1402,-4.6113,-4.6181,-4.6196,-4.6196,-4.6189,-4.6065,-4.6007,-4.6003,-4.588,-4.5833,-4.5776,-4.5687,-4.5586,-4.5495,-4.538,-4.5277,-4.5148,-4.4895,-4.4685,-4.4515,-4.4333,-4.4165,-4.4005,-4.3974,-4.3974,-4.3878,-4.3919,-4.4285,-4.5388,-4.6775,-4.7952,-4.8401,-4.8606,-4.8751,-4.8839,-4.889,-4.889,-4.889,-4.889,-4.889,-4.889,-4.889,-4.889,-4.889,-4.889,-4.889,-4.889,-4.889,-4.889,-4.889,-4.889,-4.875,-4.8402,-4.7855,-4.7438,-4.6956,-4.6104,-4.5668,-4.5302,-4.4856,-4.466,-4.4563,-4.4448,-4.4299,-4.3915,-4.3168,-4.2932,-4.3152,-4.3363,-4.3484,-4.3603,-4.3666,-4.368,-4.3631,-4.3516,-4.3385,-4.3235,-4.2894,-4.2498,-4.2309,-4.2102,-4.1844,-4.1586,-4.1376,-4.1385,-4.1255,-4.1122,-4.1282,-4.1481,-4.1508,-4.1541,-4.1508,-4.1259,-4.1359,-4.1491,-4.1425,-4.1243,-4.0961,-4.0564,-4.0332,-4.0117,-3.9951,-3.9769,-3.9421,-3.9288,-3.9553,-3.9802,-3.9918,-4.0067,-4.0183,-4.063,-4.116,-4.164,-4.1997,-4.2162,-4.6138,-4.6196,-4.6169,-4.6154,-4.613,-4.6037,-4.5972,-4.5899,-4.58,-4.5746,-4.5703,-4.562,-4.5532,-4.5438,-4.5298,-4.5148,-4.501,-4.477,-4.4578,-4.4401,-4.4274,-4.4135,-4.4055,-4.3942,-4.3897,-4.3837,-4.4044,-4.4583,-4.5676,-4.6795,-4.7754,-4.8402,-4.8679,-4.8804,-4.889,-4.889,-4.889,-4.889,-4.8909,-4.8946,-4.8946,-4.8946,-4.8909,-4.889,-4.8909,-4.8946,-4.889,-4.889,-4.889,-4.8855,-4.882,-4.855,-4.8269,-4.7904,-4.7572,-4.7176,-4.6704,-4.632,-4.6088,-4.5713,-4.532,-4.5347,-4.5169,-4.5116,-4.5595,-4.5006,-4.4536,-4.4756,-4.4855,-4.4995,-4.5044,-4.5124,-4.5124,-4.5124,-4.491,-4.4761,-4.4577,-4.4285,-4.382,-4.3287,-4.3028,-4.263,-4.2267,-4.1711,-4.1648,-4.1527,-4.1508,-4.1889,-4.2121,-4.2336,-4.2419,-4.2419,-4.217,-4.227,-4.2585,-4.2353,-4.1939,-4.1624,-4.1309,-4.1011,-4.0746,-4.0514,-4.0266,-4.0133,-4.0117,-4.0348,-4.0564,-4.063,-4.0713,-4.0845,-4.1392,-4.1988,-4.2377,-4.2666,-4.2706,-4.5823,-4.5994,-4.6076,-4.6102,-4.6095,-4.6033,-4.5912,-4.58,-4.5712,-4.5635,-4.555,-4.5532,-4.5458,-4.5338,-4.517,-4.4967,-4.4796,-4.4632,-4.4487,-4.4314,-4.4214,-4.4104,-4.3992,-4.3897,-4.3767,-4.3952,-4.4254,-4.4783,-4.5524,-4.6793,-4.7902,-4.8458,-4.8679,-4.8839,-4.8874,-4.889,-4.889,-4.8983,-4.9039,-4.9132,-4.9094,-4.9057,-4.9132,-4.9113,-4.915,-4.915,-4.9113,-4.9057,-4.9057,-4.882,-4.8714,-4.8402,-4.8096,-4.7779,-4.7506,-4.716,-4.6999,-4.6819,-4.6748,-4.632,-4.6409,-4.6498,-4.6159,-4.6203,-4.6646,-4.6553,-4.6112,-4.6088,-4.6192,-4.6213,-4.6262,-4.6244,-4.6293,-4.628,-4.6067,-4.5918,-4.5734,-4.5494,-4.4958,-4.4354,-4.3938,-4.352,-4.3047,-4.2454,-4.2161,-4.1986,-4.2038,-4.2402,-4.2717,-4.2932,-4.3065,-4.3115,-4.3032,-4.3247,-4.3446,-4.3131,-4.2585,-4.2419,-4.2104,-4.174,-4.1359,-4.1044,-4.0945,-4.1127,-4.1177,-4.111,-4.1243,-4.1359,-4.1442,-4.1558,-4.217,-4.2659,-4.2699,-4.297,-4.3021,-4.4503,-4.52,-4.5823,-4.6083,-4.6066,-4.5949,-4.586,-4.5703,-4.5651,-4.5532,-4.538,-4.5298,-4.5254,-4.5211,-4.5014,-4.4821,-4.4632,-4.4496,-4.4373,-4.4214,-4.4104,-4.3992,-4.3878,-4.3734,-4.3513,-4.3725,-4.4249,-4.5176,-4.5669,-4.709,-4.818,-4.855,-4.8768,-4.8874,-4.8855,-4.8909,-4.8946,-4.9113,-4.954,-4.9782,-4.993,-4.9912,-4.9873,-5.0114,-5.056,-5.0319,-5.0131,-4.991,-4.9466,-4.9061,-4.8624,-4.8267,-4.7937,-4.7656,-4.7396,-4.7169,-4.7043,-4.6998,-4.6837,-4.6712,-4.6873,-4.6873,-4.6605,-4.6712,-4.6987,-4.7041,-4.6824,-4.6884,-4.6932,-4.6737,-4.6767,-4.6696,-4.6696,-4.6754,-4.6645,-4.6597,-4.6449,-4.6199,-4.577,-4.5425,-4.5127,-4.4719,-4.4355,-4.3906,-4.3588,-4.3373,-4.3115,-4.3396,-4.323,-4.3446,-4.3661,-4.3645,-4.3645,-4.3645,-4.3595,-4.3562,-4.3214,-4.3081,-4.2866,-4.2402,-4.1939,-4.1475,-4.1458,-4.1856,-4.1723,-4.1524,-4.1707,-4.2137,-4.222,-4.2402,-4.2982,-4.3353,-4.3251,-4.3152,-4.3232]}]]